[[{"header":{"parameterUnit":"m.s-1","parameterCategory":1,"la1":30.6,"la2":28.766,"lo1":-90.7593,"lo2":-88.6598,"dy":0.0162,"dx":0.0183,"nx":116,"ny":114,"refTime":"2023-08-12T06:00:00:Z","depth":0,"parameterNumber":2,"parameterNumberName":"U-component_of_WINDS"},"data":[0.0,0.0,0.0,0.0,0.0,0.0,0.0,0.0,0.0,0.0,0.0,0.0,0.0,0.0,0.0,0.0,0.0,0.0,0.0,0.0,0.0,0.0,0.0,0.0,0.0,0.0,0.0,0.0,0.0,0.0,0.0,0.0,0.0,0.0,0.0,0.0,0.0,0.0,0.0,0.0,0.0,0.0,0.0,0.0,0.0,0.0,0.0,0.0,0.0,0.0,0.0,0.0,0.0,0.0,0.0,0.0,0.0,0.0,0.0,0.0,0.0,0.0,0.0,0.0,0.0,0.0,0.0,0.0,0.0,0.0,0.0,0.0,0.0,0.0,0.0,0.0,0.0,0.0,0.0,0.0,0.0,0.0,0.0,0.0,0.0,0.0,0.0,0.0,0.0,0.0,0.0,0.0,0.0,0.0,0.0,0.0,0.0,0.0,0.0,0.0,0.0,0.0,0.0,0.0,0.0,0.0,0.0,0.0,0.0,0.0,0.0,0.0,0.0,0.0,0.0,0.0,0.0,0.0,0.0,0.0,0.0,0.0,0.0,0.0,0.0,0.0,0.0,0.0,0.0,0.0,0.0,0.0,0.0,0.0,0.0,0.0,0.0,0.0,0.0,0.0,0.0,0.0,0.0,0.0,0.0,0.0,0.0,0.0,0.0,0.0,0.0,0.0,0.0,0.0,0.0,0.0,0.0,0.0,0.0,0.0,0.0,0.0,0.0,0.0,0.0,0.0,0.0,0.0,0.0,0.0,0.0,0.0,0.0,0.0,0.0,0.0,0.0,0.0,0.0,0.0,0.0,0.0,0.0,0.0,0.0,0.0,0.0,0.0,0.0,0.0,0.0,0.0,0.0,0.0,0.0,0.0,0.0,0.0,0.0,0.0,0.0,0.0,0.0,0.0,0.0,0.0,0.0,0.0,0.0,0.0,0.0,0.0,0.0,0.0,0.0,0.0,0.0,0.0,0.0,0.0,0.0,0.0,0.0,0.0,0.0,0.0,0.0,0.0,0.0,0.0,0.0,0.0,0.0,0.0,0.0,0.0,0.0,0.0,0.0,0.0,0.0,0.0,0.0,0.0,0.0,0.0,0.0,0.0,0.0,0.0,0.0,0.0,0.0,0.0,0.0,0.0,0.0,0.0,0.0,0.0,0.0,0.0,0.0,0.0,0.0,0.0,0.0,0.0,0.0,0.0,0.0,0.0,0.0,0.0,0.0,0.0,0.0,0.0,0.0,0.0,0.0,0.0,0.0,0.0,0.0,0.0,0.0,0.0,0.0,0.0,0.0,0.0,0.0,0.0,0.0,0.0,0.0,0.0,0.0,0.0,0.0,0.0,0.0,0.0,0.0,0.0,0.0,0.0,0.0,0.0,0.0,0.0,0.0,0.0,0.0,0.0,0.0,0.0,0.0,0.0,0.0,0.0,0.0,0.0,0.0,0.0,0.0,0.0,0.0,0.0,0.0,0.0,0.0,0.0,0.0,0.0,0.0,0.0,0.0,0.0,0.0,0.0,0.0,0.0,0.0,0.0,0.0,0.0,0.0,0.0,0.0,0.0,0.0,0.0,0.0,0.0,0.0,0.0,0.0,0.0,0.0,0.0,0.0,0.0,0.0,0.0,0.0,0.0,0.0,0.0,0.0,0.0,0.0,0.0,0.0,0.0,0.0,0.0,0.0,0.0,0.0,0.0,0.0,0.0,0.0,0.0,0.0,0.0,0.0,0.0,0.0,0.0,0.0,0.0,0.0,0.0,0.0,0.0,0.0,0.0,0.0,0.0,0.0,0.0,0.0,0.0,0.0,0.0,0.0,0.0,0.0,0.0,0.0,0.0,0.0,0.0,0.0,0.0,0.0,0.0,0.0,0.0,0.0,0.0,0.0,0.0,0.0,0.0,0.0,0.0,0.0,0.0,0.0,0.0,0.0,0.0,0.0,0.0,0.0,0.0,0.0,0.0,0.0,0.0,0.0,0.0,0.0,0.0,0.0,0.0,0.0,0.0,0.0,0.0,0.0,0.0,0.0,0.0,0.0,0.0,0.0,0.0,0.0,0.0,0.0,0.0,0.0,0.0,0.0,0.0,0.0,0.0,0.0,0.0,0.0,0.0,0.0,0.0,0.0,0.0,0.0,0.0,0.0,0.0,0.0,0.0,0.0,0.0,0.0,0.0,0.0,0.0,0.0,0.0,0.0,0.0,0.0,0.0,0.0,0.0,0.0,0.0,0.0,0.0,0.0,0.0,0.0,0.0,0.0,0.0,0.0,0.0,0.0,0.0,0.0,0.0,0.0,0.0,0.0,0.0,0.0,0.0,0.0,0.0,0.0,0.0,0.0,0.0,0.0,0.0,0.0,0.0,0.0,0.0,0.0,0.0,0.0,0.0,0.0,0.0,0.0,0.0,0.0,0.0,0.0,0.0,0.0,0.0,0.0,0.0,0.0,0.0,0.0,0.0,0.0,0.0,0.0,0.0,0.0,0.0,0.0,0.0,0.0,0.0,0.0,0.0,0.0,0.0,0.0,0.0,0.0,0.0,0.0,0.0,0.0,0.0,0.0,0.0,0.0,0.0,0.0,0.0,0.0,0.0,0.0,0.0,0.0,0.0,0.0,0.0,0.0,0.0,0.0,0.0,0.0,0.0,0.0,0.0,0.0,0.0,0.0,0.0,0.0,0.0,0.0,0.0,0.0,0.0,0.0,0.0,0.0,0.0,0.0,0.0,0.0,0.0,0.0,0.0,0.0,0.0,0.0,0.0,0.0,0.0,0.0,0.0,0.0,0.0,0.0,0.0,0.0,0.0,0.0,0.0,0.0,0.0,0.0,0.0,0.0,0.0,0.0,0.0,0.0,0.0,0.0,0.0,0.0,0.0,0.0,0.0,0.0,0.0,0.0,0.0,0.0,0.0,0.0,0.0,0.0,0.0,0.0,0.0,0.0,0.0,0.0,0.0,0.0,0.0,0.0,0.0,0.0,0.0,0.0,0.0,0.0,0.0,0.0,0.0,0.0,0.0,0.0,0.0,0.0,0.0,0.0,0.0,0.0,0.0,0.0,0.0,0.0,0.0,0.0,0.0,0.0,0.0,0.0,0.0,0.0,0.0,0.0,0.0,0.0,0.0,0.0,0.0,0.0,0.0,0.0,0.0,0.0,0.0,0.0,0.0,0.0,0.0,0.0,0.0,0.0,0.0,0.0,0.0,0.0,0.0,0.0,0.0,0.0,0.0,0.0,0.0,0.0,0.0,0.0,0.0,0.0,0.0,0.0,0.0,0.0,0.0,0.0,0.0,0.0,0.0,0.0,0.0,0.0,0.0,0.0,0.0,0.0,0.0,0.0,0.0,0.0,0.0,0.0,0.0,0.0,0.0,0.0,0.0,0.0,0.0,0.0,0.0,0.0,0.0,0.0,0.0,0.0,0.0,0.0,0.0,0.0,0.0,0.0,0.0,0.0,0.0,0.0,0.0,0.0,0.0,0.0,0.0,0.0,0.0,0.0,0.0,0.0,0.0,0.0,0.0,0.0,0.0,0.0,0.0,0.0,0.0,0.0,0.0,0.0,0.0,0.0,0.0,0.0,0.0,0.0,0.0,0.0,0.0,0.0,0.0,0.0,0.0,0.0,0.0,0.0,0.0,0.0,0.0,0.0,0.0,0.0,0.0,0.0,0.0,0.0,0.0,0.0,0.0,0.0,0.0,0.0,0.0,0.0,0.0,0.0,0.0,0.0,0.0,0.0,0.0,0.0,0.0,0.0,0.0,0.0,0.0,0.0,0.0,0.0,0.0,0.0,0.0,0.0,0.0,0.0,0.0,0.0,0.0,0.0,0.0,0.0,0.0,0.0,0.0,0.0,0.0,0.0,0.0,0.0,0.0,0.0,0.0,0.0,0.0,0.0,0.0,0.0,0.0,0.0,0.0,0.0,0.0,0.0,0.0,0.0,0.0,0.0,0.0,0.0,0.0,0.0,0.0,0.0,0.0,0.0,0.0,0.0,0.0,0.0,0.0,0.0,0.0,0.0,0.0,0.0,0.0,0.0,0.0,0.0,0.0,0.0,0.0,0.0,0.0,0.0,0.0,0.0,0.0,0.0,0.0,0.0,0.0,0.0,0.0,0.0,0.0,0.0,0.0,0.0,0.0,0.0,0.0,0.0,0.0,0.0,0.0,0.0,0.0,0.0,0.0,0.0,0.0,0.0,0.0,0.0,0.0,0.0,0.0,0.0,0.0,0.0,0.0,0.0,0.0,0.0,0.0,0.0,0.0,0.0,0.0,0.0,0.0,0.0,0.0,0.0,0.0,0.0,0.0,0.0,0.0,0.0,0.0,0.0,0.0,0.0,0.0,0.0,0.0,0.0,0.0,0.0,0.0,0.0,0.0,0.0,0.0,0.0,0.0,0.0,0.0,0.0,0.0,0.0,0.0,0.0,0.0,0.0,0.0,0.0,0.0,0.0,0.0,0.0,0.0,0.0,0.0,0.0,0.0,0.0,0.0,0.0,0.0,0.0,0.0,0.0,0.0,0.0,0.0,0.0,0.0,0.0,0.0,0.0,0.0,0.0,0.0,0.0,0.0,0.0,0.0,0.0,0.0,0.0,0.0,0.0,0.0,0.0,0.0,0.0,0.0,0.0,0.0,0.0,0.0,0.0,0.0,0.0,0.0,0.0,0.0,0.0,0.0,0.0,0.0,0.0,0.0,0.0,0.0,0.0,0.0,0.0,0.0,0.0,0.0,0.0,0.0,0.0,0.0,0.0,0.0,0.0,0.0,0.0,0.0,0.0,0.0,0.0,0.0,0.0,0.0,0.0,0.0,0.0,0.0,0.0,0.0,0.0,0.0,0.0,0.0,0.0,0.0,0.0,0.0,0.0,0.0,0.0,0.0,0.0,0.0,0.0,0.0,0.0,0.0,0.0,0.0,0.0,0.0,0.0,0.0,0.0,0.0,0.0,0.0,0.0,0.0,0.0,0.0,0.0,0.0,0.0,0.0,0.0,0.0,0.0,0.0,0.0,0.0,0.0,0.0,0.0,0.0,0.0,0.0,0.0,0.0,0.0,0.0,0.0,0.0,0.0,0.0,0.0,0.0,0.0,0.0,0.0,0.0,0.0,0.0,0.0,0.0,0.0,0.0,0.0,0.0,0.0,0.0,0.0,0.0,0.0,0.0,0.0,0.0,0.0,0.0,0.0,0.0,0.0,0.0,0.0,0.0,0.0,0.0,0.0,0.0,0.0,0.0,0.0,0.0,0.0,0.0,0.0,0.0,0.0,0.0,0.0,0.0,0.0,0.0,0.0,0.0,0.0,0.0,0.0,0.0,0.0,0.0,0.0,0.0,0.0,0.0,0.0,0.0,0.0,0.0,0.0,0.0,0.0,0.0,0.0,0.0,0.0,0.0,0.0,0.0,0.0,0.0,0.0,0.0,0.0,0.0,0.0,0.0,0.0,0.0,0.0,0.0,0.0,0.0,0.0,0.0,0.0,0.0,0.0,0.0,0.0,0.0,0.0,0.0,0.0,0.0,0.0,0.0,0.0,0.0,0.0,0.0,0.0,0.0,0.0,0.0,0.0,0.0,0.0,0.0,0.0,0.0,0.0,0.0,0.0,0.0,0.0,0.0,0.0,0.0,0.0,0.0,0.0,0.0,0.0,0.0,0.0,0.0,0.0,0.0,0.0,0.0,0.0,0.0,0.0,0.0,0.0,0.0,0.0,0.0,0.0,0.0,0.0,0.0,0.0,0.0,0.0,0.0,0.0,0.0,0.0,0.0,0.0,0.0,0.0,0.0,0.0,0.0,0.0,0.0,0.0,0.0,0.0,0.0,0.0,0.0,0.0,0.0,0.0,0.0,0.0,0.0,0.0,0.0,0.0,0.0,0.0,0.0,0.0,0.0,0.0,0.0,0.0,0.0,0.0,0.0,0.0,0.0,0.0,0.0,0.0,0.0,0.0,0.0,0.0,0.0,0.0,0.0,0.0,0.0,0.0,0.0,0.0,0.0,0.0,0.0,0.0,0.0,0.0,0.0,0.0,0.0,0.0,0.0,0.0,0.0,0.0,0.0,0.0,0.0,0.0,0.0,0.0,0.0,0.0,0.0,0.0,0.0,0.0,0.0,-3.5091,-3.5522,0.0,0.0,0.0,0.0,0.0,0.0,0.0,0.0,0.0,0.0,0.0,0.0,0.0,0.0,0.0,0.0,0.0,0.0,0.0,0.0,0.0,0.0,0.0,0.0,0.0,0.0,0.0,0.0,0.0,0.0,0.0,0.0,0.0,0.0,0.0,0.0,0.0,0.0,0.0,0.0,0.0,0.0,0.0,0.0,0.0,0.0,0.0,0.0,0.0,0.0,0.0,0.0,0.0,0.0,0.0,0.0,0.0,0.0,0.0,0.0,0.0,0.0,0.0,0.0,0.0,0.0,0.0,0.0,0.0,0.0,0.0,0.0,0.0,0.0,0.0,0.0,0.0,0.0,0.0,0.0,0.0,0.0,0.0,0.0,0.0,0.0,0.0,0.0,0.0,0.0,0.0,0.0,0.0,0.0,0.0,0.0,0.0,0.0,0.0,0.0,0.0,0.0,0.0,0.0,0.0,0.0,0.0,0.0,0.0,0.0,0.0,0.0,0.0,0.0,-3.5404,-3.5116,0.0,0.0,0.0,0.0,0.0,0.0,0.0,0.0,0.0,0.0,0.0,0.0,0.0,0.0,0.0,0.0,0.0,0.0,0.0,0.0,0.0,0.0,0.0,0.0,0.0,0.0,0.0,0.0,0.0,0.0,0.0,0.0,0.0,0.0,0.0,0.0,0.0,0.0,0.0,0.0,0.0,0.0,0.0,0.0,0.0,0.0,0.0,0.0,0.0,0.0,0.0,0.0,0.0,0.0,0.0,0.0,0.0,0.0,0.0,0.0,0.0,0.0,0.0,0.0,0.0,0.0,0.0,0.0,0.0,0.0,0.0,0.0,0.0,0.0,0.0,0.0,0.0,0.0,0.0,0.0,0.0,0.0,0.0,0.0,0.0,0.0,0.0,0.0,0.0,0.0,0.0,0.0,0.0,0.0,0.0,0.0,0.0,0.0,0.0,0.0,0.0,0.0,0.0,0.0,0.0,0.0,0.0,0.0,-3.7564,-3.7929,-3.9051,-3.8858,-3.7796,-3.622,-3.595,-3.4952,-3.351,-3.3739,0.0,0.0,0.0,0.0,0.0,0.0,0.0,0.0,0.0,0.0,0.0,0.0,0.0,0.0,0.0,0.0,0.0,0.0,0.0,0.0,0.0,0.0,0.0,0.0,0.0,0.0,0.0,0.0,0.0,0.0,0.0,0.0,0.0,0.0,0.0,0.0,0.0,0.0,-1.8984,-1.9113,-1.9243,-1.9419,-1.9396,0.0,0.0,0.0,0.0,0.0,0.0,0.0,0.0,0.0,0.0,0.0,0.0,0.0,0.0,0.0,0.0,0.0,0.0,0.0,0.0,0.0,0.0,0.0,0.0,0.0,0.0,0.0,0.0,0.0,0.0,0.0,0.0,0.0,0.0,0.0,0.0,0.0,0.0,0.0,0.0,0.0,0.0,0.0,-2.6195,-2.7683,0.0,0.0,0.0,0.0,0.0,0.0,0.0,0.0,0.0,0.0,0.0,0.0,0.0,-3.5894,-3.5894,-3.6621,-3.7084,-3.7251,-3.7184,-3.6943,-3.6645,-3.6555,-3.584,-3.4666,-3.4616,0.0,-3.3396,-3.2342,0.0,0.0,0.0,0.0,0.0,0.0,0.0,0.0,0.0,0.0,0.0,0.0,0.0,0.0,0.0,0.0,0.0,0.0,0.0,0.0,0.0,0.0,0.0,0.0,0.0,0.0,0.0,0.0,0.0,0.0,0.0,0.0,0.0,0.0,0.0,0.0,-1.8674,-1.8775,-1.924,-1.9494,-1.9625,-1.97,-2.0151,-1.9457,-1.802,-1.8082,0.0,0.0,0.0,0.0,0.0,0.0,0.0,0.0,0.0,0.0,0.0,0.0,0.0,0.0,0.0,0.0,0.0,0.0,0.0,0.0,0.0,0.0,0.0,0.0,0.0,0.0,0.0,0.0,0.0,0.0,0.0,0.0,0.0,0.0,0.0,0.0,0.0,0.0,0.0,-2.6171,-2.7471,-2.8953,-2.947,-3.004,0.0,0.0,0.0,0.0,0.0,0.0,0.0,0.0,0.0,-3.5169,-3.6125,-3.6622,-3.6622,-3.6582,-3.696,-3.7731,-3.7354,-3.7269,-3.741,-3.7355,-3.6667,-3.5507,-3.5091,-3.4592,-3.4025,-3.3335,-3.3064,-3.3051,0.0,0.0,0.0,0.0,-3.1482,-3.1482,0.0,0.0,0.0,0.0,0.0,0.0,0.0,0.0,0.0,0.0,0.0,0.0,0.0,0.0,0.0,-1.2231,0.0,0.0,0.0,0.0,0.0,0.0,0.0,0.0,0.0,0.0,0.0,0.0,-1.8664,-1.8657,-1.9096,-1.9455,-1.9561,-1.9565,-2.0088,-1.9434,-1.7996,-1.8356,-1.744,0.0,0.0,0.0,0.0,0.0,0.0,0.0,0.0,0.0,0.0,0.0,0.0,0.0,0.0,0.0,0.0,0.0,0.0,0.0,0.0,0.0,0.0,0.0,0.0,0.0,0.0,0.0,0.0,0.0,0.0,0.0,0.0,0.0,0.0,0.0,0.0,0.0,0.0,-2.7136,-2.8208,-2.9518,-2.9889,-3.0404,0.0,0.0,0.0,0.0,0.0,0.0,-3.4527,-3.5245,-3.584,-3.629,-3.7003,-3.7384,-3.7384,-3.7137,-3.7498,-3.8477,-3.7861,-3.7832,-3.8294,-3.7937,-3.731,-3.6337,-3.5707,-3.5199,-3.473,-3.4273,-3.3864,-3.3501,-3.3467,-3.3152,-3.2706,-3.2213,-3.2033,-3.2018,0.0,0.0,0.0,0.0,0.0,0.0,0.0,0.0,0.0,0.0,0.0,0.0,0.0,0.0,-1.2224,-1.282,-1.4091,-1.4863,0.0,0.0,0.0,0.0,0.0,0.0,0.0,0.0,0.0,-1.9299,-1.8462,-1.8213,-1.8674,-1.8652,-1.8896,-1.9307,-1.892,-1.8449,-1.7971,-1.7989,-1.7041,-1.5431,0.0,0.0,0.0,0.0,0.0,0.0,0.0,0.0,0.0,0.0,0.0,0.0,0.0,0.0,0.0,0.0,0.0,0.0,0.0,0.0,0.0,0.0,0.0,0.0,0.0,0.0,0.0,0.0,0.0,0.0,0.0,0.0,0.0,0.0,0.0,0.0,0.0,0.0,0.0,-2.8725,-2.9518,0.0,0.0,0.0,0.0,-3.2895,-3.3614,-3.4585,-3.5844,-3.6588,-3.7002,-3.7052,-3.7765,-3.8146,-3.8146,-3.8825,-3.9172,-3.9222,-3.8541,-3.8246,-3.8278,-3.7071,-3.6492,-3.6368,-3.5752,-3.5444,-3.5355,-3.41,-3.3546,-3.3484,-3.3516,-3.3501,-3.344,-3.341,-3.3395,-3.3305,0.0,0.0,0.0,0.0,0.0,0.0,0.0,0.0,0.0,0.0,0.0,0.0,0.0,-1.2732,-1.3462,-1.4099,-1.4958,-1.5877,-1.6835,0.0,0.0,0.0,0.0,0.0,0.0,0.0,-1.9573,-1.9835,-1.9054,-1.9193,-2.0215,-1.9582,-1.9413,-1.9515,-1.872,-1.793,-1.7235,-1.6565,-1.5613,-1.4482,-1.388,-1.3281,0.0,0.0,0.0,0.0,0.0,0.0,0.0,0.0,0.0,0.0,0.0,0.0,0.0,0.0,0.0,0.0,0.0,0.0,0.0,0.0,0.0,0.0,0.0,0.0,0.0,0.0,0.0,0.0,0.0,0.0,0.0,0.0,0.0,0.0,0.0,0.0,0.0,-2.9359,-3.0054,0.0,-3.1073,-3.1132,-3.1667,-3.2895,-3.3222,-3.3946,-3.5232,-3.5992,-3.639,-3.639,-3.7119,-3.75,-3.75,-3.7387,-3.7327,-3.7327,-3.7166,-3.6864,-3.644,-3.6399,-3.6196,-3.5797,-3.5554,-3.525,-3.4801,-3.4322,-3.4382,-3.4741,-3.4307,-3.4128,-3.4068,-3.3649,-3.323,-3.2841,0.0,0.0,0.0,0.0,0.0,0.0,0.0,0.0,0.0,0.0,0.0,-1.162,-1.2746,-1.347,-1.4178,-1.5092,-1.5816,-1.6793,-1.8152,0.0,0.0,0.0,0.0,0.0,0.0,-1.9562,-1.9694,-1.9704,-1.9507,-1.9639,-2.0031,-1.9624,-1.9216,-1.8755,-1.7914,-1.6911,-1.5794,-1.4634,-1.4042,-1.3831,-1.3068,-1.2163,-1.1402,0.0,0.0,0.0,0.0,0.0,0.0,0.0,0.0,0.0,0.0,0.0,0.0,0.0,0.0,0.0,0.0,0.0,0.0,0.0,0.0,0.0,0.0,0.0,0.0,0.0,0.0,0.0,0.0,0.0,0.0,0.0,0.0,0.0,0.0,-2.7591,-2.8505,-2.9359,-3.0068,-3.0568,-3.0955,-3.1014,-3.1552,-3.281,-3.2975,-3.3652,-3.5167,-3.5795,-3.6141,-3.6373,-3.6753,-3.6882,-3.6746,-3.6226,-3.5927,-3.5748,-3.567,-3.5385,-3.4925,-3.5156,-3.5024,-3.4688,-3.4688,-3.442,-3.4003,-3.4003,-3.4271,-3.4629,-3.4322,-3.4143,-3.4098,-3.3602,-3.3169,-3.2706,0.0,0.0,0.0,0.0,0.0,0.0,0.0,0.0,0.0,0.0,-1.1632,-1.2224,-1.2893,-1.347,-1.433,-1.5692,-1.6446,-1.7404,-1.868,-1.9552,0.0,0.0,0.0,0.0,-1.9299,-1.9944,-1.9879,-1.8977,-1.9704,-1.9386,-1.8076,-1.8654,-1.822,-1.6881,-1.6347,-1.5241,-1.3751,-1.238,-1.2432,-1.3444,-1.2806,-1.2151,-1.1381,0.0,0.0,0.0,0.0,0.0,0.0,0.0,0.0,0.0,0.0,0.0,0.0,0.0,0.0,0.0,0.0,0.0,0.0,0.0,0.0,0.0,0.0,0.0,0.0,0.0,0.0,0.0,0.0,0.0,0.0,0.0,0.0,0.0,-2.5229,-2.6595,-2.7868,-2.8661,-2.9435,-3.0068,-3.0702,-3.0762,-3.1306,-3.2563,-3.2865,-3.381,-3.5795,-3.6065,-3.6372,-3.6985,-3.6781,-3.6368,-3.5916,-3.5662,-3.5245,-3.4804,-3.4232,-3.3923,-3.3923,-3.3302,-3.3022,-3.3022,-3.3022,-3.3007,-3.2992,-3.2992,-3.2978,-3.2963,-3.3347,-3.3499,-3.3499,-3.333,-3.3268,-3.3149,0.0,0.0,0.0,0.0,0.0,0.0,0.0,0.0,0.0,0.0,-1.2305,-1.2893,-1.347,-1.3985,-1.484,-1.6254,-1.6446,-1.7267,-1.9253,0.0,0.0,0.0,0.0,0.0,-1.9299,-1.9365,-1.9233,-1.8977,-1.9177,-1.9375,-1.9507,-1.8603,-1.7978,-1.7503,-1.5221,-1.3682,-1.2795,-1.0838,-1.0243,-1.0599,-0.9986,-0.9361,-0.8786,0.0,0.0,0.0,0.0,0.0,0.0,0.0,0.0,0.0,0.0,0.0,0.0,0.0,0.0,0.0,0.0,0.0,0.0,0.0,0.0,0.0,0.0,0.0,0.0,0.0,0.0,0.0,0.0,0.0,0.0,0.0,-2.339,-2.4552,-2.5943,-2.7338,-2.8298,-2.857,-2.967,-3.0447,-3.0642,-3.0642,-3.1131,-3.2321,-3.2283,-3.2764,-3.4057,-3.4282,-3.4394,-3.4414,-3.4667,-3.46,-3.4122,-3.3675,-3.3168,-3.2706,-3.2586,-3.2541,-3.2556,-3.2862,-3.3022,-3.3022,-3.3022,-3.2756,-3.2252,-3.2252,-3.2001,-3.1752,-3.2729,-3.3161,-3.3161,-3.3099,-3.2694,-3.2147,0.0,0.0,0.0,0.0,0.0,0.0,0.0,0.0,0.0,0.0,-1.215,-1.2592,-1.2806,-1.355,-1.441,-1.5438,-1.6009,-1.706,-1.89,0.0,0.0,0.0,0.0,-1.8516,-1.7794,-1.7997,-1.793,-1.7599,-1.819,-1.8237,-1.7813,-1.7173,-1.6312,-1.5031,-1.3281,-1.1592,-0.9873,-0.8679,-0.7634,-0.678,-0.6384,-0.6411,-0.6508,-0.606,-0.5651,-0.5429,-0.5789,-0.588,-0.606,-0.67,0.0,0.0,0.0,0.0,0.0,0.0,0.0,0.0,0.0,0.0,0.0,0.0,0.0,0.0,0.0,0.0,0.0,0.0,0.0,0.0,0.0,0.0,0.0,0.0,-2.3327,-2.4552,-2.5804,-2.6947,-2.7855,-2.8427,-2.9205,-2.9917,-3.0568,-3.0568,-3.1014,-3.1962,-3.1679,-3.1946,-3.3061,-3.2986,-3.3002,-3.3114,-3.3251,-3.3145,-3.2703,-3.2241,-3.1807,-3.1349,-3.1397,-3.1408,-3.1423,-3.1804,-3.1965,-3.1965,-3.1965,-3.176,-3.1408,-3.1408,-3.1203,-3.0969,0.0,0.0,0.0,0.0,-3.1745,-3.1197,0.0,0.0,0.0,0.0,0.0,0.0,0.0,0.0,0.0,0.0,0.0,-1.1781,-1.1409,-1.2599,-1.3542,-1.3829,-1.5209,-1.6636,0.0,0.0,0.0,-1.689,-1.6642,-1.6184,-1.5517,-1.6105,-1.6027,-1.5209,-1.645,-1.6078,-1.4086,-1.46,-1.3336,-1.0672,-1.0524,-0.8796,-0.5937,-0.586,-0.4462,-0.2407,-0.2408,-0.3225,-0.44,-0.3366,-0.2535,-0.2046,-0.2676,-0.2858,-0.3038,-0.4482,0.0,0.0,0.0,0.0,0.0,0.0,0.0,0.0,0.0,0.0,0.0,0.0,0.0,0.0,0.0,0.0,0.0,0.0,0.0,0.0,0.0,0.0,0.0,0.0,-2.3548,-2.4337,-2.5087,-2.5955,-2.6973,-2.8363,-2.8556,-2.9142,-3.0447,-3.0568,-3.0911,-3.158,-3.1146,-3.1306,-3.247,-3.2099,0.0,0.0,0.0,-3.2074,-3.1637,-3.1437,-3.1043,-3.0568,-3.0568,-3.0568,-3.0568,-3.0568,-3.0568,-3.0568,-3.0568,-3.0568,-3.0568,-3.0568,-3.0568,-3.0642,-3.0955,-3.1014,-3.1014,-3.0821,-3.0642,-3.0387,0.0,0.0,0.0,0.0,0.0,0.0,0.0,0.0,0.0,-1.0663,-1.1111,-1.1335,-1.0962,-1.2003,-1.2799,-1.2816,-1.4068,-1.528,0.0,0.0,-1.5496,-1.5817,-1.5309,-1.468,-1.3999,-1.4134,-1.3596,-1.2322,-1.259,-1.2037,-1.0834,-1.0346,-0.8975,-0.699,-0.5692,-0.4194,-0.2448,-0.1769,-0.0386,0.1399,0.125,-0.0403,-0.262,-0.1628,-0.121,-0.0957,-0.0353,-0.0089,-0.0089,-0.0444,-0.0622,-0.0979,-0.196,0.0,0.0,0.0,0.0,0.0,0.0,0.0,0.0,0.0,0.0,0.0,0.0,0.0,0.0,0.0,0.0,0.0,0.0,0.0,0.0,-2.1873,-2.318,-2.4181,-2.4337,-2.5581,-2.6973,-2.8363,-2.903,-2.9685,-3.0507,-3.0568,-3.0807,-3.1336,-3.0999,-3.1043,-3.1537,-3.158,-3.1595,-3.1595,-3.1823,-3.1766,-3.1394,-3.1336,-3.1043,-3.0568,-3.0568,0.0,-3.0568,-3.0568,-3.0568,-3.0568,-3.0568,-3.0568,-3.0568,-3.0568,-3.0568,-3.0628,-3.0702,-3.0702,-3.0702,-3.0642,-3.0251,-2.9747,0.0,0.0,0.0,0.0,0.0,0.0,0.0,0.0,0.0,0.0,-1.0887,-1.0812,-1.0368,-1.1037,-1.1471,-1.123,-1.2304,0.0,0.0,-1.3598,-1.3273,-1.3121,-1.3733,-1.3888,-1.3572,-1.0483,-0.8513,-0.7773,-0.7603,-0.6826,-0.5538,-0.5187,-0.3676,-0.1343,-0.0983,0.0531,0.2722,0.2294,0.345,0.543,0.4555,0.3528,0.2561,0.1816,0.1524,0.1729,0.262,0.2911,0.3025,0.3385,0.3477,0.3212,0.2411,0.1429,0.0357,0.0,0.0,0.0,0.0,0.0,0.0,0.0,0.0,0.0,0.0,0.0,0.0,0.0,0.0,-1.6764,-1.8718,0.0,-2.0138,-2.1568,-2.2756,-2.3694,-2.4047,-2.5146,-2.6414,-2.7855,-2.8634,-2.9345,-3.0007,-3.0387,-3.0687,-3.0925,-3.0821,-3.0747,-3.0925,-3.1043,-3.1043,-3.0925,-3.1146,-3.1146,-3.0925,-3.0925,-3.0807,-3.0568,-3.0568,-3.0568,-3.0568,-3.0568,-3.0568,-3.0568,-3.0568,-3.0568,-3.0568,-3.0251,-3.0129,-3.0054,-2.967,-2.9794,-3.0129,-3.0129,-2.967,-2.903,0.0,0.0,0.0,0.0,0.0,0.0,0.0,0.0,0.0,0.0,-1.0438,-0.9986,-0.969,-0.9986,-1.0132,0.0,0.0,0.0,0.0,-1.092,-0.9959,-0.8888,-1.0453,-1.1193,-1.075,-0.5783,-0.2868,-0.226,-0.1874,-0.0973,0.0375,0.0599,0.2095,0.451,0.4072,0.5358,0.7711,0.6479,0.7246,0.9065,0.7685,0.761,0.8059,0.5855,0.4938,0.4877,0.5698,0.604,0.613,0.6799,0.6996,0.6818,0.6373,0.4928,0.331,0.2768,0.1877,0.0,0.0,0.0,0.0,0.0,0.0,0.0,0.0,-1.059,-1.214,-1.3613,-1.4294,-1.544,-1.8132,-1.87,-1.9413,-2.1165,-2.2241,-2.3128,-2.3756,-2.4636,-2.5709,-2.6934,-2.7776,-2.8634,-2.9498,-3.0068,-3.0447,-3.0568,-3.0568,-3.051,-3.0393,-3.0393,-3.0335,-3.0205,-3.0205,-3.0205,-3.0205,-3.0205,-3.0205,-3.0205,-3.0205,-3.0205,-3.0205,-3.0335,-3.0393,-3.0393,-3.0389,-3.0387,-3.0326,-2.9685,-2.9421,-2.9359,-2.8762,-2.8762,-2.9233,-2.9359,-2.8903,-2.8247,0.0,0.0,0.0,0.0,0.0,0.0,0.0,0.0,0.0,0.0,0.0,0.0,0.0,0.0,0.0,0.0,0.0,0.0,-0.9494,-0.603,-0.3463,-0.2292,-0.3284,-0.2961,-0.1049,-0.0075,0.1643,0.4333,0.4828,0.5436,0.6094,0.7066,0.8066,0.9114,1.0003,1.0414,1.0609,1.0881,1.1267,1.1685,1.0787,1.0935,1.147,0.9873,0.8444,0.7415,0.8647,0.9039,0.9083,0.9178,0.9065,0.8803,0.8097,0.6678,0.5351,0.527,0.0,0.458,0.2145,-0.0357,-0.2321,-0.2498,-0.4186,-0.5877,0.0,-0.8424,-1.0864,-1.2049,-1.3432,-1.5047,-1.709,-1.8149,-1.8948,-1.9972,-2.1441,-2.2585,-2.2798,-2.4131,-2.5158,-2.5511,-2.6799,-2.813,-2.9484,-2.9685,-2.9931,-3.0568,-3.0568,-3.0321,-2.9755,-2.9726,-2.9479,-2.8913,-2.8884,-2.8884,-2.8884,-2.8884,-2.8884,-2.8884,-2.8884,-2.8884,-2.8913,-2.9479,-2.9726,-2.9696,-2.969,-2.9685,-2.9685,-2.8889,-2.862,-2.862,-2.8556,-2.8182,-2.7802,-2.8376,-2.8182,-2.7604,0.0,0.0,0.0,0.0,0.0,0.0,0.0,0.0,0.0,0.0,0.0,0.0,0.0,0.0,0.0,0.0,0.0,0.0,-0.5407,-0.2238,0.0232,0.1387,0.4275,0.6389,0.7605,0.8508,0.9891,1.1709,1.0935,1.11,1.2198,1.2663,1.3499,1.4718,1.4323,1.459,1.5303,1.3856,1.3814,1.4633,1.3114,1.2896,1.3491,1.2398,1.1577,1.0883,0.9617,0.9486,0.0,0.0,0.9482,0.9577,0.8757,0.8006,0.7302,0.7305,0.7051,0.0,0.4643,0.3309,0.197,-0.0268,-0.1608,-0.2946,-0.5171,-0.6672,-0.8245,-1.0509,-1.198,-1.351,-1.5906,-1.7066,-1.8132,-1.9659,-2.0518,-2.1354,-2.2499,-2.361,-2.4564,-2.5229,-2.5921,-2.7105,-2.8784,-2.8976,-2.9284,-2.9957,-2.9682,-2.9348,-2.9087,-2.9073,-2.8956,-2.8695,-2.8681,-2.8681,-2.8681,-2.8681,-2.8681,-2.8681,-2.8681,-2.8681,-2.8695,-2.8956,-2.9073,-2.9087,-2.8677,-2.8552,-2.8493,-2.735,-2.6924,-2.691,-2.6491,-2.6181,-2.6076,-2.7433,-2.7484,-2.6905,0.0,0.0,0.0,0.0,0.0,0.0,0.0,0.0,0.0,0.0,0.0,0.0,0.0,0.0,0.0,0.0,0.0,0.0,0.0,0.1699,0.3797,0.4966,0.9346,1.2216,1.3131,1.4457,1.5788,1.7135,1.6195,1.6129,1.6919,1.7359,1.7959,1.8583,1.785,1.7967,1.8649,1.6591,1.6271,1.6922,1.5092,1.4673,1.5029,1.4178,1.3818,1.3484,1.1136,1.0723,0.0,0.0,1.0584,1.0781,1.0193,0.967,0.9334,0.9474,0.8873,0.7822,0.6425,0.5916,0.4938,0.1789,0.0537,-0.0716,-0.3477,-0.4903,-0.6319,-0.8578,-1.024,-1.1969,-1.44,-1.5831,-1.7155,-1.9097,-1.959,-2.0372,-2.2069,-2.2974,-2.383,-2.4649,-2.5093,-2.5985,-2.7595,-2.7948,-2.838,-2.9058,-2.8871,-2.8608,-2.8419,-2.8419,-2.8332,-2.8158,-2.8158,-2.8158,-2.8158,-2.8158,-2.8158,-2.8158,-2.8158,-2.8158,-2.8158,-2.8332,-2.845,-2.844,-2.7778,-2.7412,-2.7175,-2.6021,-2.5534,-2.5471,-2.5,-2.482,-2.4973,-2.627,-2.6445,-2.6013,0.0,0.0,0.0,0.0,0.0,0.0,0.0,0.0,0.0,0.0,0.0,0.0,0.0,0.0,0.0,0.0,0.0,0.0,0.0,0.5909,0.8111,0.9276,1.0456,1.2058,1.4324,1.5445,1.7137,1.9422,2.0434,2.0422,1.9401,2.1049,2.0997,1.9488,2.0504,2.0375,1.9433,1.9212,1.888,1.8335,1.7001,1.6533,1.6385,1.51,1.4609,1.4505,1.3963,0.0,0.0,0.0,1.3166,1.3141,1.2889,1.2135,0.0,1.1827,1.0773,0.9213,0.7485,0.6422,0.5354,0.4024,0.1788,-0.0,-0.0179,-0.3031,-0.5695,-0.5835,-0.8214,-1.0864,-1.2729,-1.433,-1.5928,-1.7747,-1.8807,-1.9775,-2.1041,-2.2114,-2.288,-2.3315,-2.4207,-2.509,-2.5824,-2.6404,-2.7056,-2.7806,-2.8397,-2.8405,-2.7795,-2.7752,-2.7476,-2.6866,-2.6837,-2.6837,-2.6837,-2.6837,-2.6837,-2.6837,-2.6837,-2.6837,-2.6866,-2.7476,-2.7752,-2.7778,-2.7042,-2.6425,-2.5834,-2.5129,-2.482,-2.482,-2.482,-2.482,-2.482,-2.4858,-2.487,-2.487,0.0,0.0,0.0,0.0,0.0,0.0,0.0,0.0,0.0,0.0,0.0,0.0,0.0,0.0,0.0,0.0,0.0,0.0,0.0,0.7999,0.9448,1.0496,1.3165,1.5219,1.6686,1.8874,2.059,2.1832,2.259,2.2842,2.2591,2.3559,2.3709,2.3153,2.2603,2.2176,2.1708,2.0052,1.9233,1.889,1.7628,1.7166,1.7028,1.6245,1.5956,1.5833,0.0,0.0,0.0,1.3831,1.3787,1.376,1.3299,1.28,1.2514,1.2868,1.2077,1.0945,1.0005,0.8317,0.6815,0.6407,0.508,0.3479,0.2138,-0.0089,-0.2674,-0.5164,-0.6558,-0.8032,-1.0504,-1.2559,-1.4483,-1.6708,-1.7802,-1.8946,-2.0318,-2.1816,-2.2663,-2.2696,-2.3651,-2.4331,-2.4569,-2.5501,-2.6366,-2.7074,-2.7293,-2.7331,-2.7113,-2.7099,-2.7012,-2.6794,-2.6779,-2.6779,-2.6779,-2.6779,-2.6779,-2.6779,-2.6779,-2.6779,-2.6794,-2.7012,-2.6877,-2.6512,-2.5848,-2.5213,-2.4648,-2.3936,-2.3703,-2.3703,-2.3703,-2.3703,-2.3703,-2.3703,-2.3703,-2.3816,0.0,0.0,0.0,0.0,0.0,0.0,0.0,0.0,0.0,0.0,0.0,0.0,0.0,0.0,0.0,0.0,0.0,0.0,0.0,0.0,1.0965,1.2403,1.5435,1.7811,1.9168,2.1292,2.2772,2.3702,2.4315,2.457,2.4452,2.5021,2.5189,2.4951,2.4124,2.3585,2.3242,2.1432,2.0375,1.9824,1.8566,1.791,1.7647,1.7097,1.689,0.0,0.0,0.0,0.0,1.4579,1.4502,1.463,1.4288,1.423,1.4226,1.4056,1.3541,1.2794,1.1701,1.0312,0.8992,0.842,0.7647,0.6498,0.436,0.2582,0.0446,-0.2943,-0.444,-0.5832,-0.8487,-1.0919,-1.3315,-1.5718,-1.7147,-1.8417,-1.9583,-2.1198,-2.2268,-2.2128,-2.3147,-2.3984,-2.4045,-2.5141,-2.5935,-2.6147,-2.654,-2.6779,-2.6779,-2.6779,-2.6779,-2.6779,-2.6779,-2.6779,-2.6779,-2.6779,-2.6779,-2.6779,-2.6568,-2.65,-2.6447,-2.6272,-2.5825,-2.5216,-2.4851,-2.4337,-2.3721,-2.3245,-2.3078,-2.3078,-2.3078,-2.3078,-2.3078,-2.3078,-2.3078,-2.3178,0.0,0.0,0.0,0.0,0.0,0.0,0.0,0.0,0.0,0.0,0.0,0.0,0.0,0.0,0.0,0.0,0.0,0.0,0.0,0.0,0.0,1.4952,1.7213,1.9413,2.1504,2.2554,2.3702,2.5007,2.5591,2.5605,2.5077,2.566,2.566,2.5077,2.5007,2.4681,2.4118,2.3301,2.2262,2.0996,1.9824,1.8921,1.8269,1.7657,0.0,0.0,0.0,0.0,0.0,1.5551,1.5551,1.5831,1.578,1.6121,1.6387,1.5321,1.5035,1.4543,1.2662,1.2145,1.1804,1.0163,0.9735,0.9039,0.6587,0.4979,0.3288,0.0804,-0.1778,-0.4246,-0.6527,-0.942,-1.2202,-1.4726,-1.6708,-1.8127,-1.884,-2.0463,-2.155,-2.1463,-2.2813,-2.3872,-2.406,-2.5203,-2.566,-2.5077,-2.615,-2.6779,-2.6779,-2.6779,-2.6779,-2.6779,-2.6779,-2.6779,-2.6779,-2.6779,-2.6779,-2.6779,-2.6233,-2.5948,-2.5948,-2.53,-2.4738,-2.4118,-2.4131,-2.3721,-2.3078,-2.3078,-2.3078,-2.3078,-2.3078,-2.3078,-2.3078,-2.3078,-2.3078,-2.3078,0.0,0.0,0.0,0.0,0.0,0.0,0.0,0.0,0.0,0.0,0.0,0.0,0.0,0.0,0.0,0.0,0.0,0.0,0.0,0.0,0.0,0.0,0.0,0.0,0.0,0.0,0.0,0.0,0.0,2.5839,2.566,2.6272,2.65,2.6326,2.5412,2.4894,2.4667,2.3002,2.1854,2.0996,0.0,1.9518,1.8865,0.0,0.0,0.0,0.0,0.0,0.0,1.6324,1.6324,1.6386,1.6335,1.593,1.5482,1.5459,1.5196,1.4698,1.3694,1.411,1.435,1.2851,1.2389,1.1929,1.0265,0.8222,0.6189,0.4545,0.2578,-0.0,-0.3629,-0.6893,-0.9902,-1.2706,-1.4887,-1.6691,-1.7697,-1.9805,-2.1063,-2.0837,-2.258,-2.3872,-2.406,-2.5203,-2.5839,-2.566,-2.6394,-2.6779,-2.6779,-2.6779,-2.6779,-2.6779,-2.6779,-2.6779,-2.6779,-2.6779,-2.6779,-2.6779,-2.6621,-2.6568,-2.6553,-2.5948,-2.5314,-2.4738,-2.4292,-2.3721,-2.3078,-2.3078,-2.3078,-2.3078,-2.3078,-2.3078,-2.3078,-2.3078,-2.3078,-2.3078,0.0,0.0,0.0,0.0,0.0,0.0,0.0,0.0,0.0,0.0,0.0,0.0,0.0,0.0,0.0,0.0,0.0,0.0,0.0,0.0,0.0,0.0,0.0,0.0,0.0,0.0,0.0,0.0,0.0,0.0,0.0,2.6394,2.6394,2.6394,2.5701,2.5077,2.4509,2.3122,0.0,0.0,0.0,0.0,0.0,0.0,0.0,0.0,0.0,0.0,0.0,0.0,1.6184,1.6079,1.6564,1.634,1.5986,1.6286,1.617,1.583,1.5278,1.5605,1.5751,1.4314,1.3872,1.3464,1.1809,1.0098,0.8385,0.6835,0.4766,0.1925,-0.245,-0.5911,-0.9073,-1.1843,-1.4521,-1.663,-1.7719,-1.9617,-2.1007,-2.1365,-2.3025,-2.4355,-2.5106,-2.6014,-2.6539,-2.6539,-2.6712,-2.6779,-2.6779,-2.6779,-2.6779,-2.6779,-2.6779,-2.6779,-2.6779,-2.6779,-2.6779,-2.6779,-2.65,-2.6272,-2.5988,-2.537,-2.4738,-2.4163,-2.3826,-2.3424,-2.3078,-2.3078,-2.3078,-2.3078,-2.3078,-2.3078,-2.3078,-2.3078,-2.3078,-2.3078,0.0,0.0,0.0,0.0,0.0,0.0,0.0,0.0,0.0,0.0,0.0,0.0,0.0,0.0,0.0,0.0,0.0,0.0,0.0,0.0,0.0,0.0,0.0,0.0,0.0,0.0,0.0,0.0,0.0,0.0,0.0,0.0,0.0,0.0,0.0,0.0,0.0,0.0,0.0,0.0,0.0,0.0,0.0,0.0,0.0,0.0,0.0,0.0,0.0,0.0,1.5551,1.5471,1.6446,1.6724,1.6648,1.7071,1.7144,1.7035,1.6713,1.6766,1.6497,1.5111,1.4802,1.4316,1.2243,1.1227,1.0193,0.8229,0.5981,0.2908,-0.1883,-0.585,-0.9256,-1.166,-1.469,-1.7102,-1.8155,-1.9776,-2.13,-2.2433,-2.3826,-2.5176,-2.6438,-2.7137,-2.7488,-2.7488,-2.713,-2.687,-2.6779,-2.6779,-2.6779,-2.6779,-2.6779,-2.6779,-2.6779,-2.6779,-2.6779,-2.6779,-2.6286,-2.577,-2.5245,-2.4509,-2.3884,-2.3365,-2.3185,-2.3078,-2.3078,-2.3078,-2.3078,-2.3078,-2.3078,-2.3078,-2.3078,-2.3078,-2.3078,-2.3078,0.0,0.0,0.0,0.0,0.0,0.0,0.0,0.0,0.0,0.0,-0.5539,-0.4727,0.0,0.0,0.0,0.0,0.0,0.0,0.0,0.0,0.0,0.0,0.0,0.0,0.0,0.0,0.0,0.0,0.0,0.0,0.0,0.0,0.0,0.0,0.0,0.0,0.0,0.0,0.0,0.0,0.0,0.0,0.0,0.0,0.0,0.0,0.0,0.0,0.0,0.0,1.5037,1.5869,1.6079,1.5587,1.5108,1.5814,1.5774,1.5585,1.6176,1.6998,1.7393,1.5803,1.5964,1.5888,1.3615,1.2597,1.1468,0.9128,0.8152,0.5865,-0.0167,-0.5575,-0.9632,-1.1337,-1.3962,-1.6307,-1.7803,-2.0074,-2.1951,-2.2865,-2.4533,-2.5943,-2.6828,-2.7485,-2.7815,-2.7815,-2.7765,-2.7429,-2.6832,-2.6779,-2.6779,-2.6779,-2.6779,-2.6779,-2.6779,-2.6779,-2.6779,-2.6779,-2.6674,-2.6606,-2.6447,-2.5356,-2.4781,-2.461,-2.3531,-2.3078,-2.3078,-2.3078,-2.3078,-2.3078,-2.3078,-2.3078,-2.3078,-2.3078,-2.3078,-2.3078,0.0,0.0,0.0,0.0,0.0,0.0,0.0,-0.5741,-0.5657,-0.5657,-0.5706,-0.5272,-0.4118,-0.1322,0.0,0.0,0.0,0.0,0.0,0.0,0.0,0.0,0.0,0.0,0.0,0.0,1.9209,2.098,0.0,0.0,0.0,2.3128,2.3153,2.3153,0.0,0.0,0.0,0.0,0.0,0.0,0.0,0.0,0.0,0.0,0.0,0.0,0.0,0.0,0.0,0.0,1.4689,1.4824,1.5596,1.5525,1.5384,1.6594,1.6799,1.6661,1.7024,1.7595,1.7592,1.6066,1.5993,1.5749,1.3676,1.2791,1.1636,0.9418,0.7404,0.4646,0.0081,-0.6301,-1.117,-1.2345,-1.5143,-1.7908,-2.0092,-2.1761,-2.3293,-2.4761,-2.5751,-2.6709,-2.772,-2.8046,-2.8069,-2.7716,-2.7685,-2.7461,-2.6852,-2.654,-2.6164,-2.5763,-2.5965,-2.5979,-2.5792,-2.5778,-2.5778,-2.5778,-2.5778,-2.5784,-2.5773,-2.5213,-2.4777,-2.4509,-2.3884,-2.3424,-2.3078,-2.3078,-2.3078,-2.3078,-2.3078,-2.3078,-2.3078,-2.3078,-2.3078,-2.3017,0.0,0.0,0.0,0.0,0.0,0.0,0.0,-0.5741,-0.566,-0.566,-0.5387,-0.527,-0.564,-0.2773,0.0488,0.0,0.0,0.0,0.0,0.0,0.0,0.0,0.0,0.0,0.0,0.0,0.0,1.9177,1.8882,0.0,0.0,0.0,0.0,0.0,2.0209,1.9921,1.9836,0.0,0.0,0.0,0.0,1.6715,0.0,0.0,0.0,0.0,0.0,0.0,0.0,0.0,1.4346,1.3912,1.5108,1.5392,1.5534,1.7304,1.7657,1.7588,1.794,1.8008,1.7657,1.6306,1.5816,1.5325,1.3784,1.2714,1.1461,0.9513,0.6182,0.2695,-0.0555,-0.7371,-1.2886,-1.3939,-1.6859,-1.9953,-2.254,-2.3502,-2.4705,-2.6666,-2.7092,-2.7659,-2.881,-2.8778,-2.8418,-2.7809,-2.7406,-2.7041,-2.6682,-2.6197,-2.5631,-2.5062,-2.5254,-2.5269,-2.5024,-2.4898,-2.48,-2.48,-2.4785,-2.4833,-2.4883,-2.4713,-2.4463,-2.405,-2.3935,-2.3605,-2.3078,-2.3078,-2.3078,-2.3078,-2.3078,-2.3078,-2.3078,-2.3017,-2.2969,-2.2848,0.0,0.0,0.0,0.0,0.0,0.0,0.0,-0.5741,-0.566,-0.5668,-0.4218,-0.3767,-0.5486,-0.3439,-0.1406,0.0,0.0,0.0,0.0,0.0,0.0,0.0,0.0,0.0,0.0,0.0,0.0,1.5573,1.6222,0.0,0.0,0.0,0.0,0.0,0.0,1.8138,1.7571,1.7436,0.0,0.0,0.0,0.0,0.0,0.0,0.0,0.0,0.0,0.0,1.4394,0.0,0.0,1.453,1.4681,1.4258,1.4129,1.6376,1.6515,1.6237,1.7657,1.8008,1.7794,1.701,1.6237,1.5463,1.4641,1.3053,1.1285,0.9614,0.6103,0.208,-0.1993,-0.8608,-1.4027,-1.5731,-1.8568,-2.123,-2.3255,-2.4463,-2.583,-2.7735,-2.8341,-2.9071,-3.0192,-2.9683,-2.905,-2.8699,-2.7105,-2.6127,-2.6016,-2.5955,-2.5879,-2.5817,-2.5538,-2.5411,-2.5364,-2.5058,-2.4878,-2.4878,-2.4849,-2.4814,-2.476,-2.4219,-2.3989,-2.3999,-2.3401,-2.3129,-2.3078,-2.3078,-2.3078,-2.3078,-2.2969,-2.2909,-2.2909,-2.28,-2.2739,-2.2739,0.0,0.0,0.0,0.0,0.0,0.0,-0.5733,-0.5735,-0.5292,-0.4127,-0.4306,-0.4851,-0.5592,-0.4814,-0.314,-0.0415,0.0,0.0,0.0,0.0,0.0,0.0,0.0,0.0,0.0,0.0,1.1058,1.2984,1.3294,0.0,0.0,0.0,0.0,0.0,0.0,1.5283,1.5808,1.4947,0.0,0.0,0.0,0.0,0.0,0.0,0.0,0.0,0.0,0.0,1.3985,1.4122,1.4049,1.4122,1.4966,1.4474,0.0,1.6228,1.6655,1.6655,1.7725,1.8008,1.7794,1.7079,1.6655,1.5939,1.3939,1.2931,1.1681,0.9231,0.5231,0.0764,-0.3955,-0.9834,-1.4891,-1.7774,-2.1049,-2.3997,-2.5902,-2.7116,-2.8248,-2.9562,-2.9969,-3.0121,-3.0068,-2.9805,-2.9015,-2.7567,-2.66,-2.5837,-2.5383,-2.5357,-2.5188,-2.4771,-2.4815,-2.4625,-2.4193,-2.4072,-2.3873,-2.3717,-2.3656,-2.3858,-2.4268,-2.4,-2.3922,-2.3934,-2.3671,-2.3231,-2.2629,-2.2962,-2.2929,-2.2614,-2.2845,-2.2909,-2.2848,-2.2739,-2.2616,-2.2555,0.0,0.0,0.0,0.0,0.0,-0.5733,-0.5733,-0.5735,-0.5198,-0.3944,-0.4848,-0.567,-0.5679,-0.5692,-0.4619,-0.1955,-0.0825,0.0,0.0,0.0,0.0,0.0,0.0,0.0,0.0,0.0,0.8722,1.065,1.0496,1.1243,0.0,0.0,1.3179,1.3932,0.0,0.0,0.0,0.0,0.0,0.0,0.0,0.0,0.0,0.0,0.0,0.0,0.0,0.0,0.0,0.0,0.0,0.0,0.0,0.0,0.0,0.0,1.6376,1.6367,1.7088,1.7304,1.7226,1.6655,1.6228,1.535,1.3186,1.2505,1.1242,0.7668,0.3366,-0.1285,-0.6385,-1.1848,-1.6665,0.0,0.0,-2.6263,-2.8105,-2.9032,-2.9838,-3.061,-3.0861,-3.072,-3.0038,-2.9585,-2.8612,-2.6759,-2.6294,-2.5888,-2.5362,-2.5208,-2.491,-2.4302,-2.4416,-2.4276,-2.3724,-2.3493,-2.329,-2.3053,-2.2933,-2.3134,-2.3601,-2.3601,-2.3603,-2.3652,-2.3652,-2.3101,-2.2278,-2.2626,-2.2559,-2.2185,-2.2464,-2.2578,-2.2726,-2.2616,-2.2432,-2.2359,0.0,0.0,0.0,0.0,0.0,0.0,-0.5733,-0.5741,-0.5657,-0.5657,-0.5673,-0.5681,-0.5673,-0.5679,-0.5722,-0.5678,-0.2167,0.0,0.0,0.0,0.0,0.0,0.0,0.0,0.0,0.0,0.6923,0.8433,0.7838,0.8595,1.0484,0.9895,1.0421,1.1706,0.0,0.0,0.0,0.0,0.0,0.0,0.0,0.0,0.0,0.0,0.0,0.0,0.0,0.0,0.0,0.0,0.0,0.0,0.0,0.0,0.0,0.0,1.5171,1.4744,1.5525,1.5745,1.5745,1.5745,1.472,1.3556,1.2715,1.1813,0.9711,0.4746,0.0302,-0.4254,-0.9548,-1.4949,-1.9672,-2.3163,-2.5583,0.0,-2.9154,-2.9701,-3.0042,-3.0343,-3.0698,-3.0768,-3.0409,-2.912,-2.7875,-2.6792,-2.6332,-2.6104,-2.6104,-2.5726,-2.5329,-2.5005,-2.4661,-2.4498,-2.4498,-2.3767,-2.3406,-2.3406,-2.3053,-2.2888,-2.2902,-2.2902,-2.2958,-2.3014,-2.3014,-2.2668,-2.2105,-2.2117,-2.2033,-2.1879,-2.1689,-2.1958,-2.242,-2.2247,-2.2197,-2.2197,0.0,0.0,0.0,0.0,0.0,0.0,0.0,-0.5735,-0.5741,-0.5657,-0.5668,-0.5676,-0.5681,-0.3325,-0.2849,-0.551,-0.4495,0.0,0.0,0.0,0.0,0.0,0.0,0.0,0.0,0.0,0.5622,0.6063,0.6461,0.723,0.8447,0.8223,0.8908,1.0196,0.9281,0.9357,0.0,0.0,0.0,0.0,0.0,0.0,0.0,0.0,0.0,0.0,0.0,0.0,0.0,0.0,0.0,0.0,0.0,0.0,0.0,0.0,0.0,1.365,1.4799,1.4863,1.4633,1.5084,1.4976,1.3893,1.0386,0.7856,0.4891,0.0075,-0.4267,-0.9493,-1.7091,-2.0195,-2.2647,-2.5502,-2.7748,-2.9545,-3.0746,-3.08,-3.0925,-3.1489,-3.0724,-3.0122,-2.9989,-2.8729,-2.7656,-2.7017,-2.6939,-2.6691,-2.6139,-2.598,-2.5726,-2.5329,-2.5029,-2.4742,-2.4498,-2.4051,-2.3653,-2.3406,-2.3053,-2.2888,-2.2888,-2.2888,-2.2913,-2.2948,-2.2948,-2.2373,-2.1515,-2.1875,-2.1532,-2.0785,-2.0994,-2.1411,-2.1813,-2.1705,-2.1885,-2.2197,0.0,0.0,0.0,0.0,0.0,0.0,0.0,-0.5733,-0.5735,-0.5741,-0.566,-0.5486,-0.5037,-0.269,-0.2319,-0.539,-0.5494,0.0,0.0,0.0,0.0,0.0,0.0,0.0,0.0,0.3759,0.4382,0.5004,0.5476,0.6012,0.6535,0.6535,0.746,0.9089,0.8003,0.7966,0.0,0.0,0.0,0.0,0.0,0.0,0.6364,0.0,0.0,0.0,0.0,0.0,0.0,0.0,0.0,0.0,0.0,0.0,0.0,0.0,0.7484,0.9347,1.2018,1.275,1.2611,1.1886,1.1388,0.9933,0.5445,0.2523,-0.0664,-0.5561,-1.0569,-1.5797,-2.1463,-2.3607,-2.5346,-2.7797,-2.955,-3.0835,-3.1356,-3.1454,-3.1433,-3.1374,-3.0272,-2.9464,-2.9362,-2.8451,-2.7707,-2.7344,-2.7324,-2.7072,-2.6573,-2.6401,-2.6139,-2.5726,-2.5246,-2.4886,-2.4701,-2.4359,-2.4009,-2.3595,-2.326,-2.3008,-2.2888,-2.2888,-2.2888,-2.2888,-2.2661,-2.2016,0.0,-2.1228,-2.0795,-2.0092,-2.0322,-2.0737,-2.1209,-2.1103,-2.144,-2.1836,0.0,0.0,0.0,0.0,0.0,0.0,0.0,-0.5733,-0.5733,-0.5733,-0.5741,-0.5292,-0.4028,-0.3405,-0.3765,-0.5568,0.0,0.0,0.0,0.0,0.0,0.0,0.0,0.0,0.0,0.1406,0.2974,0.4553,0.4711,0.4779,0.4756,0.4921,0.6103,0.8073,0.7427,0.7129,0.7064,0.7051,0.7115,0.6969,0.5151,0.4439,0.0,0.0,0.0,0.0,0.0,0.0,0.0,0.0,0.0,0.0,0.0,0.0,0.0,0.0,0.0,0.0,0.0,0.9175,0.9352,0.6625,0.4696,0.2481,-0.1257,-0.3992,0.0,-1.1861,-1.7869,-2.2478,-2.3237,-2.5543,-2.7937,-2.9878,-3.1053,-3.1567,-3.1214,-3.1619,-3.1492,-3.0277,-2.9457,-2.8905,-2.8651,-2.8334,-2.802,-2.7742,-2.7465,-2.7313,-2.7299,-2.6925,-2.6505,-2.6087,-2.54,-2.5005,-2.5005,-2.4661,-2.4333,-2.3982,-2.3595,-2.3201,-2.2888,-2.2888,-2.2888,-2.2843,-2.2278,-2.1636,-2.0944,-2.0295,-1.9942,-1.972,-1.972,-2.0057,-2.0493,-2.0493,-2.077,-2.1104,0.0,0.0,0.0,0.0,0.0,0.0,0.0,0.0,0.0,0.0,-0.5741,-0.5568,-0.5292,-0.5121,-0.5213,0.0,0.0,0.0,0.0,0.0,0.0,0.0,0.0,0.0,0.0,-0.1092,-0.0546,-0.0156,0.1638,0.2496,0.2495,0.4227,0.5311,0.5704,0.4331,0.3304,0.274,0.3007,0.317,0.3068,0.2605,0.2496,0.0,0.0,0.0,0.0,0.2495,0.2024,0.0,0.0,0.0,0.0,0.0,0.0,0.0,0.0,-0.1,-0.1298,-0.1202,0.0,0.2954,0.1793,-0.0744,-0.3495,0.0,0.0,0.0,0.0,0.0,-2.4175,-2.5973,-2.8381,-3.0316,-3.1113,-3.1952,-3.2364,-3.1924,-3.1157,-3.032,-2.9379,-2.9104,-2.897,-2.8905,-2.8651,-2.8334,-2.802,-2.7742,-2.7526,-2.7313,-2.6925,-2.6505,-2.6087,-2.5615,-2.5269,-2.5005,-2.4661,-2.4333,-2.3982,-2.3595,-2.3201,-2.2888,-2.2752,-2.2661,-2.2661,-2.2324,-2.1589,-2.066,-2.051,-1.9977,-1.9179,-1.9179,-1.9219,-1.933,-1.933,-1.9367,-1.9396,0.0,0.0,0.0,0.0,0.0,0.0,0.0,0.0,0.0,0.0,0.0,0.0,0.0,0.0,0.0,0.0,0.0,0.0,0.0,0.0,0.0,0.0,0.0,0.0,-0.3679,-0.3521,-0.3365,-0.3207,-0.2288,-0.1268,-0.0159,0.1382,0.2547,0.3207,0.1687,0.1023,0.0938,0.0517,-0.0172,-0.0935,-0.0672,0.0,0.0,0.0,0.0,0.0,-0.1167,-0.1554,0.0,-0.2402,-0.2786,-0.3251,0.0,0.0,0.0,0.0,-0.6026,-0.6742,-0.8024,-0.5764,-0.3293,-0.4697,-0.8289,-1.1655,-1.2338,0.0,0.0,0.0,0.0,-2.6291,-2.855,-3.0259,-3.1468,-3.2039,-3.2328,-3.2198,-3.1337,-3.0393,-2.9591,-2.9053,-2.9089,-2.9093,-2.9017,-2.8743,-2.8456,-2.8129,-2.784,-2.7569,-2.7313,-2.7105,-2.6691,-2.6139,-2.5872,-2.5519,-2.5005,-2.4806,-2.4564,-2.4234,-2.3824,-2.3436,-2.2963,-2.2706,-2.2509,-2.237,-2.1921,-2.1299,-2.056,-2.0258,-1.9708,-1.8987,-1.8987,-1.8994,-1.8959,-1.8959,-1.8884,-1.8798,0.0,0.0,0.0,0.0,0.0,0.0,0.0,0.0,0.0,0.0,0.0,0.0,0.0,0.0,0.0,0.0,0.0,0.0,0.0,0.0,0.0,0.0,0.0,-0.5093,-0.5093,-0.5439,-0.5454,-0.5132,-0.5743,-0.4978,-0.301,-0.2413,-0.1178,0.0338,-0.0865,-0.096,-0.0262,-0.1334,-0.2751,-0.4276,-0.3649,0.0,0.0,0.0,0.0,0.0,0.0,0.0,0.0,-0.6266,-0.6572,-0.6881,-0.766,0.0,0.0,0.0,0.0,0.0,-1.3238,-1.1598,-0.9933,-1.153,-1.5685,-1.9407,-1.9519,0.0,0.0,0.0,0.0,-2.8491,-3.051,-3.1436,-3.2004,-3.2442,-3.2126,-3.1428,-3.0345,-2.9658,-2.9185,-2.9017,-2.916,-2.9185,-2.9017,-2.8791,-2.8507,-2.8129,-2.7897,-2.763,-2.733,-2.7299,-2.6957,-2.621,-2.6123,-2.5779,-2.5068,-2.5045,-2.4806,-2.4498,-2.4109,-2.3668,-2.3083,-2.2692,-2.237,-2.2077,-2.1431,-2.0894,-2.051,-1.9862,-1.9356,-1.8987,-1.8987,-1.8934,-1.8881,-1.8762,-1.8643,-1.8396,0.0,0.0,0.0,0.0,0.0,0.0,0.0,0.0,0.0,0.0,0.0,0.0,0.0,0.0,0.0,0.0,0.0,0.0,0.0,0.0,0.0,0.0,-0.6393,-0.5482,-0.5482,-0.5747,-0.5805,-0.5725,-0.5782,-0.5767,-0.577,-0.6084,-0.5234,-0.3447,-0.4176,-0.4452,-0.4273,-0.4016,-0.4014,-0.4265,-0.4098,0.0,0.0,0.0,0.0,0.0,0.0,0.0,0.0,-0.7787,-0.8477,-0.918,-0.9857,0.0,0.0,0.0,0.0,0.0,-1.5807,-1.7201,-1.802,-1.7041,-1.902,-2.1451,-2.2681,-2.4477,0.0,0.0,0.0,0.0,-3.0478,-3.1872,-3.2625,-3.1397,-3.0818,-3.0418,-3.0246,-2.9536,-2.9021,-2.9017,-2.904,-2.9021,-2.9017,-2.8952,-2.87,-2.8156,-2.8075,-2.7811,-2.7313,-2.7299,-2.7105,-2.6624,-2.628,-2.5872,-2.5443,-2.513,-2.4806,-2.4498,-2.3925,-2.3465,-2.3083,-2.2263,-2.1902,-2.1841,-2.1153,-2.061,-2.0233,-1.9759,-1.9356,-1.8987,-1.8987,-1.8709,-1.8201,-1.7644,-1.7134,-1.6696,0.0,0.0,0.0,0.0,0.0,0.0,0.0,0.0,0.0,0.0,0.0,0.0,0.0,0.0,0.0,0.0,0.0,0.0,0.0,0.0,0.0,-0.9912,-0.8493,-0.7557,-0.7148,-0.7375,-0.7457,-0.755,-0.7729,-0.7655,-0.7253,-0.7152,-0.6367,-0.508,-0.5871,-0.6222,-0.6222,-0.5951,-0.6128,-0.6562,0.0,0.0,0.0,0.0,0.0,0.0,0.0,0.0,0.0,0.0,-1.1057,-1.1527,-1.2164,0.0,0.0,0.0,0.0,0.0,-1.8452,-2.0511,-2.2255,-2.2334,-2.3276,-2.4599,-2.6132,-2.7657,0.0,0.0,0.0,0.0,-3.1388,-3.2169,-3.2347,-3.0779,-3.0332,-3.0063,-2.9622,-2.9333,-2.9115,-2.8998,-2.9112,-2.9115,-2.9017,-2.8994,-2.8749,-2.8156,-2.8102,-2.7869,-2.7313,-2.7299,-2.7105,-2.6725,-2.6315,-2.5908,-2.5503,-2.5107,-2.4686,-2.4261,-2.3824,-2.3275,-2.2649,-2.2077,-2.1698,-2.1554,-2.1055,-2.056,-2.0182,-1.9772,-1.9356,-1.8987,-1.8987,-1.8815,-1.8483,-1.7534,-1.681,-1.6228,0.0,0.0,0.0,0.0,0.0,0.0,0.0,0.0,0.0,0.0,0.0,0.0,0.0,0.0,0.0,0.0,0.0,0.0,0.0,0.0,-1.0437,-1.1305,-1.0624,-0.969,-0.8754,-0.8875,-0.9057,-0.9051,-0.9508,-0.9271,-0.8422,-0.7933,-0.7369,-0.6747,-0.7435,-0.7781,-0.7781,-0.7948,-0.8392,-0.9091,0.0,0.0,0.0,0.0,0.0,0.0,0.0,0.0,0.0,0.0,0.0,0.0,0.0,0.0,0.0,-1.707,-1.8201,-1.9218,-2.0581,-2.2559,-2.4596,-2.6061,0.0,-2.7287,-2.8951,-2.9809,-3.052,0.0,0.0,-3.2085,-3.1682,-3.1686,-3.1427,-3.0428,-3.0068,-2.9714,-2.9085,-2.9138,-2.9163,-2.9017,-2.9138,-2.9163,-2.8998,-2.8994,-2.8749,-2.8156,-2.8102,-2.7869,-2.7313,-2.7299,-2.7137,-2.6842,-2.635,-2.5944,-2.5652,-2.5091,-2.4564,-2.4078,-2.3666,-2.3039,-2.2282,-2.1874,-2.1616,-2.1375,-2.0957,-2.056,-2.0182,-1.9772,-1.9356,-1.8987,-1.8987,-1.8827,-1.8483,-1.7534,-1.6754,-1.6026,0.0,0.0,0.0,0.0,0.0,0.0,0.0,0.0,0.0,0.0,0.0,0.0,0.0,0.0,0.0,0.0,0.0,0.0,0.0,0.0,-1.1459,-1.2159,-1.2129,-1.1249,-0.9457,-0.9566,-0.9676,-0.9606,-0.9804,-0.9812,-0.9726,-0.974,-0.9657,-0.957,-0.9657,-0.974,-0.974,-1.0326,-1.0661,-1.0732,-1.1088,0.0,0.0,0.0,0.0,0.0,0.0,0.0,0.0,0.0,0.0,0.0,0.0,0.0,-1.7961,-1.8171,-1.94,-2.0862,-2.1526,-2.336,-2.5346,-2.676,-2.7493,-2.8345,-3.0144,-3.0287,0.0,-3.0679,0.0,-3.1064,-3.0277,-2.9798,-2.9755,-3.0383,-2.9706,-2.9067,-2.8994,-2.8998,-2.9017,-2.9017,-2.8998,-2.9017,-2.9017,-2.8994,-2.8749,-2.8156,-2.8102,-2.7869,-2.7313,-2.7299,-2.7299,-2.725,-2.6505,-2.6104,-2.6052,-2.5208,-2.4564,-2.4078,-2.3391,-2.2756,-2.2267,-2.1684,-2.1423,-2.1375,-2.0957,-2.056,-2.0182,-1.9772,-1.9356,-1.8987,-1.8987,-1.8321,-1.7313,-1.7257,-1.6472,-1.5468,0.0,0.0,0.0,0.0,0.0,0.0,0.0,0.0,0.0,0.0,0.0,0.0,0.0,0.0,0.0,0.0,0.0,0.0,0.0,0.0,-1.3497,-1.3818,-1.3811,-1.3502,-1.2717,-1.2236,-1.2034,-1.2204,-1.1685,-1.1381,-1.1381,-1.1381,-1.1381,-1.1466,-1.2413,-1.2838,-1.2923,-1.3178,-1.3581,-1.4011,-1.3702,-1.4059,0.0,0.0,0.0,0.0,0.0,0.0,0.0,0.0,-1.6149,-1.6358,0.0,-1.8206,-1.8531,-2.0028,-2.0921,-2.1719,-2.2996,-2.448,-2.6036,-2.752,-2.812,0.0,0.0,-3.079,-3.0856,-3.1231,-3.1652,-3.1686,-3.0882,-2.9938,-2.9405,-2.9702,-2.9341,-2.8994,-2.8994,-2.8994,-2.8994,-2.8994,-2.8994,-2.8994,-2.8994,-2.8994,-2.8749,-2.8156,-2.8102,-2.7869,-2.7313,-2.7299,-2.7299,-2.7299,-2.647,-2.6033,-2.6033,-2.5091,-2.4359,-2.3909,-2.3304,-2.2725,-2.2203,-2.165,-2.1423,-2.1375,-2.0957,-2.0709,-2.051,-1.9862,-1.95,-1.9291,-1.8697,-1.7929,-1.7146,-1.6754,-1.614,-1.541,0.0,0.0,0.0,0.0,0.0,0.0,0.0,0.0,0.0,0.0,0.0,0.0,0.0,0.0,0.0,0.0,0.0,0.0,-1.3984,-1.4482,-1.481,-1.5137,-1.513,-1.5206,-1.553,-1.5131,-1.4564,-1.3984,-1.3366,-1.3099,-1.3099,-1.3334,-1.3497,-1.3497,-1.4935,-1.553,-1.5523,-1.5779,-1.6114,-1.6428,-1.6089,-1.6154,0.0,0.0,0.0,0.0,0.0,0.0,0.0,0.0,-1.7726,0.0,0.0,0.0,-1.9634,-2.15,-2.2241,-2.2795,-2.4138,-2.5465,-2.6723,-2.7799,0.0,0.0,-3.0031,-3.0491,-3.0779,-3.1057,-3.1393,-3.1442,-3.089,-3.0076,-2.9474,-2.9415,-2.9291,-2.9138,-2.9017,-2.9044,-2.9067,-2.9017,-2.8994,-2.8994,-2.8994,-2.8994,-2.8749,-2.8156,-2.8102,-2.7869,-2.7313,-2.7299,-2.725,-2.7105,-2.6401,-2.5961,-2.5815,-2.4974,-2.4359,-2.4009,-2.345,-2.283,-2.2184,-2.1664,-2.1423,-2.1375,-2.0957,-2.0759,-2.056,-1.9862,-1.9512,-1.9356,-1.8643,-1.8038,-1.7424,-1.681,-1.6197,-1.5633,0.0,0.0,0.0,0.0,0.0,0.0,0.0,0.0,0.0,0.0,0.0,0.0,0.0,0.0,0.0,0.0,0.0,0.0,-1.4734,-1.4734,-1.513,-1.6003,-1.6003,-1.648,-1.726,-1.8009,-1.7139,-1.4734,-1.4734,-1.4734,-1.4734,-1.5606,-1.6003,-1.6085,-1.6952,-1.734,-1.734,-1.8009,-1.8031,-1.7647,-1.7995,-1.7834,-1.7431,0.0,0.0,0.0,0.0,0.0,0.0,0.0,-1.9444,-2.016,0.0,0.0,0.0,-2.2299,-2.3244,-2.4148,-2.4845,-2.6188,-2.7418,-2.7557,0.0,0.0,-2.8929,-2.9312,-2.9662,-2.9855,-2.9905,-2.9905,-2.9905,-2.9888,-2.9839,-2.9644,-2.9608,-2.9455,-2.9067,-2.9181,-2.9228,-2.904,-2.8994,-2.8994,-2.8994,-2.8994,-2.8749,-2.8156,-2.8102,-2.7869,-2.7313,-2.7299,-2.7105,-2.6725,-2.6315,-2.5888,-2.5406,-2.4855,-2.4564,-2.4498,-2.3867,-2.3113,-2.2184,-2.1664,-2.1423,-2.1375,-2.0957,-2.056,-2.0182,-1.9772,-1.9356,-1.8987,-1.8987,-1.8602,-1.8038,-1.7424,-1.681,-1.6197,0.0,0.0,0.0,0.0,0.0,0.0,0.0,0.0,0.0,0.0,0.0,0.0,0.0,0.0,0.0,0.0,0.0,0.0,-1.6355,-1.7317,-1.8043,-1.8284,-1.8355,-1.8435,-1.8674,-1.8921,-1.8683,-1.7963,-1.7471,-1.722,-1.722,-1.7535,-1.7616,-1.7616,-1.8346,-1.8964,-1.9478,-1.9722,-2.0166,-2.0687,-2.0493,-2.0418,-2.046,0.0,0.0,0.0,0.0,0.0,0.0,0.0,0.0,0.0,0.0,0.0,0.0,-2.3245,-2.3793,-2.4265,-2.546,-2.6293,-2.7027,-2.7765,-2.8281,-2.87,0.0,-2.9415,0.0,0.0,-3.0113,-3.0113,-3.0113,-3.0003,-2.9872,-2.9822,-2.9698,-2.957,-2.9435,-2.9355,-2.9272,-2.9228,-2.9089,-2.8994,-2.8994,-2.8994,-2.8858,-2.8482,-2.8237,-2.7954,-2.76,-2.739,-2.725,-2.7137,-2.6401,-2.5961,-2.5815,-2.4974,-2.4539,-2.4498,-2.3551,-2.2979,-2.2678,-2.217,-2.1746,-2.1375,-2.0957,-2.0759,-2.056,-1.9862,-1.9356,-1.8934,-1.8093,-1.7644,-1.7313,-1.6301,-1.5806,-1.5633,0.0,0.0,0.0,0.0,0.0,0.0,0.0,0.0,0.0,0.0,0.0,0.0,0.0,0.0,0.0,0.0,0.0,0.0,0.0,-1.8771,-1.9423,-1.9737,-1.9816,-2.0129,-2.074,-2.074,-2.0874,-2.1237,-1.9818,-1.9113,-1.9191,-1.98,-2.011,-2.0188,-2.0911,-2.1445,-2.1878,-2.1616,-2.1795,-2.2195,-2.1718,-2.1531,-2.1483,0.0,0.0,0.0,0.0,0.0,0.0,0.0,0.0,0.0,0.0,0.0,0.0,-2.438,-2.489,-2.5205,-2.5992,-2.6756,-2.7386,-2.7795,-2.8264,-2.8707,-2.9188,-2.9532,-2.9803,-3.0142,-3.0204,-3.0204,-3.0204,-3.0113,-3.0003,-2.9905,-2.9872,-2.9786,-2.9626,-2.9494,-2.9395,-2.9314,-2.9115,-2.8994,-2.8994,-2.8994,-2.8881,-2.8626,-2.8412,-2.812,-2.773,-2.7539,-2.7341,-2.7072,-2.6521,-2.6049,-2.5668,-2.5052,-2.4645,-2.44,-2.3551,-2.32,-2.3207,-2.2283,-2.1712,-2.1375,-2.0809,-2.0459,-2.0258,-1.9656,-1.9198,-1.8934,-1.8201,-1.7754,-1.7424,-1.6472,-1.5968,-1.5748,0.0,0.0,0.0,0.0,0.0,0.0,0.0,0.0,0.0,0.0,0.0,0.0,0.0,0.0,0.0,0.0,0.0,0.0,0.0,0.0,-2.0032,-2.076,-2.0837,-2.1527,-2.3065,-2.3065,-2.3423,-2.4108,-2.1803,-2.0738,-2.0738,-2.2403,-2.3091,-2.3165,-2.3929,-2.429,-2.4281,-2.3816,-2.3293,-2.2881,-2.2372,-2.1882,-2.1491,-2.1491,0.0,0.0,0.0,0.0,0.0,0.0,0.0,0.0,-2.4002,-2.4123,-2.4325,-2.5437,-2.6155,-2.6484,-2.6459,-2.7289,-2.8101,-2.7701,-2.8112,-2.8707,-2.9188,-2.9664,-3.0035,-3.0147,-3.0204,-3.0204,-3.0204,-3.0204,-3.0142,-2.9972,-3.0079,-3.0064,-2.9716,-2.9644,-2.9551,-2.9355,-2.916,-2.9017,-2.9017,-2.8994,-2.8905,-2.8651,-2.8601,-2.8352,-2.7771,-2.7713,-2.7413,-2.6758,-2.6657,-2.6156,-2.5269,-2.5233,-2.4925,-2.4394,-2.3975,-2.3822,-2.3858,-2.2283,-2.1532,-2.1377,-2.0627,-2.0041,-1.9587,-1.917,-1.8987,-1.8987,-1.8934,-1.8602,-1.8038,-1.7368,-1.681,-1.6312,0.0,0.0,0.0,0.0,0.0,0.0,0.0,0.0,0.0,0.0,0.0,0.0,0.0,0.0,0.0,0.0,0.0,0.0,0.0,0.0,-2.3136,-2.3294,-2.3294,-2.3514,-2.3841,-2.3829,-2.3975,-2.4108,-2.3576,-2.3261,-2.3345,-2.4255,-2.4673,-2.4744,-2.5469,-2.5784,-2.5876,-2.5762,-2.5473,-2.5074,-2.497,-2.4636,-2.4168,-2.4168,-2.4168,0.0,0.0,0.0,0.0,0.0,0.0,0.0,-2.4781,-2.4764,-2.4805,-2.5312,-2.5747,-2.6047,-2.6462,-2.6924,-2.7348,-2.7604,-2.8147,-2.8707,-2.9188,-3.0018,-3.0563,-3.0054,-3.0079,-3.0204,-3.0204,-3.0204,-3.019,-3.0142,-3.0171,-3.0171,-3.0079,-2.9937,-2.9751,-2.957,-2.9355,-2.9163,-2.9017,-2.8994,-2.8994,-2.8905,-2.8718,-2.843,-2.802,-2.7811,-2.7539,-2.7169,-2.6792,-2.6349,-2.5815,-2.5869,-2.569,-2.5246,-2.5168,-2.4964,-2.4559,-2.3314,-2.2396,-2.1783,-2.1184,-2.0464,-1.974,-1.9221,-1.8987,-1.8934,-1.8483,-1.8201,-1.7984,-1.6866,-1.6698,-1.6866,0.0,0.0,0.0,0.0,0.0,0.0,0.0,0.0,0.0,0.0,0.0,0.0,0.0,0.0,0.0,0.0,0.0,0.0,0.0,0.0,0.0,-2.4108,-2.4108,-2.4264,-2.4636,-2.4636,-2.5052,-2.573,-2.573,-2.5392,-2.4707,-2.5787,-2.6327,-2.6314,-2.6683,-2.6934,-2.6913,-2.6343,-2.6002,-2.5761,-2.5534,-2.5236,-2.5007,-2.5007,-2.5007,-2.5007,-2.5007,0.0,0.0,0.0,0.0,0.0,0.0,0.0,-2.5494,-2.611,-2.6263,-2.6289,-2.6397,-2.6695,-2.7108,-2.7587,-2.8165,-2.8767,-2.9392,-3.0157,-3.0728,-3.0752,-3.0758,-3.0777,-3.0815,-3.0472,-3.0204,-3.0204,-3.0204,-3.0204,-3.0204,-2.9937,-2.9716,-2.9608,-2.9334,-2.9115,-2.9017,-2.8994,-2.8994,-2.8994,-2.8881,-2.8601,-2.8129,-2.7926,-2.7642,-2.7233,-2.6708,-2.641,-2.6339,-2.6134,-2.5984,-2.5929,-2.5452,-2.4936,-2.4418,-2.3576,-2.2902,-2.2497,-2.2021,-2.1409,-2.0797,-2.0293,-1.9964,-1.9689,-1.9128,-1.8571,-1.7969,-1.7065,-1.6585,-1.6244,0.0,0.0,0.0,0.0,0.0,0.0,0.0,0.0,0.0,0.0,0.0,0.0,0.0,0.0,0.0,0.0,0.0,0.0,0.0,0.0,0.0,-2.4743,-2.4743,-2.511,-2.5836,-2.5836,-2.6445,-2.767,-2.767,-2.7056,-2.5906,-2.7258,-2.7868,-2.7841,-2.7908,-2.7906,-2.7742,-2.6617,-2.6082,-2.5944,-2.5493,-2.53,-2.53,-2.53,-2.53,-2.53,-2.53,-2.53,-2.53,-2.53,0.0,0.0,0.0,0.0,-2.6218,-2.7011,-2.6946,-2.6615,-2.6442,-2.6662,-2.7067,-2.7473,-2.8116,-2.8853,-2.9626,-3.0332,-3.1065,-3.1797,-3.1582,-3.1333,-3.1405,-3.0734,-3.0157,-3.0185,-3.0204,-3.0204,-3.0157,-2.9853,-2.9644,-2.9608,-2.9312,-2.9112,-2.9089,-2.9044,-2.9021,-2.9017,-2.8994,-2.87,-2.8102,-2.7992,-2.7766,-2.7291,-2.6826,-2.672,-2.7016,-2.6615,-2.6482,-2.6684,-2.5601,-2.4946,-2.4518,-2.381,-2.3486,-2.3366,-2.2937,-2.2492,-2.2039,-2.1493,-2.1087,-2.0677,-2.0161,-1.934,-1.8404,-1.7833,-1.7056,-1.627,0.0,0.0,0.0,0.0,0.0,0.0,0.0,0.0,0.0,0.0,0.0,0.0,0.0,0.0,0.0,0.0,0.0,0.0,-2.5603,0.0,0.0,-2.7284,-2.7284,-2.7537,-2.8025,-2.809,-2.8168,-2.8363,-2.8363,-2.8298,-2.809,-2.8903,-2.9296,-2.9331,-2.9351,-2.9015,-2.8512,-2.7736,-2.7118,-2.6669,-2.6582,-2.6553,-2.6553,-2.6553,-2.6553,-2.6553,-2.6553,-2.6553,-2.6553,-2.6553,-2.6553,0.0,0.0,0.0,-2.6779,-2.7248,-2.6876,-2.6374,-2.6798,-2.683,-2.6826,-2.7112,-2.7971,-2.8953,-2.9629,-3.1068,-3.2354,-3.2739,-3.1794,-3.0941,-3.112,-3.049,-3.0003,-3.0171,-3.0204,-3.0142,-2.9953,-2.9888,-2.9805,-2.9626,-2.9551,-2.9513,-2.9433,-2.927,-2.9141,-2.9089,-2.8947,-2.8551,-2.7954,-2.7926,-2.7922,-2.798,-2.7862,-2.7921,-2.8272,-2.829,-2.8185,-2.7876,-2.6897,-2.6422,-2.6352,-2.5273,-2.4536,-2.4142,-2.3583,-2.3136,-2.259,-2.1713,-2.1232,-2.1175,-2.0685,-2.0387,-2.0191,-1.9587,-1.9622,-1.9738,0.0,0.0,0.0,0.0,0.0,0.0,0.0,0.0,0.0,0.0,0.0,0.0,0.0,0.0,0.0,-2.6121,-2.6599,-2.7085,-2.7696,-2.8065,-2.8338,-2.8454,-2.8454,-2.8519,-2.8648,-2.8648,-2.8839,-2.9093,-2.9093,-2.9282,-2.9656,-2.9993,-2.9746,-2.9012,-2.9073,-2.8739,-2.81,-2.7461,-2.7041,-2.6832,-2.7041,-2.7144,-2.7144,-2.7357,-2.7444,-2.7393,-2.7181,-2.7144,-2.7093,-2.6884,-2.6779,-2.6779,-2.6779,0.0,0.0,0.0,-2.6811,-2.662,-2.673,-2.6411,-2.6258,-2.725,-2.8008,-2.8879,-3.026,-3.1459,-3.2438,-3.3048,-3.2084,-3.1254,-3.16,-3.0691,-2.9921,-3.0019,-3.0128,-3.0176,-3.0038,-2.9926,-2.977,-2.9626,-2.9513,-2.9415,-2.9394,-2.9293,-2.9206,-2.9112,-2.9021,-2.8925,-2.8863,-2.861,-2.8605,-2.8921,-2.8469,-2.8473,-2.8998,-2.8563,-2.816,-2.7762,-2.7365,-2.699,-2.6678,-2.5865,-2.5216,-2.4694,-2.4426,-2.408,-2.3597,-2.3166,-2.2674,-2.2151,-2.1666,-2.1078,-2.0463,-1.9923,-1.9643,-1.9524,0.0,0.0,0.0,0.0,0.0,0.0,0.0,0.0,0.0,0.0,0.0,0.0,0.0,0.0,0.0,0.0,-2.7551,-2.8141,-2.9282,-2.9345,-2.9345,-2.9331,-2.9331,-2.9345,-2.9373,-2.931,-2.9498,-2.987,-2.987,-3.0129,-3.0568,-3.0568,-2.9894,-2.8632,-2.8713,-2.8332,-2.7694,-2.7161,-2.6937,-2.6989,-2.7372,-2.7539,-2.7539,-2.778,-2.7913,-2.783,-2.761,-2.7488,-2.735,-2.7041,-2.6884,-2.6779,-2.6779,-2.6779,0.0,0.0,0.0,-2.6581,-2.6251,-2.5926,-2.5929,-2.7194,-2.8115,-2.9127,-3.0679,-3.1608,-3.2373,-3.3135,-3.2192,-3.1391,-3.1834,-3.0715,-2.977,-2.9874,-2.9988,-3.0049,-2.9972,-2.9841,-2.9699,-2.9608,-2.9474,-2.9395,-2.9415,-2.9395,-2.9293,-2.92,-2.9292,-2.943,-2.9602,-2.9349,-2.9379,-2.985,-2.9194,-2.9165,-2.9842,-2.8957,-2.8309,-2.7898,-2.7615,-2.7312,-2.6886,-2.6336,-2.577,-2.523,-2.5061,-2.4821,-2.4478,-2.435,-2.3826,-2.304,-2.2496,-2.1728,-2.0857,-2.0472,-2.0033,-1.9648,0.0,0.0,0.0,0.0,0.0,0.0,0.0,0.0,0.0,0.0,0.0,0.0,-2.5709,-2.644,-2.7268,-2.8157,-2.8222,-2.8597,-2.9442,-2.9504,-2.9718,-3.019,-3.0251,0.0,-3.0955,-3.0762,-3.0702,-3.0762,-3.0628,-3.0568,-3.0568,-3.0568,-2.9914,-2.8668,-2.8695,-2.8332,-2.7694,-2.7461,-2.735,-2.7401,-2.773,-2.7845,-2.779,-2.7879,-2.7845,-2.7825,-2.7879,-2.7645,-2.7401,-2.7401,-2.7144,-2.6779,-2.6779,-2.6779,-2.6884,0.0,0.0,0.0,-2.5195,-2.5497,-2.6166,-2.6564,-2.8296,-3.0017,-3.0418,-3.1463,-3.2484,-3.3154,-3.1978,-3.093,-3.1283,-3.0185,-2.9355,-2.9736,-2.9753,-2.9698,-2.9644,-2.9626,-2.9608,-2.9608,-2.9589,-2.9626,-2.9754,-2.9589,-2.9456,-2.9392,-2.9789,-2.9915,-2.962,-2.9798,-3.0134,-3.0525,-3.0194,-3.0357,-3.1083,-3.0175,-2.9496,-2.8982,-2.7997,-2.7464,-2.7464,-2.6886,-2.639,-2.5839,-2.523,-2.5005,-2.4948,-2.4465,-2.3989,-2.3518,-2.304,-2.2567,-2.2087,-2.2051,-2.2039,-2.2039,0.0,0.0,0.0,0.0,0.0,0.0,0.0,0.0,0.0,0.0,0.0,0.0,0.0,-2.7136,-2.8091,-2.9373,-2.9917,-3.0404,-3.0777,-3.0777,-3.0851,-3.1043,-3.1058,-3.1117,-3.1234,-3.1176,-3.1058,-3.1014,-3.0821,-3.0702,-3.0702,-3.0642,-2.99,-2.8681,-2.8681,-2.81,-2.7113,-2.7336,-2.7401,-2.7452,-2.7974,-2.8186,-2.8201,-2.8414,-2.8477,-2.8396,-2.8171,-2.8073,-2.8005,-2.774,-2.7437,-2.7196,-2.7196,-2.6989,-2.6884,-2.7299,-2.6549,-2.5676,-2.6105,-2.5949,-2.6,-2.7322,-2.8419,-2.954,-3.0641,-3.1399,-3.1986,-3.2468,-3.1655,-3.082,-3.0893,-2.9954,-2.923,-2.9493,-2.9626,-2.9717,-2.9736,-2.9736,-2.9718,-2.9664,-2.9664,-2.9682,-2.9738,-3.0133,-3.0356,-3.0178,-3.085,-3.1328,-3.1454,-3.134,-3.1533,-3.1994,-3.1461,-3.1023,-3.074,-3.0435,-2.9865,-2.909,-2.8685,-2.8367,-2.8073,-2.7479,-2.7108,-2.6864,-2.5974,-2.5342,-2.5005,-2.4835,-2.4465,-2.4047,-2.3884,-2.3318,-2.2665,-2.2665,-2.2432,-2.2197,0.0,0.0,0.0,0.0,0.0,0.0,0.0,0.0,0.0,0.0,0.0,0.0,0.0,0.0,-2.8403,-2.987,-3.0747,-3.1292,-3.1366,-3.1366,-3.1366,-3.1366,-3.1366,-3.1307,-3.1234,-3.1176,-3.1058,0.0,-3.0821,-3.0702,-3.0702,-3.0642,-3.0016,-2.8985,-2.8768,-2.8079,-2.7041,-2.7423,-2.7675,-2.7825,-2.8365,-2.8573,-2.8573,-2.8763,-2.8811,-2.8811,-2.851,-2.8429,-2.8348,-2.8039,-2.7575,-2.7181,-2.7386,-2.7233,-2.6989,-2.7144,-2.6415,-2.5716,-2.6501,-2.6351,-2.6329,-2.7617,-2.8558,-2.9381,-3.0427,-3.1055,-3.1534,-3.1878,-3.1135,-3.0487,-3.0639,-2.9634,-2.8906,-2.9251,-2.9435,-2.9551,-2.9737,-2.9774,-2.9756,-2.972,-2.9945,-3.0096,-3.0096,-3.0828,-3.1258,-3.1119,-3.1859,-3.2386,-3.2603,-3.2456,-3.2378,-3.2451,-3.1967,-3.1376,-3.074,-3.0559,-3.0123,-2.9348,-2.9166,-2.8873,-2.8411,-2.7959,-2.768,-2.7464,-2.6549,-2.5825,-2.5286,-2.5061,-2.4708,-2.4292,-2.4292,-2.3826,-2.3138,-2.2969,-2.2665,-2.2432,0.0,0.0,0.0,0.0,0.0,0.0,0.0,0.0,0.0,0.0,0.0,0.0,0.0,0.0,0.0,-2.9685,-3.0568,-3.1087,-3.1087,-3.1087,-3.1087,-3.1087,-3.1087,-3.1087,-3.1087,-3.0895,-3.0821,0.0,0.0,0.0,0.0,-3.0568,-3.0234,-2.9595,-2.8956,-2.8203,-2.7416,-2.7745,-2.811,-2.8511,-2.8811,-2.8904,-2.8904,-2.8904,-2.8904,-2.8904,-2.8904,-2.87,-2.8411,-2.8235,-2.756,-2.6826,-2.7408,-2.7423,-2.713,-2.6884,-2.63,-2.5893,0.0,0.0,0.0,-2.7427,-2.8659,-2.975,-2.9793,-3.046,-3.1145,-3.1401,-3.0525,-2.9889,-3.0451,-2.9237,-2.8342,-2.906,-2.9126,-2.9212,-2.9626,-2.972,-2.9739,-2.9739,-3.0452,-3.0921,-3.0921,-3.1673,-3.2142,-3.2142,-3.2761,-3.3045,-3.2847,-3.3021,-3.2692,-3.175,-3.1714,-3.1562,-3.123,-3.0781,-3.0293,-2.9793,-2.9348,-2.8873,-2.8396,-2.8411,-2.8073,-2.7515,-2.6938,-2.6443,-2.5893,-2.5286,-2.4708,-2.435,-2.435,-2.4047,-2.3577,-2.3138,-2.2909,-2.2848,0.0,0.0,0.0,0.0,0.0,0.0,0.0,0.0,0.0,0.0,0.0,0.0,-2.8117,-2.9142,-2.9931,-3.0507,-3.0762,-3.0955,-3.1087,-3.1087,-3.1087,-3.1087,-3.1087,-3.1087,-3.1087,-3.1073,-3.1014,0.0,0.0,0.0,0.0,0.0,0.0,0.0,-2.8956,-2.8327,-2.7777,-2.7876,-2.811,-2.8511,-2.8763,-2.8826,-2.8826,-2.8621,-2.8525,-2.8525,-2.8525,-2.8525,-2.8541,-2.8477,-2.8171,-2.7775,-2.7625,-2.7423,-2.7181,-2.713,-2.6455,-2.5945,-2.6528,0.0,0.0,0.0,0.0,0.0,-2.9661,-3.0011,-3.0251,-3.0567,-3.0328,-2.9935,-2.9455,-2.8966,-2.8517,-2.8308,-2.8652,-2.903,-2.923,-2.9897,-3.0351,-3.0351,-3.12,-3.1767,-3.1767,-3.2536,-3.3043,-3.3043,-3.3752,-3.4045,-3.3684,-3.331,-3.2908,-3.2502,-3.2385,-3.2056,-3.1487,-3.1414,-3.0971,-3.0182,-2.9793,-2.9348,-2.8904,-2.8525,-2.8299,-2.8122,-2.753,-2.699,-2.6375,-2.5425,-2.4948,-2.4835,-2.4835,-2.4523,-2.4105,-2.3943,-2.3708,-2.3352,0.0,0.0,0.0,0.0,0.0,0.0,0.0,0.0,0.0,0.0,0.0,0.0,-2.8826,-2.9931,-3.0642,-3.0702,-3.0702,-3.0762,-3.0895,-3.0895,-3.0895,-3.0895,-3.0895,-3.0895,-3.0895,-3.0895,-3.0895,0.0,0.0,0.0,0.0,0.0,0.0,0.0,0.0,-2.8392,-2.8217,-2.761,-2.7665,-2.8271,-2.8573,-2.8747,-2.8794,-2.8541,-2.8493,-2.8556,-2.8493,-2.8541,-2.8573,-2.8541,-2.8381,-2.8186,-2.756,-2.7473,-2.7437,-2.7115,-2.6578,-2.622,-2.6544,-2.6615,-2.6802,-2.749,0.0,0.0,-2.915,-2.9528,-2.9837,-2.9968,-2.9904,-2.9585,-2.903,-2.8647,-2.8279,-2.7911,-2.8425,-2.8933,-2.9156,-2.9816,-3.0415,-3.0725,-3.1745,-3.2378,-3.2378,-3.3231,-3.3758,-3.3736,-3.4255,-3.4404,-3.4074,-3.3494,-3.3142,-3.3014,-3.2669,-3.2248,-3.1861,-3.164,-3.1145,-3.0418,-3.0113,-2.9633,-2.8997,-2.8732,-2.8477,-2.8299,-2.773,-2.7297,-2.6886,-2.5797,-2.523,-2.5005,-2.5005,-2.4821,-2.4593,-2.435,-2.4118,-2.3813,0.0,0.0,0.0,0.0,0.0,0.0,0.0,0.0,0.0,0.0,0.0,-2.826,-2.956,-3.0251,-3.0568,-3.0568,-3.0568,-3.0568,-3.0568,-3.0568,-3.0568,-3.0568,-3.0568,-3.0568,-3.0568,-3.0568,-3.0568,0.0,0.0,0.0,0.0,0.0,0.0,0.0,0.0,0.0,-2.8562,-2.7083,-2.6953,-2.7715,-2.8301,-2.8636,-2.8747,-2.8636,-2.8636,-2.8747,-2.8636,-2.8573,-2.8589,-2.8444,-2.8411,-2.825,-2.7494,-2.756,-2.7855,-2.6997,-2.6721,-2.6616,-2.6351,-2.6496,-2.6864,-2.7269,-2.7845,0.0,-2.8415,-2.9058,-2.9617,-2.9483,-2.9335,-2.9187,-2.8966,-2.8381,-2.7879,-2.7792,-2.8275,-2.8798,-2.9201,-2.971,-3.0311,-3.0975,-3.207,-3.2845,-3.287,-3.3697,-3.4203,-3.4197,-3.4363,-3.434,-3.4124,-3.3616,-3.335,-3.3343,-3.2716,-3.2334,-3.2229,-3.166,-3.1123,-3.0666,-3.0342,-2.9782,-2.9044,-2.8951,-2.8637,-2.822,-2.7745,-2.7464,-2.7195,-2.639,-2.566,-2.5118,-2.5005,-2.5005,-2.4948,-2.4523,-2.4408,-2.4234,-2.0459,0.0,0.0,0.0,0.0,0.0,0.0,0.0,0.0,0.0,-2.8519,-2.9484,-3.0312,-3.0507,-3.0568,-3.0568,-3.0568,-3.0568,-3.0568,-3.0568,-3.0568,-3.0568,-3.0568,-3.0568,-3.0568,-3.0568,-3.0568,0.0,0.0,0.0,0.0,0.0,0.0,0.0,0.0,0.0,-2.7563,-2.6716,-2.6351,-2.6404,-2.7429,-2.8155,-2.8636,-2.8493,-2.846,-2.846,-2.8444,-2.8444,-2.846,-2.8411,-2.8411,-2.8348,-2.8201,-2.8103,-2.7855,-2.7188,-2.6878,-2.6578,-2.6096,-2.6056,-2.6258,-2.6864,-2.7108,0.0,-2.7898,-2.84,-2.8748,-2.8701,-2.9146,-2.9329,-2.8695,-2.8649,-2.8484,-2.7828,-2.7805,-2.8072,-2.8798,-3.0166,-3.1153,-3.1296,-3.2236,-3.3006,-3.3314,-3.3542,-3.3813,-3.4173,-3.4197,-3.4148,-3.4099,-3.3734,-3.3587,-3.3707,-3.3232,-3.2795,-3.2515,-3.2021,-3.1542,-3.1095,-3.0485,-3.0103,-2.9913,-2.912,-2.8701,-2.8559,-2.8122,-2.761,-2.7108,-2.7056,-2.6481,-2.5674,-2.5174,-2.5005,-2.5005,-2.4892,-2.4892,-2.4708,-2.1011,0.0,0.0,0.0,0.0,0.0,0.0,0.0,0.0,-2.7351,-2.8712,-2.987,-3.0507,-3.0568,-3.0568,-3.0568,-3.0568,-3.0568,-3.0568,-3.0568,-3.0568,-3.0568,-3.0568,-3.0568,-3.0568,-3.0568,-3.0568,0.0,0.0,0.0,0.0,0.0,0.0,0.0,0.0,0.0,-2.6854,-2.5993,-2.577,-2.5988,-2.7159,-2.778,-2.8107,-2.8299,-2.8411,-2.8411,-2.8411,-2.8411,-2.8411,-2.8411,-2.8411,-2.8411,-2.8411,-2.8314,-2.8039,-2.7174,-2.6811,-2.6549,-2.5893,-2.5702,-2.5798,-2.6297,-2.6549,0.0,0.0,-2.7715,-2.8061,-2.8158,-2.848,-2.8607,-2.8081,-2.8044,-2.7981,-2.7573,-2.7766,-2.8152,-2.8673,-2.9653,-3.0594,-3.1462,-3.1966,-3.2411,-3.2867,-3.3141,-3.3478,-3.3921,-3.3947,-3.3947,-3.3947,-3.3807,-3.3788,-3.3998,-3.3476,-3.3124,-3.2934,-3.2435,-3.1877,-3.1329,-3.0855,-3.0443,-3.006,-2.9589,-2.9074,-2.8606,-2.8431,-2.8057,-2.756,-2.7363,-2.6886,-2.6229,-2.566,-2.5286,-2.5005,-2.5005,-2.5005,-2.4892,-2.1492,0.0,0.0,0.0,0.0,0.0,0.0,0.0,0.0,-2.7604,-2.8839,-2.987,-3.0507,-3.0568,-3.0568,-3.0568,-3.0568,-3.0568,-3.0568,-3.0568,-3.0568,-3.0568,-3.0568,-3.0568,-3.0568,-3.0568,-3.0507,0.0,0.0,0.0,0.0,0.0,0.0,0.0,0.0,0.0,-2.6492,-2.532,-2.523,-2.5825,-2.6811,-2.7312,-2.7565,-2.8186,-2.8411,-2.8411,-2.8411,-2.8411,-2.8411,-2.8411,-2.8411,-2.8411,-2.8411,-2.8299,-2.8024,-2.7004,-2.664,-2.639,-2.5633,-2.53,-2.5315,-2.5562,-2.5827,-2.6074,0.0,0.0,0.0,-2.7585,-2.775,-2.7731,-2.7565,-2.7457,-2.7396,-2.7296,-2.775,-2.8173,-2.8395,-2.8619,-2.9387,-3.1121,-3.1384,-3.1554,-3.2004,-3.2645,-3.3178,-3.3494,-3.3652,-3.3734,-3.3807,-3.3807,-3.3947,-3.4269,-3.3698,-3.3419,-3.3458,-3.2759,-3.2162,-3.1674,-3.1196,-3.0733,-3.0189,-3.0017,-2.9454,-2.8606,-2.8638,-2.8383,-2.7955,-2.7595,-2.7159,-2.6587,-2.6096,-2.5508,-2.5005,-2.5005,-2.5005,-2.4948,-2.1645,-2.1807,0.0,0.0,0.0,0.0,0.0,0.0,0.0,-2.8247,-2.9093,-2.987,-3.0507,-3.0568,-3.0568,-3.0568,-3.0568,-3.0568,-3.0568,-3.0568,-3.0568,-3.0568,-3.0568,-3.0568,-3.0568,-3.0568,-3.0312,-2.9685,0.0,0.0,0.0,0.0,0.0,0.0,-2.6282,-2.6219,-2.6668,-2.5029,-2.465,-2.5174,-2.5825,-2.6654,-2.7565,-2.8186,-2.8411,-2.8411,-2.8411,-2.8411,-2.8411,-2.8411,-2.8411,-2.8411,-2.8411,-2.8024,-2.7464,-2.6886,-2.639,-2.5825,-2.523,-2.4681,-2.4341,-2.4652,-2.441,-2.4249,-2.5057,0.0,-2.601,-2.6538,0.0,-2.7535,-2.751,0.0,0.0,-2.7325,-2.7285,-2.7315,-2.7504,-2.722,-2.7731,-2.9789,-3.0377,-3.0754,-3.1121,-3.2161,-3.2858,-3.289,-3.3184,-3.3494,-3.3762,-3.3807,-3.4023,-3.4539,-3.4023,-3.3831,-3.4006,-3.2942,-3.2384,-3.2282,-3.1432,-3.0975,-3.0855,-3.0156,-2.9528,-2.9028,-2.8543,-2.814,-2.784,-2.789,-2.7357,-2.6496,-2.6042,-2.5508,-2.5005,-2.5005,-2.5005,-2.4948,-2.1645,-2.1807,0.0,0.0,0.0,0.0,0.0,0.0,0.0,-2.7339,-2.8003,-2.858,-2.8966,-2.929,-2.9551,-2.975,-2.9898,-3.0131,-3.0326,-3.0522,-3.0568,-3.0568,-3.0251,-2.9993,-2.987,-2.9421,-2.9016,-2.8634,-2.8182,0.0,0.0,0.0,0.0,0.0,-2.5252,-2.5052,-2.4942,-2.4472,-2.4408,-2.465,-2.555,-2.615,-2.6654,-2.753,-2.8122,-2.8411,-2.8411,-2.8411,-2.8411,-2.8411,-2.8411,-2.8411,-2.8411,-2.8235,-2.786,-2.6953,-2.6534,-2.6176,-2.5272,-2.4571,-2.4123,-2.4286,-2.3835,-2.3571,-2.4132,-2.4381,-2.469,-2.5483,0.0,0.0,0.0,0.0,0.0,0.0,-2.6916,-2.6916,-2.696,-2.682,-2.7253,-2.867,-2.9009,-2.9664,-3.087,-3.1065,-3.1445,-3.2282,-3.216,-3.2378,-3.3027,-3.3335,-3.3688,-3.4124,-3.4074,-3.3884,-3.3634,-3.3178,-3.2666,-3.2109,-3.1562,-3.1213,-3.0975,-3.0468,-2.9793,-2.909,-2.8889,-2.8383,-2.779,-2.7955,-2.756,-2.6901,-2.6549,-2.5811,-2.5005,-2.5005,-2.5005,-2.4948,-2.1645,0.0,0.0,0.0,0.0,0.0,0.0,0.0,-2.6333,-2.6687,-2.7063,-2.7489,-2.7776,-2.8484,-2.9001,-2.9097,-2.9593,-2.9911,-2.996,-3.028,-3.0326,-3.0129,-2.9623,-2.9233,-2.8967,-2.8441,-2.7986,-2.7723,0.0,0.0,0.0,0.0,0.0,0.0,-2.4521,-2.4174,-2.3929,-2.3893,-2.406,-2.435,-2.5147,-2.566,-2.5988,-2.6953,-2.763,-2.8137,-2.8137,-2.8235,-2.8411,-2.8411,-2.8411,-2.8411,-2.8411,-2.8186,-2.776,-2.6938,-2.6467,-2.6054,-2.5216,-2.4462,-2.3879,-2.3879,-2.3256,-2.2831,-2.3303,-2.3446,-2.3664,-2.4445,-2.4868,0.0,0.0,0.0,-2.6297,-2.6365,0.0,-2.6297,-2.6094,-2.6147,-2.6582,-2.7579,-2.7856,-2.8592,-3.0053,-2.9907,-3.0136,-3.1181,-3.1202,-3.1485,-3.2195,-3.2751,-3.327,-3.3634,-3.3858,-3.376,-3.3382,-3.3225,-3.2795,-3.202,-3.1674,-3.1312,-3.0975,-3.0651,-2.9984,-2.9074,-2.9136,-2.8622,-2.779,-2.8005,-2.776,-2.7282,-2.7041,-2.6215,-2.523,-2.5061,-2.5005,-2.5005,-2.1645,-2.1807,-2.1807,-2.1807,-2.3106,0.0,0.0,-2.5975,-2.5876,-2.6634,-2.6689,-2.6996,-2.772,-2.8857,-2.942,-2.914,-2.9997,-3.0312,-2.9665,-2.9927,-2.9727,-2.8853,-2.8853,-2.8597,-2.8051,-2.8051,-2.7657,-2.6934,-2.6705,0.0,0.0,0.0,0.0,0.0,-2.4268,-2.4045,-2.4423,-2.3376,-2.3484,-2.4292,-2.435,-2.4978,-2.5934,-2.6534,-2.7041,-2.7515,-2.7515,-2.791,-2.8411,-2.8411,-2.8411,-2.8411,-2.8411,-2.7645,-2.673,-2.673,-2.5892,-2.5061,-2.5005,-2.415,-2.3216,-2.3216,-2.2322,-2.1675,-2.2545,-2.2732,-2.2912,-2.3496,-2.4559,-2.5256,-2.4729,-2.5579,-2.6136,-2.5592,-2.555,0.0,0.0,-2.4765,-2.5481,-2.6625,-2.7136,-2.7629,-2.8119,-2.8807,-2.923,-2.9275,-3.041,-3.1215,-3.1541,-3.2177,-3.2769,-3.3285,-3.3317,-3.3393,-3.3605,-3.3082,-3.2666,-3.2384,-3.1768,-3.1312,-3.0975,-3.0651,-2.9984,-2.912,-2.9243,-2.8732,-2.784,-2.8088,-2.7845,-2.7297,-2.7399,-2.6811,-2.5784,-2.523,-2.5005,-2.5005,-2.1645,-2.1655,-2.1655,-2.1807,-2.2692,-2.3925,-2.5453,-2.5623,-2.5665,-2.5731,-2.5794,-2.5857,-2.603,-2.6756,-2.7285,-2.7382,-2.7898,-2.8198,-2.8182,-2.8867,-2.8917,-2.8325,-2.813,-2.7789,-2.7098,-2.6663,-2.6195,-2.5849,-2.5767,0.0,0.0,0.0,0.0,0.0,-2.3978,-2.3474,-2.2985,-2.2922,-2.3078,-2.3424,-2.406,-2.4694,-2.5397,-2.592,-2.6481,-2.699,-2.699,-2.7312,-2.7795,-2.7795,-2.8073,-2.8411,-2.8411,-2.786,-2.7144,-2.6782,-2.6176,-2.5412,-2.4627,-2.3784,-2.308,-2.2726,-2.2106,-2.1753,-2.2056,-2.2255,-2.2532,-2.3125,-2.3568,-2.4112,-2.4982,-2.5464,-2.5735,-2.5728,-2.5495,-2.509,0.0,-2.4176,-2.4208,-2.457,-2.5686,-2.662,-2.7104,-2.7663,-2.8229,-2.893,-2.9326,-2.9956,-3.0999,-3.137,-3.1987,-3.2942,-3.3178,-3.3237,-3.3064,-3.2805,-3.2451,-3.2002,-3.1521,-3.1252,-3.1196,-3.0895,-3.041,-2.9733,-2.9467,-2.9028,-2.8383,-2.8268,-2.8073,-2.7845,-2.721,-2.6745,-2.639,-2.5825,-2.5342,-2.4948,-2.1492,-2.1578,-2.1502,-2.1655,-2.2392,-2.3412,-2.5016,-2.52,-2.513,-2.5289,-2.5291,-2.5217,-2.509,-2.5827,-2.6417,-2.6492,-2.7024,-2.7379,-2.7324,-2.7947,-2.8065,-2.7404,-2.7217,-2.6867,-2.6158,-2.5721,-2.5453,-2.5312,-2.5004,-2.4862,0.0,0.0,0.0,0.0,0.0,-2.3183,-2.2185,-2.2555,-2.2726,-2.2969,-2.3943,-2.4593,-2.5061,-2.5453,-2.592,-2.6443,-2.6443,-2.6745,-2.721,-2.721,-2.758,-2.8073,-2.786,-2.753,-2.7093,-2.6587,-2.6028,-2.537,-2.4395,-2.3635,-2.304,-2.2468,-2.2054,-2.1793,-2.1949,-2.2137,-2.2437,-2.2861,-2.3178,-2.3694,-2.4702,-2.5189,-2.5441,-2.5453,-2.5189,-2.4781,0.0,-2.3649,-2.3352,-2.3352,-2.4394,-2.5259,-2.5805,-2.6222,-2.6968,-2.8021,-2.8386,-2.9011,-3.0149,-3.0704,-3.1312,-3.2092,-3.2533,-3.2666,-3.2453,-3.2368,-3.2074,-3.1634,-3.1368,-3.1213,-3.1157,-3.0975,-3.0593,-3.0081,-2.9645,-2.9196,-2.8701,-2.8414,-2.8122,-2.7845,-2.721,-2.6745,-2.6336,-2.577,-2.5342,-2.4948,-2.1185,-2.1512,-2.1502,-2.1512,-2.2155,-2.3243,-2.4945,-2.4564,-2.4381,-2.5179,-2.5121,-2.5078,-2.5103,-2.6218,-2.6801,-2.6492,-2.7328,-2.7604,-2.6973,-2.7217,-2.7082,-2.622,-2.6151,-2.5873,-2.5229,-2.53,-2.5241,-2.5158,-2.448,0.0,0.0,0.0,0.0,0.0,-2.3349,-2.3183,-2.2123,-2.2185,-2.2494,-2.2969,-2.3884,-2.4536,-2.4948,-2.5005,-2.5342,-2.5839,-2.5839,-2.619,-2.6678,-2.6678,-2.7004,-2.7348,-2.6834,-2.6678,-2.6587,-2.6042,-2.5453,-2.4869,-2.4245,-2.3622,-2.3026,-2.2427,-2.2027,-2.1902,-2.2137,-2.2417,-2.2615,-2.2615,-2.3273,-2.3894,-2.3999,-2.4722,-2.5173,-2.4799,-2.4681,-2.4394,-2.3636,-2.3125,-2.2848,-2.2848,-2.3245,-2.3695,-2.4176,-2.4768,-2.5522,-2.6573,-2.7525,-2.837,-2.9028,-3.0074,-3.0657,-3.0788,-3.1411,-3.1783,-3.1783,-3.18,-3.1617,-3.1295,-3.1295,-3.1157,-3.0912,-3.0912,-3.0634,-3.0081,-2.975,-2.9257,-2.8685,-2.8477,-2.7959,-2.7348,-2.7399,-2.6797,-2.5784,-2.523,-2.5005,-2.4948,-2.0469,-2.1031,-2.1205,-2.1061,-2.1852,-2.266,-2.3243,-2.3183,-2.35,-2.4672,-2.4327,-2.4273,-2.5176,-2.5541,-2.5697,-2.564,-2.5832,-2.5918,-2.5721,-2.6208,-2.6208,-2.5594,-2.5943,-2.5652,-2.4409,-2.5004,-2.4719,-2.3621,-2.3902,-2.3818,-2.3316,0.0,0.0,0.0,0.0,-2.2352,-2.14,-2.1987,-2.2494,-2.2969,-2.3531,-2.406,-2.4523,-2.4892,-2.5118,-2.523,-2.523,-2.5605,-2.6096,-2.6096,-2.6443,-2.6886,-2.673,-2.6443,-2.6096,-2.5948,-2.5453,-2.4774,-2.3689,-2.3297,-2.2931,-2.1912,-2.187,-2.2137,-2.2184,-2.2509,-2.2797,-2.2797,-2.2973,-2.3467,-2.4437,-2.444,-2.4483,-2.5011,-2.4105,-2.3185,-2.2665,-2.2494,-2.2371,-2.2371,-2.2592,-2.2823,-2.3198,-2.4355,-2.519,-2.5522,-2.6096,-2.701,-2.837,-2.8292,-2.9054,-3.0886,-3.1116,-3.138,-3.1731,-3.1674,-3.1487,-3.1213,-3.1117,-3.1095,-3.1112,-3.1112,-3.0838,-3.0377,-2.9924,-2.9483,-2.8982,-2.8573,-2.8008,-2.7399,-2.7041,-2.6215,-2.523,-2.5061,-2.5005,-2.5005,-2.007,-2.0731,-2.0984,-2.0819,-2.1252,-2.1832,-2.251,-2.2507,-2.3017,-2.4529,-2.3879,-2.3881,-2.5276,-2.5004,-2.4933,-2.5241,-2.5312,-2.5312,-2.5312,-2.5288,-2.5134,-2.4791,-2.4779,-2.4409,-2.361,-2.4047,-2.3841,-2.3032,-2.3084,-2.2861,-2.251,0.0,0.0,0.0,0.0,-2.1732,-2.1135,-2.1862,-2.2494,-2.2969,-2.3412,-2.3872,0.0,-2.4821,-2.5005,-2.5005,-2.5005,-2.523,-2.5508,-2.5508,-2.5865,-2.6283,-2.6054,-2.592,-2.5839,-2.5564,-2.5094,-2.4422,-2.3446,-2.2986,-2.2603,-2.18,-2.1902,-2.2231,-2.237,-2.2661,-2.2888,-2.2888,-2.2888,-2.3293,-2.4617,-2.4312,-2.4052,-2.4523,-2.3518,-2.2604,-2.2309,-2.2247,-2.2197,-2.2197,-2.2309,-2.2482,-2.2604,-2.3917,-2.4646,-2.4461,-2.5184,-2.5966,-2.6812,-2.7161,-2.807,-2.9713,-2.9964,-3.0299,-3.0874,-3.0746,-3.074,-3.0878,-3.1015,-3.1015,-3.0878,-3.0878,-3.0658,-3.0182,-2.9705,-2.9348,-2.9028,-2.8286,-2.7695,-2.7093,-2.6254,-2.5467,-2.4708,-2.4708,-2.4821,-2.4948,-1.9599,-2.0333,-2.0741,-2.0489,-2.0489,-2.0934,-2.1983,-2.2014,-2.2456,-2.4131,-2.3463,-2.3475,-2.5087,-2.4492,-2.4264,-2.4945,-2.5016,-2.5016,-2.5016,-2.4348,-2.3963,-2.3963,-2.3316,-2.2957,-2.2883,-2.2957,-2.2883,-2.266,-2.2059,-2.1766,0.0,0.0,0.0,0.0,-2.0962,-2.1196,-2.1123,-2.1788,-2.2359,-2.2848,-2.3292,-2.3767,-2.4292,-2.4708,-2.4948,-2.5005,-2.5005,-2.5005,-2.5005,-2.5005,-2.5342,-2.5674,-2.5174,-2.5342,-2.5674,-2.5174,-2.4584,-2.3987,-2.3337,-2.278,-2.2256,-2.1897,-2.2044,-2.2324,-2.2555,-2.2706,-2.2797,-2.2797,-2.2752,-2.3094,-2.4437,-2.4239,-2.3809,-2.369,-2.3005,-2.242,-2.242,-2.2309,-2.2247,-2.2247,-2.2371,0.0,-2.2247,-2.3412,-2.3914,-2.3437,-2.439,-2.5034,-2.51,-2.6299,-2.738,-2.8163,-2.8621,-2.913,-2.9648,-2.9584,-2.979,-3.0286,-3.0788,-3.0797,-3.0435,-3.0435,-3.014,-2.9705,-2.9257,-2.9028,-2.8826,-2.7898,-2.7144,-2.6467,-2.537,-2.465,-2.4292,-2.4234,-2.4478,-2.4765,-1.7755,-1.9036,-1.9991,-1.9618,-2.0089,-2.0634,-2.0867,-2.0867,-2.1252,-2.2392,-2.222,-2.236,-2.3327,-2.3316,-2.3243,-2.3401,-2.339,-2.339,-2.339,-2.3243,-2.3169,-2.3169,-2.3106,-2.266,-2.1983,-2.266,-2.236,-2.1011,-2.1538,-2.1461,0.0,0.0,0.0,0.0,-1.9877,-2.042,-2.1123,-2.1262,-2.1714,-2.2371,-2.2836,-2.3305,-2.3754,-2.4234,-2.465,-2.5005,-2.5005,-2.5005,-2.5005,-2.5005,-2.5061,-2.5118,-2.5005,-2.5061,-2.5118,-2.5005,-2.4584,-2.3987,-2.3337,-2.2934,-2.2504,-2.1945,-2.2184,-2.2555,-2.2615,-2.2463,-2.2324,-2.2324,-2.1969,-2.2042,-2.3279,-2.3647,-2.3625,-2.316,-2.2848,-2.2629,-2.2629,-2.2482,-2.2359,-2.2359,-2.2555,-2.2555,-2.2359,-2.2957,-2.3065,-2.2425,-2.274,-2.3447,-2.4512,-2.5063,-2.6228,-2.8148,-2.8732,-2.9038,-2.8978,-2.9475,-2.9518,-2.9105,-2.9734,-3.0011,-2.9924,-2.9924,-2.9661,-2.9212,-2.9136,-2.8591,-2.7765,-2.7565,-2.6901,-2.5934,-2.4865,-2.435,-2.4234,-2.3872,-2.3754,-2.3813,-1.744,-1.839,-1.9116,-1.8727,-1.8957,-1.9362,-1.9854,-1.9932,-2.0469,-2.1832,-2.1538,-2.168,-2.2936,-2.2649,-2.2585,-2.2947,-2.3032,-2.3032,-2.3032,-2.2585,-2.236,-2.236,-2.1983,-2.1538,-2.1165,-2.1538,-2.1385,-2.0566,-2.1011,-2.0814,0.0,0.0,0.0,-1.8936,-1.9239,-1.9575,-2.0085,-2.0805,-2.1325,-2.1726,-2.2531,-2.3017,-2.3292,-2.4002,-2.4465,-2.465,-2.4878,-2.5131,-2.5244,-2.5061,-2.5005,-2.5005,-2.5005,-2.5005,-2.5005,-2.5005,-2.4367,-2.3554,-2.327,-2.2715,-2.2214,-2.2066,-2.2324,-2.2555,-2.2417,-2.2278,-2.2123,-2.1827,-2.1575,-2.1686,-2.2551,-2.3139,-2.3406,-2.3088,-2.2909,-2.28,-2.28,-2.2678,-2.2555,-2.2555,-2.2678,-2.2739,-2.2555,-2.2848,-2.2733,-2.2067,-2.2936,-2.3663,-2.3892,-2.4821,-2.6006,-2.7354,-2.7677,-2.7906,-2.8202,-2.8582,-2.8777,-2.8748,-2.9544,-2.975,-2.9438,-2.9438,-2.9182,-2.8748,-2.8415,-2.7997,-2.7464,-2.6901,-2.6176,-2.5342,-2.458,-2.4176,-2.3872,-2.3412,-2.3065,-2.2884,-1.7196,-1.7764,-1.8158,-1.7755,-1.7917,-1.8212,-1.8779,-1.8928,-1.9575,-2.1497,-2.1078,-2.1088,-2.2489,-2.1973,-2.1832,-2.2435,-2.2414,-2.236,-2.236,-2.1668,-2.1251,-2.1251,-2.0665,-2.0293,-2.0293,-2.0293,-2.0293,-2.0293,-2.0293,-2.0117,-1.9775,-1.9687,-1.9238,-1.8486,-1.867,-1.8977,-1.9309,-2.0409,-2.1071,-2.1451,-2.2408,-2.2848,-2.309,-2.3839,-2.4234,-2.4523,-2.4892,-2.5244,-2.5536,-2.53,-2.5174,-2.5174,-2.5174,-2.5174,-2.5174,-2.5174,-2.4409,-2.3548,-2.3412,-2.2779,-2.215,-2.2119,-2.2324,-2.2417,-2.2123,-2.1935,-2.1732,-2.1334,-2.1233,-2.1449,-2.2003,-2.2583,-2.3038,-2.3097,-2.3017,-2.2969,-2.2969,-2.286,-2.2739,-2.2739,-2.286,-2.2848,-2.2739,-2.2848,-2.2662,-2.2004,-2.325,-2.3905,-2.3533,-2.4843,-2.5922,-2.6654,-2.6751,-2.6976,-2.7365,-2.7687,-2.8,-2.8373,-2.9207,-2.9393,-2.9044,-2.8951,-2.8685,-2.8235,-2.7645,-2.7312,-2.7056,-2.6014,-2.5272,-2.4765,-2.4234,-2.3767,-2.3352,-2.2763,-2.2285,-2.1987,-1.6245,-1.6722,-1.7115,-1.6862,-1.7513,-1.7966,-1.7692,-1.764,-1.8395,-2.042,-2.0634,-2.0644,-2.0867,-2.0789,-2.0712,-2.0789,-2.0424,-2.0187,-2.0187,-1.9757,-1.9551,-1.9551,-1.9478,-1.9404,-1.9404,-1.9404,-1.9404,-1.9404,-1.9404,-1.9385,-1.9336,-1.8945,-1.8516,-1.8066,-1.8086,-1.8787,-2.0031,-2.0161,-2.0996,-2.2297,-2.242,-2.2787,-2.3343,-2.3463,-2.4086,-2.4948,-2.5005,-2.5397,-2.5839,-2.5839,-2.5839,-2.5839,-2.5839,-2.5839,-2.5839,-2.5839,-2.5362,-2.4717,-2.4077,-2.3618,-2.3126,-2.2074,-2.2044,-2.2123,-2.1575,-2.1091,-2.0759,-2.0709,-2.0733,-2.0927,-2.1479,-2.199,-2.2543,-2.3037,-2.3078,-2.3078,-2.3078,-2.2969,-2.2848,-2.2848,-2.2909,-2.2909,-2.2848,-2.3017,-2.2798,-2.2103,-2.2443,-2.2915,-2.349,-2.4459,-2.5493,-2.6654,-2.7246,-2.7215,-2.6692,-2.7315,-2.7482,-2.727,-2.801,-2.8525,-2.8842,-2.8429,-2.8107,-2.773,-2.7327,-2.6707,-2.5988,-2.4908,-2.4408,-2.4292,-2.3378,-2.3017,-2.2836,-2.1702,-2.125,-2.1135,-1.5397,-1.5541,-1.562,-1.5389,-1.5707,-1.6039,-1.6338,-1.639,-1.6902,-1.8294,-1.8473,-1.8473,-1.8473,-1.8872,-1.9193,-1.9193,-1.8958,-1.8863,-1.8863,-1.8239,-1.8156,-1.8618,-1.8618,-1.8848,-1.9287,-1.9287,-1.9287,-1.9287,-1.9287,-1.915,-1.8896,-1.8721,-1.8418,-1.8008,-1.8008,-1.8337,-1.8921,-1.9824,-2.0602,-2.1239,-2.2161,-2.2739,-2.2982,-2.3283,-2.3688,-2.4086,-2.4363,-2.4978,-2.5536,-2.5203,-2.5425,-2.5893,-2.5893,-2.5893,-2.5893,-2.5893,-2.5458,-2.484,-2.4179,-2.3497,-2.2818,-2.1993,-2.1732,-2.1575,-2.1042,-2.0759,-2.051,-2.0207,-2.0142,-2.0426,-2.1317,-2.1669,-2.2108,-2.2927,-2.3078,-2.3078,-2.3078,-2.2689,-2.2567,-2.2957,-2.2628,-2.2567,-2.2957,-2.3078,-2.3005,-2.2689,-2.3137,-2.336,-2.3205,-2.4626,-2.572,-2.619,-2.6803,-2.7012,-2.6747,-2.7202,-2.7339,-2.7171,-2.7705,-2.7989,-2.8088,-2.7925,-2.756,-2.7071,-2.6759,-2.6244,-2.5592,-2.4708,-2.4292,-2.4234,-2.3258,-2.2641,-2.2125,-2.1376,-2.0869,-2.042,-1.4116,-1.4279,-1.4287,-1.4145,-1.4308,-1.4662,-1.5141,-1.5194,-1.5391,-1.5881,-1.5947,-1.6246,-1.6908,-1.7477,-1.7868,-1.7868,-1.7759,-1.7696,-1.7696,-1.6972,-1.6837,-1.7442,-1.7442,-1.7734,-1.8241,-1.8241,-1.8241,-1.8241,-1.8241,-1.809,-1.7727,-1.8018,-1.8074,-1.8008,-1.8008,-1.8134,-1.8462,-1.9748,-2.0451,-2.091,-2.2211,-2.28,-2.2848,-2.3223,-2.345,-2.3628,-2.3956,-2.4624,-2.5231,-2.4794,-2.5077,-2.566,-2.566,-2.566,-2.566,-2.566,-2.5354,-2.488,-2.4187,-2.346,-2.2638,-2.1866,-2.1421,-2.1028,-2.051,-2.0359,-2.0258,-1.9901,-1.9936,-2.0351,-2.1305,-2.1619,-2.2033,-2.2975,-2.2944,-2.2823,-2.2823,-2.2249,-2.199,-2.2445,-2.2237,-2.2298,-2.275,-2.3005,-2.3005,-2.2811,-2.3412,-2.3636,-2.3361,-2.461,-2.555,-2.5893,-2.6286,-2.6621,-2.6779,-2.7093,-2.7248,-2.7284,-2.7539,-2.7675,-2.7695,-2.7494,-2.7034,-2.6418,-2.6014,-2.5591,-2.5075,-2.4247,-2.3884,-2.3767,-2.275,-2.2063,-2.1479,-2.073,-2.015,-1.9704,-1.2441,-1.2936,-1.3344,-1.3344,-1.3988,-1.4362,-1.404,-1.3989,-1.3947,-1.355,-1.3506,-1.439,-1.6781,-1.7009,-1.7009,-1.7009,-1.6681,-1.6392,-1.6392,-1.5968,-1.5754,-1.5754,-1.5754,-1.5754,-1.5754,-1.5754,-1.5754,-1.5754,-1.5754,-1.5754,-1.5745,-1.6524,-1.7304,-1.8008,-1.8008,-1.8462,-1.9299,-2.0009,-2.091,-2.1939,-2.2653,-2.2969,-2.3078,-2.3078,-2.3484,-2.4073,-2.4131,-2.4509,-2.5007,-2.5007,-2.5007,-2.5007,-2.5007,-2.5007,-2.5007,-2.5007,-2.5007,-2.4871,-2.4163,-2.3635,-2.2933,-2.1694,-2.0977,-2.0459,-1.9952,-1.9798,-1.9798,-1.9798,-2.0263,-2.0882,-2.138,-2.1933,-2.2485,-2.2977,-2.2555,-2.2101,-2.2101,-2.1553,-2.1135,-2.1123,-2.1678,-2.2101,-2.2101,-2.2689,-2.2811,-2.2175,-2.275,-2.3424,-2.406,-2.4131,-2.4694,-2.5839,-2.5893,-2.6233,-2.6779,-2.6779,-2.6989,-2.7401,-2.7401,-2.7575,-2.7849,-2.7195,-2.6549,-2.5893,-2.5077,-2.458,-2.4234,-2.3318,-2.2909,-2.2787,-2.1565,-2.1135,-2.0933,-1.9562,-1.9044,-1.8911,-1.1511,-1.167,-1.1974,-1.251,-1.2811,-1.3159,-1.3593,-1.3653,-1.3616,-1.3506,-1.3492,-1.3784,-1.4494,-1.5089,-1.5364,-1.5364,-1.5266,-1.5201,-1.5201,-1.4537,-1.441,-1.4958,-1.4958,-1.5171,-1.5675,-1.5675,-1.5675,-1.5675,-1.5675,-1.5956,-1.6515,-1.6793,-1.7295,-1.8008,-1.8134,-1.8337,-1.8664,-1.9573,-2.0398,-2.1215,-2.2051,-2.2628,-2.3078,-2.3078,-2.3245,-2.3424,-2.3424,-2.3826,-2.435,-2.3884,-2.3989,-2.4292,-2.3826,-2.4323,-2.5007,-2.5007,-2.5007,-2.4829,-2.4177,-2.3607,-2.2986,-2.2217,-2.1622,-2.117,-2.1008,-2.0953,-2.0953,-2.0953,-2.1091,-2.1269,-2.1345,-2.1506,-2.162,-2.1732,-2.1565,-2.1439,-2.1439,-2.0869,-2.0613,-2.1071,-2.0858,-2.0921,-2.1365,-2.199,-2.2298,-2.2113,-2.2689,-2.3005,-2.2774,-2.3577,-2.4292,-2.4637,-2.5077,-2.5356,-2.5577,-2.5988,-2.6218,-2.6379,-2.6765,-2.7026,-2.7115,-2.651,-2.6096,-2.5839,-2.4865,-2.4408,-2.4163,-2.2713,-2.2175,-2.2051,-2.0858,-2.0085,-1.9628,-1.9177,-1.8721,-1.8192,-1.0207,-1.0438,-1.0812,-1.1335,-1.1632,-1.2003,-1.2526,-1.2599,-1.2599,-1.2599,-1.2599,-1.2673,-1.3046,-1.3171,-1.3513,-1.4114,-1.4194,-1.4194,-1.4194,-1.3775,-1.3702,-1.4194,-1.4194,-1.4402,-1.4832,-1.4903,-1.4903,-1.4903,-1.4903,-1.5251,-1.6018,-1.6298,-1.6872,-1.7647,-1.8134,-1.8337,-1.8539,-1.9452,-2.0215,-2.0962,-2.1791,-2.2494,-2.3078,-2.3078,-2.3078,-2.3078,-2.3078,-2.3365,-2.3662,-2.3245,-2.3365,-2.3662,-2.3245,-2.3649,-2.4279,-2.4279,-2.4279,-2.42,-2.3787,-2.3298,-2.2768,-2.2377,-2.1924,-2.1493,-2.1493,-2.1493,-2.1437,-2.12,-2.1475,-2.1609,-2.1021,-2.1296,-2.1485,-2.1129,-2.0869,-2.0741,-2.0741,-2.0172,-1.9911,-2.0291,-2.0226,-2.0291,-2.0677,-2.1302,-2.1803,-2.2113,-2.2494,-2.2616,-2.2494,-2.3292,-2.3826,-2.4073,-2.4452,-2.4794,-2.5007,-2.537,-2.5536,-2.555,-2.5934,-2.6272,-2.6447,-2.5825,-2.5495,-2.5258,-2.4394,-2.38,-2.3255,-2.2027,-2.1416,-2.1037,-2.0085,-1.9441,-1.8977,-1.8721,-1.8182,-1.751,-0.8703,-0.9311,-0.9846,-0.9916,-1.0513,-1.1037,-1.1111,-1.1111,-1.1111,-1.1111,-1.1111,-1.1409,-1.215,-1.1558,-1.1706,-1.32,-1.3346,-1.3346,-1.3346,-1.3346,-1.3346,-1.3346,-1.3419,-1.3419,-1.3419,-1.3492,-1.3492,-1.3492,-1.3492,-1.3912,-1.4601,-1.5313,-1.6237,-1.7148,-1.792,-1.8472,-1.8808,-1.9452,-2.0291,-2.1123,-2.1803,-2.2433,-2.3078,-2.3078,-2.3078,-2.3078,-2.3078,-2.3078,-2.3078,-2.3078,-2.3078,-2.3078,-2.3078,-2.3078,-2.3078,-2.3078,-2.3078,-2.3078,-2.3078,-2.2761,-2.2372,-2.2372,-2.1926,-2.1537,-2.1481,-2.1481,-2.1312,-2.0682,-2.143,-2.182,-2.0546,-2.1225,-2.1741,-2.106,-2.042,-2.0042,-2.0042,-1.9518,-1.9075,-1.9075,-1.9649,-2.0042,-2.0042,-2.0613,-2.1302,-2.1916,-2.1978,-2.2298,-2.3005,-2.3005,-2.3365,-2.4015,-2.4002,-2.4292,-2.4838,-2.4894,-2.4951,-2.5007,-2.5007,-2.53,-2.5784,-2.5189,-2.4681,-2.4234,-2.3695,-2.2834,-2.1717,-2.1175,-2.0613,-1.9966,-1.9243,-1.8911,-1.8844,-1.8202,-1.751,-1.6862,-0.8703,-0.8851,-0.916,-0.9771,-1.0067,-1.0368,-1.1037,-1.1111,-1.1111,-1.1111,-1.1111,-1.1186,-1.1335,-1.1186,-1.126,-1.1632,-1.1706,-1.1706,-1.1706,-1.1706,-1.1706,-1.1706,-1.2224,-1.2599,-1.2599,-1.3193,-1.3492,-1.3492,-1.3492,-1.3912,-1.4601,-1.5313,-1.6237,-1.7148,-1.8056,-1.8607,-1.8808,-1.9131,-1.9977,-2.1123,-2.125,-2.2063,-2.3078,-2.3078,-2.3078,-2.3078,-2.3078,-2.3078,-2.3078,-2.3078,-2.3078,-2.3078,-2.3078,-2.3078,-2.3078,-2.3078,-2.3078,-2.3078,-2.3078,-2.3037,-2.2937,-2.2937,-2.2454,-2.1801,-2.1325,-2.1202,-2.114,-2.1016,-2.1183,-2.1128,-2.0317,-2.0395,-2.0344,-1.9649,-1.9452,-1.933,-1.933,-1.9198,-1.9075,-1.9075,-1.9264,-1.933,-1.933,-1.9977,-2.042,-2.0537,-2.1049,-2.1616,-2.2298,-2.2359,-2.2616,-2.3305,-2.3305,-2.3424,-2.3531,-2.406,-2.4509,-2.5007,-2.5007,-2.5007,-2.498,-2.4368,-2.3975,-2.3695,-2.2482,-2.1753,-2.1376,-2.0085,-1.9431,-1.9177,-1.8529,-1.8269,-1.8134,-1.7432,-1.7079,-1.6724,-0.8703,-0.8703,-0.8856,-0.9311,-0.9387,-0.9539,-0.9906,-0.9981,-0.9981,-0.9981,-0.9981,-1.0132,-1.0513,-1.0207,-1.0132,-1.0513,-1.0887,-1.1111,-1.1111,-1.1111,-1.1111,-1.1111,-1.1855,-1.2305,-1.2305,-1.3119,-1.3492,-1.3492,-1.3492,-1.3702,-1.4122,-1.4824,-1.5737,-1.6793,-1.7628,-1.8317,-1.8942,-1.9065,-1.9715,-2.0677,-2.1008,-2.169,-2.2689,-2.3005,-2.3078,-2.3078,-2.3078,-2.3078,-2.3078,-2.3078,-2.3078,-2.3078,-2.3078,-2.3078,-2.3078,-2.3078,-2.3078,-2.3078,-2.3078,-2.3078,-2.3005,-2.2689,-2.2125,-2.1553,-2.1187,-2.1123,-2.0996,-2.0677,-2.0869,-2.0805,-1.9846,-1.9901,-1.9911,-1.9198,-1.9075,-1.9075,-1.9075,-1.9075,-1.9075,-1.9075,-1.9075,-1.9075,-1.9075,-1.9462,-1.9781,-2.0107,-2.042,-2.0933,-2.1616,-2.1616,-2.2063,-2.3078,-2.3078,-2.3078,-2.3078,-2.3484,-2.3943,-2.4567,-2.4279,-2.4208,-2.4239,-2.3374,-2.2786,-2.2543,-2.1416,-2.0666,-2.0215,-1.9365,-1.8633,-1.8017,-1.7638,-1.7295,-1.6872,-1.6515,-1.6158,-1.5737,-0.8703,-0.8703,-0.8703,-0.8703,-0.8703,-0.8703,-0.8703,-0.8703,-0.8703,-0.8703,-0.8703,-0.8927,-0.9614,-0.9084,-0.9008,-0.969,-1.0363,-1.0738,-1.0738,-1.0738,-1.0738,-1.0738,-1.1484,-1.1929,-1.1929,-1.2826,-1.3346,-1.3492,-1.3492,-1.3492,-1.3492,-1.4258,-1.5171,-1.6167,-1.706,-1.8027,-1.8931,-1.9065,-1.9462,-2.0161,-2.0805,-2.1491,-2.2175,-2.2811,-2.3078,-2.3078,-2.3078,-2.3078,-2.3078,-2.3078,-2.3078,-2.3078,-2.3078,-2.3078,-2.3078,-2.3078,-2.3005,-2.2944,-2.3078,-2.3005,-2.275,-2.199,-2.1365,-2.0933,-2.0805,-2.0805,-2.0613,-2.0096,-2.042,-2.042,-1.933,-1.9584,-1.9781,-1.9198,-1.9075,-1.9075,-1.9075,-1.9075,-1.9075,-1.9075,-1.9075,-1.9075,-1.9075,-1.9075,-1.933,-1.9911,-1.9977,-2.0226,-2.0933,-2.0933,-2.1502,-2.2763,-2.2884,-2.3005,-2.3078,-2.3078,-2.3365,-2.3943,-2.3365,-2.3233,-2.3433,-2.2359,-2.1639,-2.1135,-2.0398,-1.9683,-1.8977,-1.8767,-1.7949,-1.6862,-1.6793,-1.6306,-1.5675,-1.5604,-1.5171,-1.4601,-0.8703,-0.8703,-0.8703,-0.8703,-0.8703,-0.8703,-0.8703,-0.8703,-0.8703,-0.8703,-0.8703,-0.878,-0.8856,-0.878,-0.878,-0.8856,-0.9003,-0.9079,-0.9079,-0.9079,-0.9079,-0.9079,-0.9836,-1.0293,-1.0293,-1.1706,-1.2826,-1.3492,-1.3492,-1.3492,-1.3492,-1.441,-1.5046,-1.5409,-1.6941,-1.7833,-1.824,-1.8865,-1.9462,-2.0161,-2.0805,-2.1491,-2.2175,-2.2811,-2.3078,-2.3078,-2.3078,-2.3078,-2.3078,-2.3078,-2.3078,-2.3078,-2.3078,-2.3078,-2.3078,-2.3078,-2.2689,-2.2359,-2.2944,-2.2689,-2.1978,-2.073,-2.0355,-2.0107,-1.9518,-1.9396,-1.9396,-1.9264,-1.933,-1.933,-1.9131,-1.9198,-1.9198,-1.9142,-1.9075,-1.9075,-1.9075,-1.9075,-1.9075,-1.9075,-1.9075,-1.9075,-1.9075,-1.9075,-1.9131,-1.9264,-1.9264,-1.9528,-2.0226,-2.0226,-2.0613,-2.1376,-2.1928,-2.2555,-2.3065,-2.3078,-2.3125,-2.3245,-2.3138,-2.2689,-2.1916,-2.1741,-2.1175,-2.0226,-1.9497,-1.91,-1.8911,-1.7745,-1.707,-1.6862,-1.6158,-1.5816,-1.5596,-1.5029,-1.4673,-1.4386,-0.9311,-0.9165,-0.9013,-0.9013,-0.8856,-0.8703,-0.8703,-0.8703,-0.8703,-0.8703,-0.8703,-0.8703,-0.8703,-0.8703,-0.8703,-0.8703,-0.8703,-0.8703,-0.8703,-0.8703,-0.8703,-0.8703,-0.9463,-1.0067,-1.0519,-1.126,-1.2077,-1.2826,-1.2826,-1.3046,-1.3492,-1.4065,-1.4633,-1.5275,-1.6515,-1.7413,-1.8037,-1.8798,-1.9264,-1.9649,-2.0677,-2.1313,-2.1678,-2.2689,-2.3078,-2.3078,-2.3078,-2.3078,-2.3078,-2.3078,-2.3078,-2.3078,-2.3078,-2.2871,-2.2555,-2.2555,-2.2616,-2.2555,-2.2125,-2.1815,-2.1302,-2.0355,-1.9846,-1.9452,-1.9198,-1.9075,-1.9075,-1.9075,-1.9075,-1.9075,-1.9075,-1.9075,-1.9075,-1.9075,-1.9075,-1.9075,-1.9075,-1.9075,-1.9075,-1.9075,-1.9075,-1.9075,-1.9075,-1.9075,-1.9075,-1.9075,-1.9075,-1.9264,-1.9518,-1.9584,-1.9846,-2.0549,-2.1239,-2.169,-2.2002,-2.2002,-2.2002,-2.2002,-2.1916,-2.1604,-2.1037,-2.059,-2.0085,-1.9441,-1.8787,-1.825,-1.7823,-1.7139,-1.6437,-1.5587,-1.5242,-1.4895,-1.4482,-1.4122,-1.3753,-1.3237,-0.9846,-0.962,-0.9397,-0.9322,-0.9013,-0.878,-0.8703,-0.8703,-0.8703,-0.8703,-0.8703,-0.8703,-0.8703,-0.8703,-0.8703,-0.8703,-0.8703,-0.8703,-0.8703,-0.8703,-0.8703,-0.8703,-0.9311,-0.9992,-1.0812,-1.0812,-1.1186,-1.2003,-1.2003,-1.2452,-1.3273,-1.3492,-1.4137,-1.5062,-1.6026,-1.6922,-1.7755,-1.8519,-1.8931,-1.9198,-2.0549,-2.1123,-2.125,-2.2567,-2.3078,-2.3078,-2.3078,-2.3005,-2.2884,-2.2884,-2.2763,-2.2641,-2.2641,-2.2249,-2.1865,-2.1865,-2.2249,-2.2384,-2.1187,-2.0869,-2.0677,-2.0042,-1.9452,-1.9075,-1.9075,-1.9075,-1.9075,-1.9075,-1.9075,-1.9075,-1.9075,-1.9075,-1.9075,-1.9075,-1.9075,-1.9075,-1.9075,-1.9075,-1.9075,-1.9075,-1.9075,-1.9075,-1.9075,-1.9075,-1.9075,-1.9075,-1.9075,-1.9075,-1.9075,-1.9075,-1.933,-1.9846,-2.0677,-2.1123,-2.1123,-2.106,-2.1049,-2.1049,-2.0835,-2.0568,-2.0268,-1.9628,-1.911,-1.8721,-1.8056,-1.7432,-1.6862,-1.6515,-1.5666,-1.4601,-1.4394,-1.3977,-1.3499,-1.3273,-1.282,-1.2231,-0.9771,-0.9846,-0.9771,-0.9397,-0.9246,-0.917,-0.878,-0.8703,-0.8703,-0.8703,-0.8703,-0.8703,-0.8703,-0.8703,-0.8703,-0.8703,-0.8703,-0.8703,-0.8703,-0.8703,-0.8703,-0.8703,-0.878,-0.916,-0.9997,-0.9992,-1.0368,-1.1186,-1.1186,-1.1706,-1.2673,-1.2879,-1.3535,-1.4497,-1.5409,-1.6245,-1.7001,-1.7765,-1.8452,-1.9198,-2.0549,-2.1123,-2.125,-2.2567,-2.3078,-2.3078,-2.3078,-2.2689,-2.2175,-2.2175,-2.1741,-2.125,-2.125,-2.1187,-2.1187,-2.1187,-2.1187,-2.106,-2.0355,-2.0161,-2.0031,-1.933,-1.9131,-1.9075,-1.9075,-1.9075,-1.9075,-1.9075,-1.9075,-1.9075,-1.9075,-1.9075,-1.9075,-1.9075,-1.9075,-1.9075,-1.9075,-1.9075,-1.9075,-1.9075,-1.9075,-1.9075,-1.9075,-1.9075,-1.9075,-1.9075,-1.9075,-1.9075,-1.9075,-1.9075,-1.9131,-1.9198,-2.042,-2.1123,-2.1123,-2.0899,-2.0824,-2.0824,-2.0707,-2.0204,-1.9365,-1.9299,-1.8854,-1.8008,-1.7285,-1.6941,-1.6793,-1.5384,-1.4673,-1.4537,-1.384,-1.3564,-1.3419,-1.2673,-1.2378,-1.2077,-0.9084,-0.8927,-0.877,-0.8546,-0.8322,-0.8097,-0.7791,-0.7791,-0.7714,-0.7629,-0.7553,-0.7706,-0.8089,-0.8165,-0.8318,-0.8703,-0.8703,-0.8703,-0.8703,-0.8703,-0.8703,-0.8703,-0.8703,-0.8851,-0.916,-0.916,-0.9539,-1.0368,-1.0588,-1.1335,-1.2599,-1.3039,-1.3695,-1.4425,-1.5824,-1.6655,-1.7001,-1.8172,-1.8865,-1.9198,-2.0549,-2.0869,-2.0613,-2.199,-2.2249,-2.1877,-2.1877,-2.169,-2.1502,-2.1502,-2.1313,-2.1123,-2.1123,-2.0805,-2.042,-1.9966,-1.9846,-1.9781,-1.9528,-1.9781,-1.9977,-1.9264,-1.9075,-1.9075,-1.9075,-1.9075,-1.9075,-1.9075,-1.9075,-1.9075,-1.9075,-1.9075,-1.9075,-1.9075,-1.9075,-1.9075,-1.9075,-1.9075,-1.9075,-1.9075,-1.9075,-1.9075,-1.9075,-1.9075,-1.9075,-1.9075,-1.9075,-1.9075,-1.9075,-1.9075,-1.9075,-1.8942,-1.9396,-1.9649,-1.9649,-1.9573,-1.9497,-1.9375,-1.9243,-1.8767,-1.7949,-1.7881,-1.7335,-1.6594,-1.6306,-1.5877,-1.5446,-1.4816,-1.433,-1.384,-1.3039,-1.2753,-1.2673,-1.1855,-1.126,-1.0738,-0.8623,-0.847,-0.8237,-0.8161,-0.7859,-0.7557,-0.7257,-0.7184,-0.7103,-0.6942,-0.6865,-0.7092,-0.7706,-0.7783,-0.8089,-0.8856,-0.878,-0.878,-0.8856,-0.878,-0.8703,-0.8703,-0.8703,-0.8703,-0.8703,-0.8703,-0.9008,-0.9695,-0.9992,-1.0812,-1.2224,-1.282,-1.3477,-1.4274,-1.5613,-1.6446,-1.7001,-1.7969,-1.8654,-1.9198,-2.0355,-2.0484,-2.0226,-2.1365,-2.1491,-2.1123,-2.1123,-2.0933,-2.0805,-2.0805,-2.0677,-2.0484,-2.0484,-2.0161,-1.9715,-1.9198,-1.9075,-1.9075,-1.9075,-1.9452,-1.9649,-1.9198,-1.9075,-1.9075,-1.9075,-1.9075,-1.9075,-1.9075,-1.9075,-1.9075,-1.9075,-1.9075,-1.9075,-1.9075,-1.9075,-1.9075,-1.9075,-1.9075,-1.9075,-1.9075,-1.9075,-1.8998,-1.8798,-1.8931,-1.8931,-1.8452,-1.8654,-1.8654,-1.8452,-1.8385,-1.8317,-1.8104,-1.8104,-1.8037,-1.7901,-1.8182,-1.8114,-1.7696,-1.7569,-1.7217,-1.6655,-1.6585,-1.6237,-1.5675,-1.5463,-1.51,-1.4601,-1.433,-1.3833,-1.3046,-1.2526,-1.215,-1.1855,-1.1037,-1.0368,-0.9846,-0.8546,-0.8699,-0.8546,-0.8161,-0.808,-0.7855,-0.7257,-0.718,-0.7103,-0.6942,-0.6861,-0.7092,-0.7706,-0.7783,-0.8169,-0.9246,-0.8937,-0.8856,-0.9246,-0.8932,-0.8703,-0.8703,-0.8703,-0.8703,-0.8703,-0.8703,-0.8937,-0.9322,-0.9322,-0.9992,-1.1409,-1.2057,-1.2865,-1.3833,-1.4346,-1.5471,-1.6932,-1.6941,-1.7755,-1.9131,-1.9846,-2.0096,-2.0161,-2.0869,-2.106,-2.106,-2.106,-2.0677,-2.0107,-2.0107,-1.9649,-1.9075,-1.9075,-1.9075,-1.9075,-1.9075,-1.9075,-1.9075,-1.9075,-1.9075,-1.9075,-1.9075,-1.9075,-1.9075,-1.9075,-1.9075,-1.9075,-1.9075,-1.9075,-1.9075,-1.9075,-1.9075,-1.9075,-1.9075,-1.9075,-1.9075,-1.9065,-1.9065,-1.9075,-1.9065,-1.9065,-1.8798,-1.8037,-1.8654,-1.8452,-1.7001,-1.755,-1.7687,-1.6932,-1.6932,-1.6784,-1.6636,-1.6636,-1.6419,-1.6,-1.6715,-1.6715,-1.6,-1.5807,-1.5675,-1.5675,-1.5675,-1.5675,-1.5675,-1.4887,-1.4601,-1.4537,-1.3775,-1.3046,-1.2298,-1.2305,-1.1781,-1.0962,-1.0218,-0.9916,-0.9765,-0.6949,-0.7026,-0.6949,-0.6872,-0.6868,-0.6714,-0.6328,-0.6251,-0.6251,-0.6018,-0.6022,-0.6251,-0.6868,-0.7476,-0.8089,-0.878,-0.9311,-0.9614,-0.9695,-0.9316,-0.9241,-0.9539,-0.9003,-0.8703,-0.8703,-0.9013,-0.917,-0.9322,-0.9846,-1.0594,-1.1409,-1.2298,-1.3105,-1.3833,-1.4974,-1.5965,-1.6932,-1.7413,-1.824,-1.9131,-1.9846,-1.9846,-1.9452,-2.0161,-2.0107,-1.9715,-1.9715,-1.9584,-1.9396,-1.9396,-1.9264,-1.9075,-1.9075,-1.9075,-1.9075,-1.9075,-1.9075,-1.9075,-1.9075,-1.9075,-1.9075,-1.9075,-1.9075,-1.9075,-1.9075,-1.9075,-1.9075,-1.9075,-1.9075,-1.9075,-1.9075,-1.9075,-1.9075,-1.9075,-1.9075,-1.8931,-1.8375,-1.8307,-1.8104,-1.7619,-1.755,-1.7482,-1.7276,-1.7413,-1.7345,-1.6932,-1.707,-1.706,-1.6706,-1.6706,-1.6498,-1.6219,-1.621,-1.5799,-1.5029,-1.5869,-1.6158,-1.5807,-1.5745,-1.5455,-1.4958,-1.4958,-1.4681,-1.4129,-1.3912,-1.3542,-1.2952,-1.2739,-1.215,-1.1409,-1.0812,-1.0443,-1.0143,-0.8846,-0.8394,-0.8318,-0.6338,-0.6338,-0.6338,-0.6338,-0.6338,-0.618,-0.5941,-0.5864,-0.5864,-0.5637,-0.5637,-0.587,-0.6563,-0.7326,-0.8084,-0.8851,-0.9685,-1.0067,-0.9922,-0.9695,-0.962,-0.9916,-0.9463,-0.916,-0.916,-0.9392,-0.962,-0.9771,-1.0293,-1.0738,-1.1335,-1.2378,-1.3112,-1.347,-1.4768,-1.5895,-1.6932,-1.7345,-1.8172,-1.9142,-1.9518,-1.9462,-1.9131,-1.9518,-1.9452,-1.9075,-1.9075,-1.9075,-1.9075,-1.9075,-1.9075,-1.9075,-1.9075,-1.9075,-1.9075,-1.9075,-1.9075,-1.9075,-1.9075,-1.9075,-1.9075,-1.9075,-1.9075,-1.9075,-1.9075,-1.9075,-1.9075,-1.9075,-1.9075,-1.9075,-1.9075,-1.9075,-1.8998,-1.8721,-1.8654,-1.8385,-1.7687,-1.755,-1.7413,-1.6932,-1.6932,-1.6793,-1.6524,-1.6724,-1.6802,-1.6524,-1.6105,-1.5886,-1.5737,-1.5666,-1.5455,-1.5108,-1.5108,-1.4824,-1.4186,-1.4752,-1.4966,-1.4832,-1.4832,-1.4617,-1.4186,-1.4186,-1.376,-1.3046,-1.3046,-1.2599,-1.1855,-1.1855,-1.1335,-1.0513,-0.983,-0.9377,-0.8927,-0.7855,-0.7476,-0.7399,-0.6338,-0.6338,-0.6338,-0.6338,-0.6338,-0.618,-0.5941,-0.5941,-0.5864,-0.5715,-0.5637,-0.587,-0.6486,-0.7326,-0.8161,-0.9074,-0.9906,-1.0218,-0.9916,-0.9765,-0.9771,-0.9922,-0.9846,-0.9846,-0.9922,-0.9922,-1.0143,-1.0513,-1.0519,-1.0738,-1.1111,-1.2305,-1.29,-1.2973,-1.4057,-1.5471,-1.6932,-1.6932,-1.7765,-1.9075,-1.9075,-1.9075,-1.9075,-1.9075,-1.9075,-1.9075,-1.9075,-1.9075,-1.9075,-1.9075,-1.9075,-1.9075,-1.9075,-1.9075,-1.9075,-1.9075,-1.9075,-1.9075,-1.9075,-1.9075,-1.9075,-1.9075,-1.9075,-1.9075,-1.9075,-1.9075,-1.9075,-1.9075,-1.9075,-1.9075,-1.9075,-1.9065,-1.8787,-1.8104,-1.7969,-1.7619,-1.6941,-1.6793,-1.6802,-1.6724,-1.6655,-1.6446,-1.5762,-1.6315,-1.6376,-1.5762,-1.4848,-1.4361,-1.4361,-1.4209,-1.3992,-1.379,-1.379,-1.3717,-1.3492,-1.3419,-1.3419,-1.3492,-1.3492,-1.3492,-1.3419,-1.3419,-1.2973,-1.2157,-1.2157,-1.1706,-1.0962,-1.0962,-1.0513,-0.969,-0.9135,-0.838,-0.7629,-0.7015,-0.6788,-0.6788,-0.6338,-0.6338,-0.6338,-0.6338,-0.6338,-0.6261,-0.6257,-0.618,-0.6183,-0.6183,-0.6183,-0.6183,-0.6335,-0.7099,-0.7633,-0.7863,-0.8623,-0.9311,-0.9846,-0.9003,-0.8922,-0.9846,-0.9609,-0.9609,-0.9922,-1.0218,-1.0443,-1.0513,-1.0812,-1.1037,-1.1111,-1.2305,-1.29,-1.2973,-1.4057,-1.5471,-1.6932,-1.6932,-1.7765,-1.9075,-1.9075,-1.9075,-1.9075,-1.9075,-1.9075,-1.9075,-1.9075,-1.9075,-1.9075,-1.9075,-1.9075,-1.9075,-1.9075,-1.9075,-1.9075,-1.9075,-1.9075,-1.9075,-1.9075,-1.9075,-1.9075,-1.9075,-1.9075,-1.9075,-1.9075,-1.9075,-1.9075,-1.9075,-1.9075,-1.9075,-1.9075,-1.8654,-1.8172,-1.8037,-1.755,-1.6862,-1.6105,-1.6035,-1.5833,-1.5196,-1.5125,-1.5054,-1.4848,-1.4991,-1.4991,-1.4713,-1.4497,-1.4289,-1.3935,-1.3863,-1.379,-1.3572,-1.3572,-1.3572,-1.3492,-1.29,-1.29,-1.3492,-1.3492,-1.3193,-1.2526,-1.2526,-1.215,-1.1335,-1.1335,-1.0887,-1.0143,-1.0143,-0.9382,-0.8241,-0.8084,-0.7702,-0.7015,-0.6325,-0.6093,-0.6015,-0.6338,-0.6338,-0.6338,-0.6338,-0.6338,-0.6338,-0.6338,-0.6338,-0.6338,-0.6338,-0.6338,-0.6338,-0.6338,-0.7026,-0.7633,-0.8016,-0.8475,-0.8856,-0.9311,-0.8775,-0.8851,-0.9841,-0.9685,-0.969,-0.9922,-1.0143,-1.0363,-1.0812,-1.1037,-1.1111,-1.1111,-1.2305,-1.29,-1.2973,-1.4057,-1.5471,-1.6932,-1.6932,-1.7765,-1.9075,-1.9075,-1.9075,-1.9075,-1.9075,-1.9075,-1.9075,-1.9075,-1.9075,-1.9075,-1.9075,-1.9075,-1.9075,-1.9075,-1.9075,-1.9075,-1.9075,-1.9075,-1.9075,-1.9075,-1.9075,-1.9075,-1.9075,-1.8865,-1.8586,-1.8586,-1.8586,-1.8452,-1.8104,-1.8037,-1.8037,-1.8037,-1.7755,-1.7345,-1.7001,-1.6664,-1.6105,-1.5338,-1.5204,-1.5062,-1.4641,-1.4569,-1.4569,-1.4569,-1.4569,-1.4353,-1.3833,-1.3622,-1.3251,-1.2659,-1.2592,-1.2452,-1.2378,-1.2378,-1.2378,-1.2378,-1.1929,-1.1929,-1.2378,-1.2378,-1.2157,-1.1706,-1.1706,-1.126,-1.0513,-1.0196,-0.9674,-0.8851,-0.8623,-0.8012,-0.7322,-0.7015,-0.6707,-0.6325,-0.5709,-0.5517,-0.5498,-0.6338,-0.6338,-0.6338,-0.6338,-0.6338,-0.6338,-0.6338,-0.6338,-0.6338,-0.6338,-0.6338,-0.6338,-0.6338,-0.6872,-0.7557,-0.8246,-0.8322,-0.8322,-0.847,-0.8394,-0.8623,-0.9463,-0.9614,-0.969,-0.969,-0.9992,-1.0368,-1.0887,-1.0887,-1.0962,-1.1111,-1.2305,-1.29,-1.2973,-1.4057,-1.5409,-1.6724,-1.6862,-1.7696,-1.8931,-1.9065,-1.9075,-1.9075,-1.9075,-1.9075,-1.9075,-1.9075,-1.9075,-1.9075,-1.9075,-1.9075,-1.9065,-1.8931,-1.8931,-1.8865,-1.8787,-1.8721,-1.8721,-1.8721,-1.8721,-1.8721,-1.8721,-1.824,-1.7765,-1.7619,-1.7687,-1.7628,-1.7001,-1.6932,-1.6932,-1.6932,-1.6802,-1.6524,-1.5903,-1.5692,-1.5338,-1.4705,-1.4569,-1.4569,-1.4569,-1.4569,-1.4569,-1.4346,-1.4274,-1.3833,-1.2938,-1.2586,-1.2063,-1.1385,-1.1174,-1.1111,-1.1111,-1.1111,-1.1111,-1.1111,-1.0962,-1.0887,-1.0887,-1.0738,-1.0738,-1.0887,-1.0887,-1.0363,-0.9539,-0.8988,-0.838,-0.7629,-0.7092,-0.6861,-0.671,-0.6093,-0.5876,-0.5746,-0.5224,-0.5137,-0.5233,-0.6338,-0.6338,-0.6338,-0.6338,-0.6338,-0.6338,-0.6338,-0.6338,-0.6338,-0.6338,-0.6338,-0.6338,-0.6338,-0.6416,-0.649,-0.6644,-0.6644,-0.6949,-0.7633,-0.7026,-0.6949,-0.7787,-0.847,-0.8856,-0.8856,-1.0207,-1.0663,-1.0067,-1.0067,-1.0443,-1.1111,-1.2305,-1.29,-1.2973,-1.4057,-1.5133,-1.5974,-1.6664,-1.7345,-1.8172,-1.8865,-1.9075,-1.9075,-1.9075,-1.9075,-1.9075,-1.9075,-1.9075,-1.9075,-1.9075,-1.9075,-1.8998,-1.8375,-1.8172,-1.8037,-1.7345,-1.7207,-1.7207,-1.7207,-1.7207,-1.7207,-1.7207,-1.7139,-1.6862,-1.6245,-1.6594,-1.7001,-1.6932,-1.6932,-1.6932,-1.6932,-1.6385,-1.5903,-1.5833,-1.5204,-1.4713,-1.4641,-1.4569,-1.4569,-1.4569,-1.4569,-1.4266,-1.3455,-1.3382,-1.2865,-1.1749,-1.1601,-1.1465,-1.118,-1.1111,-1.1111,-1.1111,-1.1111,-1.1111,-1.1111,-1.0443,-1.0067,-1.0067,-0.9382,-0.9382,-1.0067,-1.0067,-0.9306,-0.8089,-0.8008,-0.7625,-0.7015,-0.6938,-0.6556,-0.6015,-0.5938,-0.5623,-0.5336,-0.5363,-0.533,-0.5347,-0.6338,-0.6338,-0.6338,-0.6338,-0.6338,-0.6338,-0.6338,-0.6338,-0.6338,-0.6338,-0.6338,-0.6338,-0.6338,-0.6338,-0.6338,-0.6338,-0.6338,-0.6412,-0.6795,-0.6949,-0.733,-0.8169,-0.8932,-0.9387,-0.9387,-1.0067,-1.0293,-0.9922,-1.0368,-1.0738,-1.1111,-1.2305,-1.29,-1.2973,-1.4057,-1.5062,-1.5833,-1.6645,-1.7472,-1.8172,-1.8931,-1.9274,-1.9341,-1.9142,-1.9142,-1.9208,-1.9142,-1.9075,-1.9065,-1.8654,-1.8519,-1.8385,-1.7619,-1.7423,-1.7345,-1.7001,-1.6932,-1.6932,-1.6932,-1.6932,-1.6932,-1.6932,-1.6594,-1.6175,-1.5903,-1.5692,-1.5613,-1.5613,-1.5613,-1.5613,-1.5613,-1.5338,-1.5133,-1.5133,-1.4848,-1.4569,-1.4569,-1.4569,-1.4418,-1.3905,-1.3695,-1.3317,-1.2418,-1.2432,-1.2057,-1.0789,-1.0645,-1.0351,-0.9755,-0.9755,-0.9755,-0.9755,-0.9755,-0.9755,-0.9755,-0.9074,-0.8699,-0.8699,-0.8012,-0.8089,-0.8699,-0.8699,-0.8241,-0.7246,-0.6938,-0.6556,-0.6325,-0.5941,-0.5674,-0.5504,-0.5504,-0.5422,-0.5303,-0.5426,-0.5474,-0.5488]},{"header":{"parameterUnit":"m.s-1","parameterCategory":1,"la1":30.6,"la2":28.766,"lo1":-90.7593,"lo2":-88.6598,"dy":0.0162,"dx":0.0183,"nx":116,"ny":114,"refTime":"2023-08-12T06:00:00:Z","depth":0,"parameterNumber":3,"parameterNumberName":"V-component_of_WINDS"},"data":[0.0,0.0,0.0,0.0,0.0,0.0,0.0,0.0,0.0,0.0,0.0,0.0,0.0,0.0,0.0,0.0,0.0,0.0,0.0,0.0,0.0,0.0,0.0,0.0,0.0,0.0,0.0,0.0,0.0,0.0,0.0,0.0,0.0,0.0,0.0,0.0,0.0,0.0,0.0,0.0,0.0,0.0,0.0,0.0,0.0,0.0,0.0,0.0,0.0,0.0,0.0,0.0,0.0,0.0,0.0,0.0,0.0,0.0,0.0,0.0,0.0,0.0,0.0,0.0,0.0,0.0,0.0,0.0,0.0,0.0,0.0,0.0,0.0,0.0,0.0,0.0,0.0,0.0,0.0,0.0,0.0,0.0,0.0,0.0,0.0,0.0,0.0,0.0,0.0,0.0,0.0,0.0,0.0,0.0,0.0,0.0,0.0,0.0,0.0,0.0,0.0,0.0,0.0,0.0,0.0,0.0,0.0,0.0,0.0,0.0,0.0,0.0,0.0,0.0,0.0,0.0,0.0,0.0,0.0,0.0,0.0,0.0,0.0,0.0,0.0,0.0,0.0,0.0,0.0,0.0,0.0,0.0,0.0,0.0,0.0,0.0,0.0,0.0,0.0,0.0,0.0,0.0,0.0,0.0,0.0,0.0,0.0,0.0,0.0,0.0,0.0,0.0,0.0,0.0,0.0,0.0,0.0,0.0,0.0,0.0,0.0,0.0,0.0,0.0,0.0,0.0,0.0,0.0,0.0,0.0,0.0,0.0,0.0,0.0,0.0,0.0,0.0,0.0,0.0,0.0,0.0,0.0,0.0,0.0,0.0,0.0,0.0,0.0,0.0,0.0,0.0,0.0,0.0,0.0,0.0,0.0,0.0,0.0,0.0,0.0,0.0,0.0,0.0,0.0,0.0,0.0,0.0,0.0,0.0,0.0,0.0,0.0,0.0,0.0,0.0,0.0,0.0,0.0,0.0,0.0,0.0,0.0,0.0,0.0,0.0,0.0,0.0,0.0,0.0,0.0,0.0,0.0,0.0,0.0,0.0,0.0,0.0,0.0,0.0,0.0,0.0,0.0,0.0,0.0,0.0,0.0,0.0,0.0,0.0,0.0,0.0,0.0,0.0,0.0,0.0,0.0,0.0,0.0,0.0,0.0,0.0,0.0,0.0,0.0,0.0,0.0,0.0,0.0,0.0,0.0,0.0,0.0,0.0,0.0,0.0,0.0,0.0,0.0,0.0,0.0,0.0,0.0,0.0,0.0,0.0,0.0,0.0,0.0,0.0,0.0,0.0,0.0,0.0,0.0,0.0,0.0,0.0,0.0,0.0,0.0,0.0,0.0,0.0,0.0,0.0,0.0,0.0,0.0,0.0,0.0,0.0,0.0,0.0,0.0,0.0,0.0,0.0,0.0,0.0,0.0,0.0,0.0,0.0,0.0,0.0,0.0,0.0,0.0,0.0,0.0,0.0,0.0,0.0,0.0,0.0,0.0,0.0,0.0,0.0,0.0,0.0,0.0,0.0,0.0,0.0,0.0,0.0,0.0,0.0,0.0,0.0,0.0,0.0,0.0,0.0,0.0,0.0,0.0,0.0,0.0,0.0,0.0,0.0,0.0,0.0,0.0,0.0,0.0,0.0,0.0,0.0,0.0,0.0,0.0,0.0,0.0,0.0,0.0,0.0,0.0,0.0,0.0,0.0,0.0,0.0,0.0,0.0,0.0,0.0,0.0,0.0,0.0,0.0,0.0,0.0,0.0,0.0,0.0,0.0,0.0,0.0,0.0,0.0,0.0,0.0,0.0,0.0,0.0,0.0,0.0,0.0,0.0,0.0,0.0,0.0,0.0,0.0,0.0,0.0,0.0,0.0,0.0,0.0,0.0,0.0,0.0,0.0,0.0,0.0,0.0,0.0,0.0,0.0,0.0,0.0,0.0,0.0,0.0,0.0,0.0,0.0,0.0,0.0,0.0,0.0,0.0,0.0,0.0,0.0,0.0,0.0,0.0,0.0,0.0,0.0,0.0,0.0,0.0,0.0,0.0,0.0,0.0,0.0,0.0,0.0,0.0,0.0,0.0,0.0,0.0,0.0,0.0,0.0,0.0,0.0,0.0,0.0,0.0,0.0,0.0,0.0,0.0,0.0,0.0,0.0,0.0,0.0,0.0,0.0,0.0,0.0,0.0,0.0,0.0,0.0,0.0,0.0,0.0,0.0,0.0,0.0,0.0,0.0,0.0,0.0,0.0,0.0,0.0,0.0,0.0,0.0,0.0,0.0,0.0,0.0,0.0,0.0,0.0,0.0,0.0,0.0,0.0,0.0,0.0,0.0,0.0,0.0,0.0,0.0,0.0,0.0,0.0,0.0,0.0,0.0,0.0,0.0,0.0,0.0,0.0,0.0,0.0,0.0,0.0,0.0,0.0,0.0,0.0,0.0,0.0,0.0,0.0,0.0,0.0,0.0,0.0,0.0,0.0,0.0,0.0,0.0,0.0,0.0,0.0,0.0,0.0,0.0,0.0,0.0,0.0,0.0,0.0,0.0,0.0,0.0,0.0,0.0,0.0,0.0,0.0,0.0,0.0,0.0,0.0,0.0,0.0,0.0,0.0,0.0,0.0,0.0,0.0,0.0,0.0,0.0,0.0,0.0,0.0,0.0,0.0,0.0,0.0,0.0,0.0,0.0,0.0,0.0,0.0,0.0,0.0,0.0,0.0,0.0,0.0,0.0,0.0,0.0,0.0,0.0,0.0,0.0,0.0,0.0,0.0,0.0,0.0,0.0,0.0,0.0,0.0,0.0,0.0,0.0,0.0,0.0,0.0,0.0,0.0,0.0,0.0,0.0,0.0,0.0,0.0,0.0,0.0,0.0,0.0,0.0,0.0,0.0,0.0,0.0,0.0,0.0,0.0,0.0,0.0,0.0,0.0,0.0,0.0,0.0,0.0,0.0,0.0,0.0,0.0,0.0,0.0,0.0,0.0,0.0,0.0,0.0,0.0,0.0,0.0,0.0,0.0,0.0,0.0,0.0,0.0,0.0,0.0,0.0,0.0,0.0,0.0,0.0,0.0,0.0,0.0,0.0,0.0,0.0,0.0,0.0,0.0,0.0,0.0,0.0,0.0,0.0,0.0,0.0,0.0,0.0,0.0,0.0,0.0,0.0,0.0,0.0,0.0,0.0,0.0,0.0,0.0,0.0,0.0,0.0,0.0,0.0,0.0,0.0,0.0,0.0,0.0,0.0,0.0,0.0,0.0,0.0,0.0,0.0,0.0,0.0,0.0,0.0,0.0,0.0,0.0,0.0,0.0,0.0,0.0,0.0,0.0,0.0,0.0,0.0,0.0,0.0,0.0,0.0,0.0,0.0,0.0,0.0,0.0,0.0,0.0,0.0,0.0,0.0,0.0,0.0,0.0,0.0,0.0,0.0,0.0,0.0,0.0,0.0,0.0,0.0,0.0,0.0,0.0,0.0,0.0,0.0,0.0,0.0,0.0,0.0,0.0,0.0,0.0,0.0,0.0,0.0,0.0,0.0,0.0,0.0,0.0,0.0,0.0,0.0,0.0,0.0,0.0,0.0,0.0,0.0,0.0,0.0,0.0,0.0,0.0,0.0,0.0,0.0,0.0,0.0,0.0,0.0,0.0,0.0,0.0,0.0,0.0,0.0,0.0,0.0,0.0,0.0,0.0,0.0,0.0,0.0,0.0,0.0,0.0,0.0,0.0,0.0,0.0,0.0,0.0,0.0,0.0,0.0,0.0,0.0,0.0,0.0,0.0,0.0,0.0,0.0,0.0,0.0,0.0,0.0,0.0,0.0,0.0,0.0,0.0,0.0,0.0,0.0,0.0,0.0,0.0,0.0,0.0,0.0,0.0,0.0,0.0,0.0,0.0,0.0,0.0,0.0,0.0,0.0,0.0,0.0,0.0,0.0,0.0,0.0,0.0,0.0,0.0,0.0,0.0,0.0,0.0,0.0,0.0,0.0,0.0,0.0,0.0,0.0,0.0,0.0,0.0,0.0,0.0,0.0,0.0,0.0,0.0,0.0,0.0,0.0,0.0,0.0,0.0,0.0,0.0,0.0,0.0,0.0,0.0,0.0,0.0,0.0,0.0,0.0,0.0,0.0,0.0,0.0,0.0,0.0,0.0,0.0,0.0,0.0,0.0,0.0,0.0,0.0,0.0,0.0,0.0,0.0,0.0,0.0,0.0,0.0,0.0,0.0,0.0,0.0,0.0,0.0,0.0,0.0,0.0,0.0,0.0,0.0,0.0,0.0,0.0,0.0,0.0,0.0,0.0,0.0,0.0,0.0,0.0,0.0,0.0,0.0,0.0,0.0,0.0,0.0,0.0,0.0,0.0,0.0,0.0,0.0,0.0,0.0,0.0,0.0,0.0,0.0,0.0,0.0,0.0,0.0,0.0,0.0,0.0,0.0,0.0,0.0,0.0,0.0,0.0,0.0,0.0,0.0,0.0,0.0,0.0,0.0,0.0,0.0,0.0,0.0,0.0,0.0,0.0,0.0,0.0,0.0,0.0,0.0,0.0,0.0,0.0,0.0,0.0,0.0,0.0,0.0,0.0,0.0,0.0,0.0,0.0,0.0,0.0,0.0,0.0,0.0,0.0,0.0,0.0,0.0,0.0,0.0,0.0,0.0,0.0,0.0,0.0,0.0,0.0,0.0,0.0,0.0,0.0,0.0,0.0,0.0,0.0,0.0,0.0,0.0,0.0,0.0,0.0,0.0,0.0,0.0,0.0,0.0,0.0,0.0,0.0,0.0,0.0,0.0,0.0,0.0,0.0,0.0,0.0,0.0,0.0,0.0,0.0,0.0,0.0,0.0,0.0,0.0,0.0,0.0,0.0,0.0,0.0,0.0,0.0,0.0,0.0,0.0,0.0,0.0,0.0,0.0,0.0,0.0,0.0,0.0,0.0,0.0,0.0,0.0,0.0,0.0,0.0,0.0,0.0,0.0,0.0,0.0,0.0,0.0,0.0,0.0,0.0,0.0,0.0,0.0,0.0,0.0,0.0,0.0,0.0,0.0,0.0,0.0,0.0,0.0,0.0,0.0,0.0,0.0,0.0,0.0,0.0,0.0,0.0,0.0,0.0,0.0,0.0,0.0,0.0,0.0,0.0,0.0,0.0,0.0,0.0,0.0,0.0,0.0,0.0,0.0,0.0,0.0,0.0,0.0,0.0,0.0,0.0,0.0,0.0,0.0,0.0,0.0,0.0,0.0,0.0,0.0,0.0,0.0,0.0,0.0,0.0,0.0,0.0,0.0,0.0,0.0,0.0,0.0,0.0,0.0,0.0,0.0,0.0,0.0,0.0,0.0,0.0,0.0,0.0,0.0,0.0,0.0,0.0,0.0,0.0,0.0,0.0,0.0,0.0,0.0,0.0,0.0,0.0,0.0,0.0,0.0,0.0,0.0,0.0,0.0,0.0,0.0,0.0,0.0,0.0,0.0,0.0,0.0,0.0,0.0,0.0,0.0,0.0,0.0,0.0,0.0,0.0,0.0,0.0,0.0,0.0,0.0,0.0,0.0,0.0,0.0,0.0,0.0,0.0,0.0,0.0,0.0,0.0,0.0,0.0,0.0,0.0,0.0,0.0,0.0,0.0,0.0,0.0,0.0,0.0,0.0,0.0,0.0,0.0,0.0,0.0,0.0,0.0,0.0,0.0,0.0,0.0,0.0,0.0,0.0,0.0,0.0,0.0,0.0,0.0,0.0,0.0,0.0,0.0,0.0,0.0,0.0,0.0,0.0,0.0,0.0,0.0,0.0,0.0,0.0,0.0,0.0,0.0,0.0,0.0,0.0,0.0,0.0,0.0,0.0,0.0,0.0,0.0,0.0,0.0,0.0,0.0,0.0,0.0,0.0,0.0,0.0,0.0,0.0,0.0,0.0,0.0,0.0,0.0,0.0,0.0,0.0,0.0,0.0,0.0,0.0,0.0,0.0,0.0,0.0,0.0,0.0,0.0,0.0,0.0,0.0,0.0,0.0,0.0,0.0,0.0,0.0,0.0,0.0,0.0,0.0,0.0,0.0,0.0,0.0,0.0,0.0,0.0,0.0,0.0,0.0,0.0,0.0,0.0,0.0,0.0,-2.7416,-2.7753,0.0,0.0,0.0,0.0,0.0,0.0,0.0,0.0,0.0,0.0,0.0,0.0,0.0,0.0,0.0,0.0,0.0,0.0,0.0,0.0,0.0,0.0,0.0,0.0,0.0,0.0,0.0,0.0,0.0,0.0,0.0,0.0,0.0,0.0,0.0,0.0,0.0,0.0,0.0,0.0,0.0,0.0,0.0,0.0,0.0,0.0,0.0,0.0,0.0,0.0,0.0,0.0,0.0,0.0,0.0,0.0,0.0,0.0,0.0,0.0,0.0,0.0,0.0,0.0,0.0,0.0,0.0,0.0,0.0,0.0,0.0,0.0,0.0,0.0,0.0,0.0,0.0,0.0,0.0,0.0,0.0,0.0,0.0,0.0,0.0,0.0,0.0,0.0,0.0,0.0,0.0,0.0,0.0,0.0,0.0,0.0,0.0,0.0,0.0,0.0,0.0,0.0,0.0,0.0,0.0,0.0,0.0,0.0,0.0,0.0,0.0,0.0,0.0,0.0,-2.6198,-2.6582,0.0,0.0,0.0,0.0,0.0,0.0,0.0,0.0,0.0,0.0,0.0,0.0,0.0,0.0,0.0,0.0,0.0,0.0,0.0,0.0,0.0,0.0,0.0,0.0,0.0,0.0,0.0,0.0,0.0,0.0,0.0,0.0,0.0,0.0,0.0,0.0,0.0,0.0,0.0,0.0,0.0,0.0,0.0,0.0,0.0,0.0,0.0,0.0,0.0,0.0,0.0,0.0,0.0,0.0,0.0,0.0,0.0,0.0,0.0,0.0,0.0,0.0,0.0,0.0,0.0,0.0,0.0,0.0,0.0,0.0,0.0,0.0,0.0,0.0,0.0,0.0,0.0,0.0,0.0,0.0,0.0,0.0,0.0,0.0,0.0,0.0,0.0,0.0,0.0,0.0,0.0,0.0,0.0,0.0,0.0,0.0,0.0,0.0,0.0,0.0,0.0,0.0,0.0,0.0,0.0,0.0,0.0,0.0,-2.4278,-2.4397,-2.3931,-2.4281,-2.5135,-2.6074,-2.5172,-2.5394,-2.6299,-2.5424,0.0,0.0,0.0,0.0,0.0,0.0,0.0,0.0,0.0,0.0,0.0,0.0,0.0,0.0,0.0,0.0,0.0,0.0,0.0,0.0,0.0,0.0,0.0,0.0,0.0,0.0,0.0,0.0,0.0,0.0,0.0,0.0,0.0,0.0,0.0,0.0,0.0,0.0,-3.1909,-3.1968,-3.2345,-3.2967,-3.4109,0.0,0.0,0.0,0.0,0.0,0.0,0.0,0.0,0.0,0.0,0.0,0.0,0.0,0.0,0.0,0.0,0.0,0.0,0.0,0.0,0.0,0.0,0.0,0.0,0.0,0.0,0.0,0.0,0.0,0.0,0.0,0.0,0.0,0.0,0.0,0.0,0.0,0.0,0.0,0.0,0.0,0.0,0.0,-3.1637,-3.0343,0.0,0.0,0.0,0.0,0.0,0.0,0.0,0.0,0.0,0.0,0.0,0.0,0.0,-2.2647,-2.2647,-2.3106,-2.3286,-2.3277,-2.3348,-2.3763,-2.4255,-2.4426,-2.5329,-2.6721,-2.6562,0.0,-2.7776,-2.6661,0.0,0.0,0.0,0.0,0.0,0.0,0.0,0.0,0.0,0.0,0.0,0.0,0.0,0.0,0.0,0.0,0.0,0.0,0.0,0.0,0.0,0.0,0.0,0.0,0.0,0.0,0.0,0.0,0.0,0.0,0.0,0.0,0.0,0.0,0.0,0.0,-3.0773,-3.094,-3.1091,-3.2126,-3.2823,-3.3278,-3.4553,-3.5283,-3.5558,-3.6466,0.0,0.0,0.0,0.0,0.0,0.0,0.0,0.0,0.0,0.0,0.0,0.0,0.0,0.0,0.0,0.0,0.0,0.0,0.0,0.0,0.0,0.0,0.0,0.0,0.0,0.0,0.0,0.0,0.0,0.0,0.0,0.0,0.0,0.0,0.0,0.0,0.0,0.0,0.0,-3.1607,-3.051,-2.9079,-2.8583,-2.8012,0.0,0.0,0.0,0.0,0.0,0.0,0.0,0.0,0.0,-2.273,-2.2793,-2.2884,-2.2884,-2.353,-2.3773,-2.3577,-2.4027,-2.4551,-2.5115,-2.5196,-2.6154,-2.7741,-2.7416,-2.7763,-2.8424,-2.7236,-2.7135,-2.761,0.0,0.0,0.0,0.0,-2.6533,-2.6533,0.0,0.0,0.0,0.0,0.0,0.0,0.0,0.0,0.0,0.0,0.0,0.0,0.0,0.0,0.0,-3.3834,0.0,0.0,0.0,0.0,0.0,0.0,0.0,0.0,0.0,0.0,0.0,0.0,-3.0757,-3.0898,-3.0858,-3.2219,-3.3043,-3.338,-3.4793,-3.5608,-3.5898,-3.6417,-3.7188,0.0,0.0,0.0,0.0,0.0,0.0,0.0,0.0,0.0,0.0,0.0,0.0,0.0,0.0,0.0,0.0,0.0,0.0,0.0,0.0,0.0,0.0,0.0,0.0,0.0,0.0,0.0,0.0,0.0,0.0,0.0,0.0,0.0,0.0,0.0,0.0,0.0,0.0,-3.0807,-2.9856,-2.8505,-2.8117,-2.7617,0.0,0.0,0.0,0.0,0.0,0.0,-2.2961,-2.3328,-2.3275,-2.2677,-2.3122,-2.336,-2.336,-2.4002,-2.4235,-2.4043,-2.4823,-2.5398,-2.583,-2.6318,-2.7232,-2.8518,-2.8276,-2.8504,-2.9013,-2.7754,-2.7545,-2.7986,-2.698,-2.6966,-2.7444,-2.703,-2.6879,-2.6866,0.0,0.0,0.0,0.0,0.0,0.0,0.0,0.0,0.0,0.0,0.0,0.0,0.0,0.0,-3.3815,-3.3615,-3.2996,-3.2613,0.0,0.0,0.0,0.0,0.0,0.0,0.0,0.0,0.0,-3.0293,-3.0878,-3.1546,-3.2181,-3.2307,-3.273,-3.344,-3.4665,-3.5821,-3.6847,-3.6882,-3.7394,-3.8192,0.0,0.0,0.0,0.0,0.0,0.0,0.0,0.0,0.0,0.0,0.0,0.0,0.0,0.0,0.0,0.0,0.0,0.0,0.0,0.0,0.0,0.0,0.0,0.0,0.0,0.0,0.0,0.0,0.0,0.0,0.0,0.0,0.0,0.0,0.0,0.0,0.0,0.0,0.0,-2.9359,-2.8505,0.0,0.0,0.0,0.0,-2.4564,-2.4873,-2.4329,-2.2616,-2.2974,-2.3234,-2.3153,-2.3598,-2.3836,-2.3836,-2.426,-2.4478,-2.4509,-2.5389,-2.5797,-2.5819,-2.7557,-2.8383,-2.8542,-2.9341,-2.9741,-2.9666,-2.8487,-2.8024,-2.8097,-2.7999,-2.7986,-2.8059,-2.8034,-2.8021,-2.7946,0.0,0.0,0.0,0.0,0.0,0.0,0.0,0.0,0.0,0.0,0.0,0.0,0.0,-3.3606,-3.3321,-3.3014,-3.2634,-3.2196,-3.1662,0.0,0.0,0.0,0.0,0.0,0.0,0.0,-3.014,-2.9968,-3.0493,-3.0567,-3.0254,-3.1338,-3.1992,-3.2319,-3.3772,-3.4814,-3.5533,-3.6987,-3.7928,-3.8478,-3.8658,-3.8847,0.0,0.0,0.0,0.0,0.0,0.0,0.0,0.0,0.0,0.0,0.0,0.0,0.0,0.0,0.0,0.0,0.0,0.0,0.0,0.0,0.0,0.0,0.0,0.0,0.0,0.0,0.0,0.0,0.0,0.0,0.0,0.0,0.0,0.0,0.0,0.0,0.0,-2.8725,-2.8026,0.0,-2.7011,-2.6943,-2.622,-2.4564,-2.4583,-2.388,-2.2122,-2.249,-2.2739,-2.2739,-2.3194,-2.3432,-2.3432,-2.4048,-2.4356,-2.4356,-2.5544,-2.6416,-2.6964,-2.8056,-2.8791,-2.9378,-2.9702,-2.9578,-2.9202,-2.88,-2.885,-2.9151,-2.8787,-2.8637,-2.8586,-2.8235,-2.7883,-2.7557,0.0,0.0,0.0,0.0,0.0,0.0,0.0,0.0,0.0,0.0,0.0,-3.3986,-3.3643,-3.3339,-3.3001,-3.255,-3.2248,-3.175,-3.0971,0.0,0.0,0.0,0.0,0.0,0.0,-3.0123,-3.0038,-3.0054,-3.0182,-3.0097,-2.9837,-3.0803,-3.1358,-3.1681,-3.3166,-3.4104,-3.4657,-3.6681,-3.7809,-3.826,-3.8775,-3.9171,-3.9439,0.0,0.0,0.0,0.0,0.0,0.0,0.0,0.0,0.0,0.0,0.0,0.0,0.0,0.0,0.0,0.0,0.0,0.0,0.0,0.0,0.0,0.0,0.0,0.0,0.0,0.0,0.0,0.0,0.0,0.0,0.0,0.0,0.0,0.0,-3.0375,-2.9518,-2.8725,-2.8039,-2.7523,-2.7146,-2.7079,-2.6358,-2.4612,-2.4848,-2.4226,-2.2189,-2.2694,-2.3024,-2.2729,-2.3189,-2.3496,-2.3636,-2.432,-2.4692,-2.4915,-2.6035,-2.6907,-2.7533,-2.8215,-2.8872,-2.9366,-2.9366,-2.9139,-2.8785,-2.8785,-2.9012,-2.9315,-2.88,-2.8649,-2.8612,-2.8321,-2.7956,-2.7687,0.0,0.0,0.0,0.0,0.0,0.0,0.0,0.0,0.0,0.0,-3.4023,-3.3815,-3.3587,-3.3339,-3.2957,-3.2352,-3.1932,-3.1397,-3.0633,-3.0107,0.0,0.0,0.0,0.0,-3.0293,-2.9848,-2.9892,-3.0518,-3.0054,-3.0284,-3.1151,-3.074,-3.0931,-3.1748,-3.2966,-3.3835,-3.4467,-3.5955,-3.6887,-3.7445,-3.8554,-3.9133,-3.9364,0.0,0.0,0.0,0.0,0.0,0.0,0.0,0.0,0.0,0.0,0.0,0.0,0.0,0.0,0.0,0.0,0.0,0.0,0.0,0.0,0.0,0.0,0.0,0.0,0.0,0.0,0.0,0.0,0.0,0.0,0.0,0.0,0.0,-3.2437,-3.1276,-3.0147,-2.9421,-2.8675,-2.8039,-2.7403,-2.7335,-2.662,-2.4874,-2.5792,-2.5362,-2.2694,-2.3645,-2.396,-2.3223,-2.3545,-2.4072,-2.4569,-2.4971,-2.5489,-2.599,-2.6866,-2.7348,-2.7348,-2.8192,-2.8579,-2.8579,-2.8579,-2.8567,-2.8554,-2.8554,-2.8541,-2.8528,-2.823,-2.8109,-2.8109,-2.8341,-2.8413,-2.8312,0.0,0.0,0.0,0.0,0.0,0.0,0.0,0.0,0.0,0.0,-3.3807,-3.3587,-3.3339,-3.3147,-3.2752,-3.2073,-3.1932,-3.1473,-3.0368,0.0,0.0,0.0,0.0,0.0,-3.0293,-3.0251,-3.0335,-3.0518,-3.0393,-3.0267,-3.0182,-3.0657,-3.0982,-3.1253,-3.2641,-3.3442,-3.3771,-3.545,-3.6318,-3.6663,-3.8269,-3.9371,-4.0043,0.0,0.0,0.0,0.0,0.0,0.0,0.0,0.0,0.0,0.0,0.0,0.0,0.0,0.0,0.0,0.0,0.0,0.0,0.0,0.0,0.0,0.0,0.0,0.0,0.0,0.0,0.0,0.0,0.0,0.0,0.0,-3.3716,-3.2879,-3.1894,-3.0629,-2.969,-2.9456,-2.8403,-2.7656,-2.7469,-2.7469,-2.6824,-2.5252,-2.5679,-2.5254,-2.3516,-2.3671,-2.3749,-2.3652,-2.3383,-2.3448,-2.4003,-2.4692,-2.5336,-2.5899,-2.7101,-2.767,-2.7683,-2.8316,-2.8579,-2.8579,-2.8579,-2.8349,-2.8036,-2.8036,-2.7818,-2.748,-2.8201,-2.8448,-2.8448,-2.852,-2.8421,-2.8068,0.0,0.0,0.0,0.0,0.0,0.0,0.0,0.0,0.0,0.0,-3.3842,-3.368,-3.3578,-3.3327,-3.2943,-3.2366,-3.2109,-3.1585,-3.0543,0.0,0.0,0.0,0.0,-3.0664,-3.1133,-3.1016,-3.1055,-3.1266,-3.0881,-3.0807,-3.1009,-3.1302,-3.1671,-3.2234,-3.3078,-3.3666,-3.4148,-3.5135,-3.5916,-3.6584,-3.7646,-3.883,-3.9962,-3.9953,-4.021,-4.0556,-4.0546,-4.0552,-4.0546,-4.0583,0.0,0.0,0.0,0.0,0.0,0.0,0.0,0.0,0.0,0.0,0.0,0.0,0.0,0.0,0.0,0.0,0.0,0.0,0.0,0.0,0.0,0.0,0.0,0.0,-3.3783,-3.2879,-3.2007,-3.0999,-3.0133,-2.9566,-2.8826,-2.8143,-2.7523,-2.7523,-2.696,-2.5767,-2.6114,-2.5755,-2.4241,-2.4409,-2.442,-2.4169,-2.4047,-2.4192,-2.4755,-2.5417,-2.5988,-2.6539,-2.7293,-2.7666,-2.7679,-2.8014,-2.8156,-2.8156,-2.8156,-2.7976,-2.7666,-2.7666,-2.7485,-2.7278,0.0,0.0,0.0,0.0,-2.7963,-2.7845,0.0,0.0,0.0,0.0,0.0,0.0,0.0,0.0,0.0,0.0,0.0,-3.3972,-3.4099,-3.3698,-3.3309,-3.2979,-3.2431,-3.1789,0.0,0.0,0.0,-3.1433,-3.1631,-3.1934,-3.235,-3.1952,-3.1969,-3.2431,-3.16,-3.1725,-3.2786,-3.241,-3.2803,-3.3846,-3.3892,-3.432,-3.5008,-3.5021,-3.5699,-3.6718,-3.6737,-3.7812,-3.9384,-3.9466,-4.0017,-4.0749,-4.083,-4.0877,-4.0883,-4.0927,0.0,0.0,0.0,0.0,0.0,0.0,0.0,0.0,0.0,0.0,0.0,0.0,0.0,0.0,0.0,0.0,0.0,0.0,0.0,0.0,0.0,0.0,0.0,0.0,-3.363,-3.3039,-3.2547,-3.191,-3.1029,-2.9628,-2.9442,-2.8889,-2.7656,-2.7523,-2.7108,-2.6264,-2.6837,-2.662,-2.5028,-2.5533,0.0,0.0,0.0,-2.5627,-2.6195,-2.6496,-2.6985,-2.7523,-2.7523,-2.7523,-2.7523,-2.7523,-2.7523,-2.7523,-2.7523,-2.7523,-2.7523,-2.7523,-2.7523,-2.7469,-2.7146,-2.7079,-2.7079,-2.7268,-2.7469,-2.7723,0.0,0.0,0.0,0.0,0.0,0.0,0.0,0.0,0.0,-3.434,-3.4197,-3.4124,-3.4245,-3.3895,-3.356,-3.3386,-3.2942,-3.2398,0.0,0.0,-3.1948,-3.1899,-3.2276,-3.2588,-3.278,-3.2701,-3.2823,-3.3176,-3.3013,-3.3073,-3.3343,-3.3579,-3.3789,-3.3976,-3.4475,-3.4787,-3.5012,-3.5229,-3.5427,-3.5617,-3.5798,-3.6951,-3.8681,-3.9263,-3.961,-3.9852,-4.0448,-4.0664,-4.0664,-4.0662,-4.0718,-4.0769,-4.0812,0.0,0.0,0.0,0.0,0.0,0.0,0.0,0.0,0.0,0.0,0.0,0.0,0.0,0.0,0.0,0.0,0.0,0.0,0.0,0.0,-3.4835,-3.3885,-3.313,-3.3039,-3.216,-3.1029,-2.9628,-2.903,-2.8417,-2.759,-2.7523,-2.7255,-2.6645,-2.7066,-2.6985,-2.6346,-2.6264,-2.6277,-2.6277,-2.6,-2.607,-2.6577,-2.6645,-2.6985,-2.7523,-2.7523,0.0,-2.7523,-2.7523,-2.7523,-2.7523,-2.7523,-2.7523,-2.7523,-2.7523,-2.7523,-2.7456,-2.7403,-2.7403,-2.7403,-2.7469,-2.7842,-2.8352,0.0,0.0,0.0,0.0,0.0,0.0,0.0,0.0,0.0,0.0,-3.4269,-3.4293,-3.445,-3.4221,-3.4037,-3.4056,-3.3578,0.0,0.0,-3.3033,-3.327,-3.331,-3.3569,-3.3737,-3.3803,-3.3761,-3.3828,-3.4006,-3.3944,-3.3929,-3.4005,-3.4199,-3.4256,-3.4173,-3.4634,-3.4742,-3.458,-3.5003,-3.5026,-3.4774,-3.5195,-3.5823,-3.6629,-3.7808,-3.8798,-3.9611,-3.9973,-4.0364,-4.0708,-4.0738,-4.077,-4.0811,-4.0886,-4.0912,-4.0955,0.0,0.0,0.0,0.0,0.0,0.0,0.0,0.0,0.0,0.0,0.0,0.0,0.0,0.0,-3.7433,-3.6539,0.0,-3.5776,-3.5024,-3.4218,-3.3527,-3.3251,-3.2477,-3.148,-3.0133,-2.9393,-2.8712,-2.8105,-2.7723,-2.739,-2.7121,-2.7268,-2.7323,-2.7121,-2.6985,-2.6985,-2.7121,-2.6837,-2.6837,-2.7121,-2.7121,-2.7255,-2.7523,-2.7523,-2.7523,-2.7523,-2.7523,-2.7523,-2.7523,-2.7523,-2.7523,-2.7523,-2.7842,-2.7973,-2.8026,-2.8403,-2.8274,-2.7973,-2.7973,-2.8403,-2.903,0.0,0.0,0.0,0.0,0.0,0.0,0.0,0.0,0.0,0.0,-3.4409,-3.4542,-3.4647,-3.4542,-3.448,0.0,0.0,0.0,0.0,-3.4115,-3.4449,-3.468,-3.4731,-3.4705,-3.4619,-3.4558,-3.451,-3.4477,-3.4324,-3.4303,-3.4412,-3.4292,-3.4252,-3.4255,-3.4408,-3.4311,-3.408,-3.4534,-3.4461,-3.4129,-3.4666,-3.4683,-3.4561,-3.5952,-3.7508,-3.9013,-3.9296,-3.9818,-4.0417,-4.0626,-4.0712,-4.0742,-4.0814,-4.0876,-4.0921,-4.0863,-4.0933,0.0,0.0,0.0,0.0,0.0,0.0,0.0,0.0,-3.9524,-3.9096,-3.8711,-3.8486,-3.7977,-3.6768,-3.6504,-3.613,-3.5224,-3.4578,-3.3968,-3.3459,-3.2841,-3.2033,-3.0984,-3.0179,-2.9393,-2.861,-2.8039,-2.7656,-2.7523,-2.7523,-2.7471,-2.7366,-2.7366,-2.7314,-2.7196,-2.7196,-2.7196,-2.7196,-2.7196,-2.7196,-2.7196,-2.7196,-2.7196,-2.7196,-2.7314,-2.7366,-2.7366,-2.7604,-2.7723,-2.7789,-2.8417,-2.8661,-2.8725,-2.9268,-2.9268,-2.8853,-2.8725,-2.9156,-2.9766,0.0,0.0,0.0,0.0,0.0,0.0,0.0,0.0,0.0,0.0,0.0,0.0,0.0,0.0,0.0,0.0,0.0,0.0,-3.4823,-3.5091,-3.5162,-3.4964,-3.4904,-3.4718,-3.4339,-3.4277,-3.4199,-3.4061,-3.3817,-3.3843,-3.4128,-3.3601,-3.3596,-3.4015,-3.3499,-3.3538,-3.3906,-3.3738,-3.3673,-3.3696,-3.3953,-3.3905,-3.379,-3.4433,-3.5514,-3.6859,-3.8214,-3.8765,-3.8955,-3.9755,-4.0061,-4.012,-4.0248,-4.0448,-4.0645,-4.0715,0.0,-4.0995,-4.092,-4.0897,-4.0872,-4.0842,-4.0684,-4.0533,0.0,-4.0061,-3.951,-3.9104,-3.8733,-3.8198,-3.7285,-3.6803,-3.6399,-3.5847,-3.4988,-3.4284,-3.4119,-3.3214,-3.2492,-3.2216,-3.1102,-2.9903,-2.8597,-2.8417,-2.8157,-2.7523,-2.7523,-2.7301,-2.6791,-2.6765,-2.6543,-2.6033,-2.6007,-2.6007,-2.6007,-2.6007,-2.6007,-2.6007,-2.6007,-2.6007,-2.6033,-2.6543,-2.6765,-2.6856,-2.7929,-2.8417,-2.8417,-2.9142,-2.938,-2.938,-2.9442,-2.9827,-3.0208,-2.9642,-2.9827,-3.0389,0.0,0.0,0.0,0.0,0.0,0.0,0.0,0.0,0.0,0.0,0.0,0.0,0.0,0.0,0.0,0.0,0.0,0.0,-3.5133,-3.532,-3.5409,-3.5305,-3.4817,-3.4471,-3.4304,-3.3809,-3.339,-3.3066,-3.2919,-3.2699,-3.2409,-3.2147,-3.1995,-3.1927,-3.217,-3.22,-3.2084,-3.2841,-3.2943,-3.2674,-3.3291,-3.3377,-3.3183,-3.3606,-3.4104,-3.4782,-3.6529,-3.7349,0.0,0.0,-3.9121,-3.9138,-3.991,-4.0247,-4.038,-4.0399,-4.0504,0.0,-4.0752,-4.0901,-4.1007,-4.0976,-4.0925,-4.0851,-4.0649,-4.041,-4.0079,-3.9566,-3.9186,-3.8685,-3.77,-3.7232,-3.6768,-3.602,-3.5537,-3.5018,-3.4317,-3.3563,-3.2895,-3.2437,-3.1306,-3.0103,-2.9164,-2.8474,-2.779,-2.7092,-2.6726,-2.6425,-2.619,-2.6177,-2.6073,-2.5837,-2.5824,-2.5824,-2.5824,-2.5824,-2.5824,-2.5824,-2.5824,-2.5824,-2.5837,-2.6073,-2.6177,-2.619,-2.7095,-2.7453,-2.7515,-2.857,-2.8999,-2.8984,-2.9421,-2.9723,-2.9997,-3.0069,-3.0524,-3.1087,0.0,0.0,0.0,0.0,0.0,0.0,0.0,0.0,0.0,0.0,0.0,0.0,0.0,0.0,0.0,0.0,0.0,0.0,0.0,-3.5369,-3.5383,-3.5336,-3.4579,-3.4026,-3.3767,-3.3051,-3.2371,-3.1723,-3.1445,-3.115,-3.0839,-3.0527,-3.0337,-3.0325,-3.0762,-3.0808,-3.0583,-3.1702,-3.1933,-3.166,-3.255,-3.2763,-3.2601,-3.3001,-3.3154,-3.3375,-3.5051,-3.5914,0.0,0.0,-3.7845,-3.7911,-3.9063,-3.9518,-3.9638,-3.9846,-4.0024,-4.0243,-4.0568,-4.0804,-4.0953,-4.0976,-4.1012,-4.1009,-4.077,-4.0662,-4.0467,-3.9929,-3.9596,-3.9149,-3.8259,-3.7753,-3.7212,-3.6298,-3.6079,-3.5644,-3.4642,-3.3742,-3.295,-3.2415,-3.1125,-3.0024,-2.9334,-2.8316,-2.7406,-2.6744,-2.6109,-2.5759,-2.5589,-2.5589,-2.5511,-2.5354,-2.5354,-2.5354,-2.5354,-2.5354,-2.5354,-2.5354,-2.5354,-2.5354,-2.5354,-2.5511,-2.573,-2.606,-2.6708,-2.7056,-2.7294,-2.8397,-2.8861,-2.8917,-2.9401,-2.9579,-2.963,-3.0087,-3.0556,-3.1001,0.0,0.0,0.0,0.0,0.0,0.0,0.0,0.0,0.0,0.0,0.0,0.0,0.0,0.0,0.0,0.0,0.0,0.0,0.0,-3.531,-3.5131,-3.4922,-3.4199,-3.3356,-3.2362,-3.1843,-3.1076,-3.0051,-2.9182,-2.9166,-3.0018,-2.8839,-2.89,-3.0009,-2.9419,-2.9508,-3.0067,-3.0302,-3.051,-3.0818,-3.164,-3.193,-3.1985,-3.2568,-3.2813,-3.2965,-3.4129,0.0,0.0,0.0,-3.6174,-3.635,-3.7433,-3.791,0.0,-3.8988,-3.9515,-3.9907,-4.0386,-4.0549,-4.0665,-4.0857,-4.0957,-4.0996,-4.0996,-4.0786,-4.052,-4.0243,-3.9925,-3.951,-3.8888,-3.8327,-3.7754,-3.6999,-3.6516,-3.6045,-3.5367,-3.3729,-3.2524,-3.2238,-3.0707,-2.9377,-2.8681,-2.8068,-2.7412,-2.6735,-2.6136,-2.5576,-2.5027,-2.4988,-2.4739,-2.4191,-2.4164,-2.4164,-2.4164,-2.4164,-2.4164,-2.4164,-2.4164,-2.4164,-2.4191,-2.4739,-2.5654,-2.6708,-2.7398,-2.7968,-2.8566,-2.9292,-2.9579,-2.9579,-2.9579,-2.9579,-2.9579,-2.9624,-2.9639,-2.9639,0.0,0.0,0.0,0.0,0.0,0.0,0.0,0.0,0.0,0.0,0.0,0.0,0.0,0.0,0.0,0.0,0.0,0.0,0.0,-3.4996,-3.4653,-3.433,-3.2998,-3.1908,-3.1055,-2.9914,-2.9,-2.8324,-2.7648,-2.7465,-2.7773,-2.6983,-2.6799,-2.7229,-2.7788,-2.813,-2.8419,-2.9729,-3.0335,-3.0526,-3.1317,-3.1617,-3.1691,-3.2056,-3.2179,-3.2283,0.0,0.0,0.0,-3.4667,-3.5,-3.5157,-3.6292,-3.7174,-3.7951,-3.8739,-3.9197,-3.9467,-3.9757,-3.9984,-4.0188,-4.0453,-4.0641,-4.0789,-4.0803,-4.084,-4.0791,-4.0591,-4.027,-3.9923,-3.9547,-3.8943,-3.8227,-3.7308,-3.6907,-3.6201,-3.484,-3.3434,-3.2366,-3.1672,-3.0001,-2.8868,-2.864,-2.7707,-2.683,-2.6145,-2.523,-2.4609,-2.4413,-2.44,-2.4321,-2.4125,-2.4112,-2.4112,-2.4112,-2.4112,-2.4112,-2.4112,-2.4112,-2.4112,-2.4125,-2.4321,-2.4845,-2.5602,-2.6189,-2.6802,-2.7374,-2.8025,-2.8248,-2.8248,-2.8248,-2.8248,-2.8248,-2.8248,-2.8248,-2.8382,0.0,0.0,0.0,0.0,0.0,0.0,0.0,0.0,0.0,0.0,0.0,0.0,0.0,0.0,0.0,0.0,0.0,0.0,0.0,0.0,-3.3998,-3.3396,-3.1999,-3.0695,-2.9657,-2.8513,-2.7625,-2.6909,-2.6304,-2.6119,-2.6336,-2.5797,-2.5632,-2.5837,-2.6558,-2.7012,-2.7333,-2.8701,-2.9508,-2.9951,-3.0747,-3.1179,-3.1351,-3.1654,-3.1765,0.0,0.0,0.0,0.0,-3.353,-3.3755,-3.3849,-3.4925,-3.5895,-3.682,-3.7845,-3.8239,-3.8517,-3.9189,-3.9517,-3.9737,-4.0042,-4.0277,-4.0458,-4.0626,-4.0758,-4.0857,-4.0812,-4.0539,-4.0224,-3.9928,-3.9373,-3.867,-3.7715,-3.7195,-3.6342,-3.4789,-3.3274,-3.1951,-3.1022,-2.923,-2.7958,-2.7906,-2.6842,-2.6048,-2.5807,-2.4749,-2.4112,-2.4112,-2.4112,-2.4112,-2.4112,-2.4112,-2.4112,-2.4112,-2.4112,-2.4112,-2.4112,-2.4345,-2.439,-2.4447,-2.4607,-2.5048,-2.566,-2.596,-2.6443,-2.7049,-2.7458,-2.7625,-2.7625,-2.7625,-2.7625,-2.7625,-2.7625,-2.7625,-2.7745,0.0,0.0,0.0,0.0,0.0,0.0,0.0,0.0,0.0,0.0,0.0,0.0,0.0,0.0,0.0,0.0,0.0,0.0,0.0,0.0,0.0,-3.2249,-3.1213,-2.9894,-2.828,-2.7728,-2.6909,-2.5783,-2.5258,-2.5272,-2.5742,-2.5216,-2.5216,-2.5742,-2.5783,-2.6122,-2.6669,-2.7282,-2.8112,-2.9166,-2.9951,-3.0576,-3.1015,-3.1368,0.0,0.0,0.0,0.0,0.0,-3.242,-3.242,-3.2458,-3.3458,-3.4182,-3.4942,-3.6314,-3.675,-3.7158,-3.8683,-3.9115,-3.9219,-3.9656,-3.9783,-3.9947,-4.0444,-4.0555,-4.0648,-4.093,-4.0723,-4.0402,-4.0077,-3.9618,-3.8995,-3.8113,-3.7308,-3.6357,-3.5063,-3.3067,-3.1355,-3.0369,-2.8297,-2.6864,-2.6721,-2.5646,-2.5216,-2.5742,-2.4708,-2.4112,-2.4112,-2.4112,-2.4112,-2.4112,-2.4112,-2.4112,-2.4112,-2.4112,-2.4112,-2.4112,-2.4677,-2.4948,-2.4948,-2.5522,-2.6068,-2.6669,-2.6683,-2.7049,-2.7625,-2.7625,-2.7625,-2.7625,-2.7625,-2.7625,-2.7625,-2.7625,-2.7625,-2.7625,0.0,0.0,0.0,0.0,0.0,0.0,0.0,0.0,0.0,0.0,0.0,0.0,0.0,0.0,0.0,0.0,0.0,0.0,0.0,0.0,0.0,0.0,0.0,0.0,0.0,0.0,0.0,0.0,0.0,-2.5061,-2.5216,-2.4607,-2.439,-2.4549,-2.5412,-2.5892,-2.6108,-2.7535,-2.848,-2.9166,0.0,-3.0199,-3.0634,0.0,0.0,0.0,0.0,0.0,0.0,-3.2038,-3.2038,-3.216,-3.3125,-3.3776,-3.4369,-3.5341,-3.624,-3.7076,-3.7624,-3.7992,-3.8382,-3.8971,-3.8997,-3.9018,-3.969,-3.9964,-4.021,-4.0684,-4.07,-4.0605,-4.0462,-3.96,-3.8634,-3.7701,-3.6389,-3.4993,-3.3636,-3.2004,-3.0647,-2.9758,-2.8008,-2.6864,-2.6721,-2.5646,-2.5061,-2.5216,-2.4505,-2.4112,-2.4112,-2.4112,-2.4112,-2.4112,-2.4112,-2.4112,-2.4112,-2.4112,-2.4112,-2.4112,-2.4287,-2.4345,-2.4332,-2.4948,-2.5536,-2.6068,-2.651,-2.7049,-2.7625,-2.7625,-2.7625,-2.7625,-2.7625,-2.7625,-2.7625,-2.7625,-2.7625,-2.7625,0.0,0.0,0.0,0.0,0.0,0.0,0.0,0.0,0.0,0.0,0.0,0.0,0.0,0.0,0.0,0.0,0.0,0.0,0.0,0.0,0.0,0.0,0.0,0.0,0.0,0.0,0.0,0.0,0.0,0.0,0.0,-2.4505,-2.4505,-2.4505,-2.5147,-2.5742,-2.6283,-2.7434,0.0,0.0,0.0,0.0,0.0,0.0,0.0,0.0,0.0,0.0,0.0,0.0,-3.2109,-3.2249,-3.2508,-3.2773,-3.3143,-3.3952,-3.4677,-3.5348,-3.5993,-3.6321,-3.6662,-3.7288,-3.7351,-3.75,-3.8626,-3.9047,-3.9451,-4.0303,-4.0266,-4.0071,-4.0062,-3.8968,-3.7793,-3.6998,-3.5716,-3.4285,-3.2805,-3.1546,-3.0282,-2.8873,-2.744,-2.6347,-2.5659,-2.4794,-2.4319,-2.4319,-2.4157,-2.4112,-2.4112,-2.4112,-2.4112,-2.4112,-2.4112,-2.4112,-2.4112,-2.4112,-2.4112,-2.4112,-2.439,-2.4607,-2.4878,-2.5481,-2.6068,-2.6602,-2.693,-2.7306,-2.7625,-2.7625,-2.7625,-2.7625,-2.7625,-2.7625,-2.7625,-2.7625,-2.7625,-2.7625,0.0,0.0,0.0,0.0,0.0,0.0,0.0,0.0,0.0,0.0,0.0,0.0,0.0,0.0,0.0,0.0,0.0,0.0,0.0,0.0,0.0,0.0,0.0,0.0,0.0,0.0,0.0,0.0,0.0,0.0,0.0,0.0,0.0,0.0,0.0,0.0,0.0,0.0,0.0,0.0,0.0,0.0,0.0,0.0,0.0,0.0,0.0,0.0,0.0,0.0,-3.242,-3.2437,-3.1932,-3.1787,-3.1981,-3.2619,-3.2934,-3.3254,-3.4266,-3.4566,-3.4782,-3.5385,-3.5515,-3.5882,-3.7403,-3.7903,-3.8376,-3.9563,-3.9432,-3.913,-3.9193,-3.8009,-3.6783,-3.6154,-3.5033,-3.3746,-3.2253,-3.1193,-2.9861,-2.7951,-2.6695,-2.5508,-2.4226,-2.359,-2.3271,-2.3271,-2.3688,-2.3982,-2.4112,-2.4112,-2.4112,-2.4112,-2.4112,-2.4112,-2.4112,-2.4112,-2.4112,-2.4112,-2.462,-2.5104,-2.5577,-2.6283,-2.6878,-2.7357,-2.7509,-2.7625,-2.7625,-2.7625,-2.7625,-2.7625,-2.7625,-2.7625,-2.7625,-2.7625,-2.7625,-2.7625,0.0,0.0,0.0,0.0,0.0,0.0,0.0,0.0,0.0,0.0,-4.0048,-3.9208,0.0,0.0,0.0,0.0,0.0,0.0,0.0,0.0,0.0,0.0,0.0,0.0,0.0,0.0,0.0,0.0,0.0,0.0,0.0,0.0,0.0,0.0,0.0,0.0,0.0,0.0,0.0,0.0,0.0,0.0,0.0,0.0,0.0,0.0,0.0,0.0,0.0,0.0,-3.2619,-3.2179,-3.2074,-3.2316,-3.2586,-3.2423,-3.3071,-3.3807,-3.3724,-3.3907,-3.4321,-3.5081,-3.503,-3.5065,-3.6175,-3.6583,-3.6932,-3.7659,-3.7943,-3.8106,-3.8222,-3.73,-3.6262,-3.5417,-3.3707,-3.2178,-3.1308,-2.9902,-2.8479,-2.737,-2.5966,-2.4727,-2.3735,-2.3062,-2.2725,-2.2725,-2.2786,-2.322,-2.4054,-2.4112,-2.4112,-2.4112,-2.4112,-2.4112,-2.4112,-2.4112,-2.4112,-2.4112,-2.4229,-2.4274,-2.4447,-2.5467,-2.6,-2.6162,-2.7188,-2.7625,-2.7625,-2.7625,-2.7625,-2.7625,-2.7625,-2.7625,-2.7625,-2.7625,-2.7625,-2.7625,0.0,0.0,0.0,0.0,0.0,0.0,0.0,-4.0848,-4.09,-4.09,-4.0597,-4.0045,-3.9179,-3.7867,0.0,0.0,0.0,0.0,0.0,0.0,0.0,0.0,0.0,0.0,0.0,0.0,-2.9863,-2.8744,0.0,0.0,0.0,-2.7199,-2.7229,-2.7229,0.0,0.0,0.0,0.0,0.0,0.0,0.0,0.0,0.0,0.0,0.0,0.0,0.0,0.0,0.0,0.0,-3.2798,-3.2716,-3.2334,-3.2368,-3.2435,-3.1877,-3.21,-3.2524,-3.2357,-3.2406,-3.2741,-3.3495,-3.353,-3.3774,-3.5169,-3.5625,-3.608,-3.7084,-3.722,-3.7172,-3.7344,-3.6194,-3.4896,-3.3917,-3.229,-3.0707,-2.9371,-2.8231,-2.7033,-2.564,-2.4759,-2.3839,-2.2749,-2.2408,-2.2128,-2.185,-2.1825,-2.2138,-2.2934,-2.2667,-2.2744,-2.3197,-2.2972,-2.2985,-2.3223,-2.321,-2.321,-2.321,-2.321,-2.3523,-2.4139,-2.4668,-2.5434,-2.6283,-2.6878,-2.7306,-2.7625,-2.7625,-2.7625,-2.7625,-2.7625,-2.7625,-2.7625,-2.7625,-2.7625,-2.7675,0.0,0.0,0.0,0.0,0.0,0.0,0.0,-4.0848,-4.0919,-4.0919,-4.0916,-4.0715,-4.0133,-3.8455,-3.7301,0.0,0.0,0.0,0.0,0.0,0.0,0.0,0.0,0.0,0.0,0.0,0.0,-2.9814,-3.0071,0.0,0.0,0.0,0.0,0.0,-2.9267,-2.9534,-2.9827,0.0,0.0,0.0,0.0,-3.177,0.0,0.0,0.0,0.0,0.0,0.0,0.0,0.0,-3.2993,-3.3178,-3.2586,-3.2453,-3.2385,-3.1542,-3.1368,-3.1406,-3.123,-3.119,-3.1368,-3.2003,-3.2248,-3.2679,-3.4117,-3.4697,-3.5274,-3.6455,-3.6452,-3.6267,-3.6363,-3.5054,-3.3569,-3.2445,-3.105,-2.9442,-2.7588,-2.6799,-2.5694,-2.38,-2.3344,-2.2699,-2.1416,-2.1197,-2.1028,-2.0766,-2.0652,-2.0937,-2.1703,-2.1309,-2.1412,-2.2076,-2.1856,-2.1869,-2.2237,-2.232,-2.2428,-2.2428,-2.2415,-2.2855,-2.3716,-2.3865,-2.4785,-2.6361,-2.6466,-2.6916,-2.7625,-2.7625,-2.7625,-2.7625,-2.7625,-2.7625,-2.7625,-2.7675,-2.774,-2.784,0.0,0.0,0.0,0.0,0.0,0.0,0.0,-4.0848,-4.0919,-4.0977,-4.0994,-4.0999,-4.0982,-3.9303,-3.7904,0.0,0.0,0.0,0.0,0.0,0.0,0.0,0.0,0.0,0.0,0.0,0.0,-3.2106,-3.1498,0.0,0.0,0.0,0.0,0.0,0.0,-3.0639,-3.1057,-3.1134,0.0,0.0,0.0,0.0,0.0,0.0,0.0,0.0,0.0,0.0,-3.2908,0.0,0.0,-3.2827,-3.2781,-3.2988,-3.3086,-3.1967,-3.1896,-3.2039,-3.1368,-3.119,-3.1291,-3.1657,-3.2039,-3.2419,-3.2884,-3.3567,-3.4222,-3.4668,-3.5059,-3.5271,-3.51,-3.4207,-3.3045,-3.1724,-3.0152,-2.856,-2.6988,-2.6005,-2.4619,-2.2359,-2.1747,-2.0928,-1.942,-1.891,-1.8956,-1.9449,-1.9245,-1.9688,-2.1067,-2.1112,-2.1144,-2.1188,-2.1524,-2.1703,-2.1759,-2.2169,-2.24,-2.24,-2.2374,-2.2441,-2.2589,-2.3083,-2.3989,-2.518,-2.5763,-2.6606,-2.7625,-2.7625,-2.7625,-2.7625,-2.774,-2.779,-2.779,-2.7905,-2.7955,-2.7955,0.0,0.0,0.0,0.0,0.0,0.0,-4.079,-4.081,-4.0889,-4.0984,-4.0966,-4.0983,-4.1086,-3.9926,-3.8818,-3.8005,0.0,0.0,0.0,0.0,0.0,0.0,0.0,0.0,0.0,0.0,-3.3783,-3.3174,-3.2904,0.0,0.0,0.0,0.0,0.0,0.0,-3.2223,-3.2056,-3.2423,0.0,0.0,0.0,0.0,0.0,0.0,0.0,0.0,0.0,0.0,-3.3147,-3.3068,-3.3099,-3.3068,-3.2651,-3.2894,0.0,-3.2021,-3.1823,-3.1823,-3.1329,-3.119,-3.1291,-3.162,-3.1823,-3.2144,-3.3039,-3.3468,-3.3924,-3.4752,-3.5002,-3.4992,-3.4717,-3.3468,-3.1933,-3.0174,-2.8061,-2.5959,-2.4259,-2.2955,-2.1578,-1.9846,-1.9369,-1.8913,-1.8067,-1.782,-1.7955,-1.8507,-1.7774,-1.7924,-1.9215,-1.9282,-1.9502,-2.006,-2.0005,-2.0209,-2.0663,-2.0834,-2.1121,-2.1355,-2.1393,-2.1577,-2.1851,-2.2088,-2.28,-2.3934,-2.4194,-2.4912,-2.6032,-2.6415,-2.6728,-2.707,-2.759,-2.779,-2.784,-2.7955,-2.8054,-2.8103,0.0,0.0,0.0,0.0,0.0,-4.079,-4.079,-4.081,-4.0862,-4.0963,-4.0964,-4.0996,-4.1054,-4.05,-3.9772,-3.8935,-3.7803,0.0,0.0,0.0,0.0,0.0,0.0,0.0,0.0,0.0,-3.4661,-3.4037,-3.4064,-3.3846,0.0,0.0,-3.3245,-3.3021,0.0,0.0,0.0,0.0,0.0,0.0,0.0,0.0,0.0,0.0,0.0,0.0,0.0,0.0,0.0,0.0,0.0,0.0,0.0,0.0,0.0,0.0,-3.1967,-3.195,-3.1637,-3.1542,-3.1562,-3.1823,-3.2021,-3.2364,-3.3263,-3.3671,-3.4093,-3.495,-3.4955,-3.4644,-3.4035,-3.2331,-3.0377,0.0,0.0,-2.3751,-2.186,-2.0613,-1.9284,-1.7762,-1.7283,-1.6853,-1.6309,-1.6484,-1.677,-1.7212,-1.667,-1.6652,-1.7512,-1.7733,-1.8182,-1.8987,-1.8905,-1.9052,-1.9643,-1.9888,-2.0156,-2.0485,-2.0649,-2.0922,-2.125,-2.125,-2.1914,-2.294,-2.294,-2.3713,-2.4961,-2.5462,-2.6066,-2.6793,-2.7372,-2.7758,-2.794,-2.8054,-2.8201,-2.8235,0.0,0.0,0.0,0.0,0.0,0.0,-4.079,-4.0848,-4.09,-4.09,-4.1016,-4.1074,-4.1016,-4.1054,-4.0713,-3.9772,-3.8161,0.0,0.0,0.0,0.0,0.0,0.0,0.0,0.0,0.0,-3.5205,-3.4793,-3.4992,-3.4794,-3.4292,-3.4508,-3.4353,-3.3998,0.0,0.0,0.0,0.0,0.0,0.0,0.0,0.0,0.0,0.0,0.0,0.0,0.0,0.0,0.0,0.0,0.0,0.0,0.0,0.0,0.0,0.0,-3.2535,-3.2731,-3.2368,-3.2283,-3.2283,-3.2283,-3.2677,-3.3135,-3.3341,-3.4065,-3.4722,-3.4874,-3.4647,-3.4032,-3.2758,-3.065,-2.8356,-2.5952,-2.4171,0.0,-2.0508,-1.9566,-1.841,-1.6647,-1.5726,-1.4841,-1.3858,-1.4519,-1.5135,-1.5391,-1.5979,-1.6312,-1.6312,-1.6866,-1.749,-1.8084,-1.8583,-1.8798,-1.8798,-1.9592,-1.9991,-1.9991,-2.0485,-2.0699,-2.0712,-2.0712,-2.1316,-2.2419,-2.2419,-2.3371,-2.4985,-2.4999,-2.5797,-2.7018,-2.7145,-2.7605,-2.8186,-2.8348,-2.8411,-2.8411,0.0,0.0,0.0,0.0,0.0,0.0,0.0,-4.081,-4.0848,-4.09,-4.0977,-4.1035,-4.1074,-4.1096,-4.074,-3.9835,-3.8705,0.0,0.0,0.0,0.0,0.0,0.0,0.0,0.0,0.0,-3.5495,-3.5284,-3.5292,-3.5143,-3.485,-3.4924,-3.4756,-3.442,-3.4637,-3.4617,0.0,0.0,0.0,0.0,0.0,0.0,0.0,0.0,0.0,0.0,0.0,0.0,0.0,0.0,0.0,0.0,0.0,0.0,0.0,0.0,0.0,-3.316,-3.2663,-3.2613,-3.2674,-3.2533,-3.2862,-3.3334,-3.3709,-3.4027,-3.4262,-3.4394,-3.3538,-3.2306,-3.0834,-2.8443,-2.5938,-2.3886,-2.1777,-1.9835,-1.8111,-1.7072,-1.5927,-1.4267,-1.3439,-1.2864,-1.2576,-1.3397,-1.4168,-1.4669,-1.4932,-1.541,-1.6255,-1.6472,-1.6866,-1.749,-1.8018,-1.8476,-1.8798,-1.9303,-1.9759,-1.9991,-2.0485,-2.0699,-2.0699,-2.0699,-2.0904,-2.1212,-2.1212,-2.1986,-2.3173,-2.3665,-2.4552,-2.5667,-2.6276,-2.6917,-2.7546,-2.7656,-2.8011,-2.8411,0.0,0.0,0.0,0.0,0.0,0.0,0.0,-4.079,-4.081,-4.0848,-4.0919,-4.0982,-4.102,-4.1045,-4.0833,-4.0266,-3.9088,0.0,0.0,0.0,0.0,0.0,0.0,0.0,0.0,-3.576,-3.5689,-3.5607,-3.5577,-3.5451,-3.5259,-3.5259,-3.5095,-3.483,-3.5015,-3.5204,0.0,0.0,0.0,0.0,0.0,0.0,-3.5191,0.0,0.0,0.0,0.0,0.0,0.0,0.0,0.0,0.0,0.0,0.0,0.0,0.0,-3.447,-3.3992,-3.3474,-3.3432,-3.3506,-3.3335,-3.3549,-3.3805,-3.3901,-3.3949,-3.3802,-3.3229,-3.2052,-3.0508,-2.8483,-2.6104,-2.3739,-2.162,-1.9652,-1.7803,-1.641,-1.5172,-1.3913,-1.2438,-1.1772,-1.1532,-1.1789,-1.2593,-1.3364,-1.4007,-1.43,-1.4852,-1.5575,-1.5864,-1.6255,-1.6866,-1.7678,-1.8247,-1.853,-1.8946,-1.9356,-1.9798,-2.022,-2.0536,-2.0699,-2.0699,-2.0699,-2.0699,-2.0947,-2.1541,0.0,-2.3066,-2.4028,-2.5146,-2.5663,-2.6305,-2.6903,-2.7011,-2.7442,-2.8074,0.0,0.0,0.0,0.0,0.0,0.0,0.0,-4.079,-4.079,-4.079,-4.0848,-4.0889,-4.0896,-4.0972,-4.098,-4.0912,0.0,0.0,0.0,0.0,0.0,0.0,0.0,0.0,0.0,-3.5793,-3.5795,-3.5786,-3.5785,-3.5697,-3.5523,-3.5579,-3.5515,-3.5319,-3.5321,-3.5841,-3.6769,-3.7586,-3.7475,-3.6707,-3.6651,-3.6154,0.0,0.0,0.0,0.0,0.0,0.0,0.0,0.0,0.0,0.0,0.0,0.0,0.0,0.0,0.0,0.0,0.0,-3.4544,-3.4598,-3.4486,-3.4506,-3.4403,-3.3883,-3.3729,0.0,-3.1514,-3.0185,-2.8514,-2.5807,-2.3612,-2.1534,-1.9403,-1.7658,-1.6258,-1.5308,-1.383,-1.2405,-1.1095,-1.0722,-1.0807,-1.1358,-1.2027,-1.2696,-1.3381,-1.407,-1.4446,-1.4515,-1.5079,-1.569,-1.6301,-1.7457,-1.8084,-1.8084,-1.8583,-1.9011,-1.942,-1.9798,-2.0258,-2.0699,-2.0699,-2.0699,-2.0749,-2.1326,-2.1921,-2.2558,-2.3143,-2.4085,-2.5241,-2.5241,-2.5672,-2.6348,-2.6348,-2.6825,-2.7504,0.0,0.0,0.0,0.0,0.0,0.0,0.0,0.0,0.0,0.0,-4.0848,-4.0912,-4.0889,-4.097,-4.0978,0.0,0.0,0.0,0.0,0.0,0.0,0.0,0.0,0.0,0.0,-3.5745,-3.5718,-3.5722,-3.5724,-3.5694,-3.5675,-3.6396,-3.6629,-3.653,-3.7288,-3.7766,-3.7987,-3.8202,-3.815,-3.7923,-3.7253,-3.6849,0.0,0.0,0.0,0.0,-3.5675,-3.5646,0.0,0.0,0.0,0.0,0.0,0.0,0.0,0.0,-3.5259,-3.4976,-3.4413,0.0,-3.464,-3.4211,-3.4093,-3.3961,0.0,0.0,0.0,0.0,0.0,-2.5364,-2.3489,-2.0715,-1.8487,-1.7513,-1.6105,-1.4749,-1.3716,-1.2351,-1.1261,-1.0766,-1.0665,-1.0688,-1.0807,-1.1358,-1.2027,-1.2696,-1.3381,-1.395,-1.4446,-1.5079,-1.569,-1.6301,-1.7034,-1.7611,-1.8084,-1.8583,-1.9011,-1.942,-1.9798,-2.0258,-2.0699,-2.0848,-2.0947,-2.0947,-2.1277,-2.1969,-2.2844,-2.2979,-2.3598,-2.4548,-2.4548,-2.516,-2.6005,-2.6005,-2.6656,-2.7572,0.0,0.0,0.0,0.0,0.0,0.0,0.0,0.0,0.0,0.0,0.0,0.0,0.0,0.0,0.0,0.0,0.0,0.0,0.0,0.0,0.0,0.0,0.0,0.0,-3.5749,-3.5745,-3.576,-3.5755,-3.6119,-3.6306,-3.6328,-3.724,-3.7609,-3.7598,-3.8635,-3.9069,-3.9071,-3.9469,-3.9394,-3.8954,-3.8471,0.0,0.0,0.0,0.0,0.0,-3.5645,-3.5591,0.0,-3.5466,-3.5398,-3.5378,0.0,0.0,0.0,0.0,-3.4616,-3.4285,-3.3747,-3.3987,-3.4197,-3.3421,-3.2938,-3.2463,-3.1728,0.0,0.0,0.0,0.0,-2.2955,-2.0648,-1.8543,-1.6908,-1.5974,-1.4733,-1.3419,-1.2265,-1.1062,-1.0406,-1.0575,-1.0301,-1.0231,-1.0561,-1.1178,-1.1787,-1.2451,-1.313,-1.3821,-1.4446,-1.4793,-1.541,-1.6255,-1.6641,-1.7213,-1.8084,-1.8356,-1.8679,-1.9105,-1.9552,-2.0016,-2.0586,-2.0898,-2.1082,-2.1229,-2.1636,-2.2249,-2.2934,-2.3201,-2.3696,-2.4302,-2.4302,-2.4642,-2.516,-2.516,-2.5873,-2.6846,0.0,0.0,0.0,0.0,0.0,0.0,0.0,0.0,0.0,0.0,0.0,0.0,0.0,0.0,0.0,0.0,0.0,0.0,0.0,0.0,0.0,0.0,0.0,-3.5673,-3.5673,-3.5859,-3.5956,-3.5944,-3.6781,-3.7188,-3.7203,-3.8088,-3.8556,-3.8729,-3.9639,-4.0008,-3.9999,-4.074,-4.061,-3.9849,-3.9715,0.0,0.0,0.0,0.0,0.0,0.0,0.0,0.0,-3.5089,-3.5033,-3.4994,-3.4912,0.0,0.0,0.0,0.0,0.0,-3.2358,-3.2525,-3.2745,-3.2114,-3.1288,-3.0316,-2.9075,0.0,0.0,0.0,0.0,-2.0795,-1.7972,-1.6803,-1.587,-1.4529,-1.3389,-1.2301,-1.1195,-1.0212,-0.9907,-1.0561,-1.004,-0.9907,-1.0561,-1.1052,-1.1663,-1.2451,-1.3009,-1.37,-1.4455,-1.4515,-1.502,-1.614,-1.6244,-1.6821,-1.7963,-1.803,-1.8356,-1.8798,-1.9263,-1.9772,-2.0422,-2.0885,-2.1229,-2.1506,-2.2095,-2.2603,-2.2979,-2.3566,-2.4009,-2.4302,-2.4302,-2.4343,-2.4385,-2.4451,-2.508,-2.603,0.0,0.0,0.0,0.0,0.0,0.0,0.0,0.0,0.0,0.0,0.0,0.0,0.0,0.0,0.0,0.0,0.0,0.0,0.0,0.0,0.0,0.0,-3.5801,-3.5616,-3.5616,-3.6286,-3.6652,-3.6665,-3.7565,-3.8022,-3.8041,-3.8961,-3.9755,-4.042,-4.0586,-4.0655,-4.0655,-4.0779,-4.076,-4.0577,-3.9829,0.0,0.0,0.0,0.0,0.0,0.0,0.0,0.0,-3.4764,-3.4642,-3.4563,-3.4376,0.0,0.0,0.0,0.0,0.0,-2.9265,-2.8628,-2.8698,-2.9966,-2.9148,-2.7705,-2.6322,-2.4908,0.0,0.0,0.0,0.0,-1.6807,-1.5202,-1.3765,-1.3005,-1.1984,-1.1222,-1.1009,-1.0677,-1.0491,-1.0561,-1.0498,-1.0491,-1.0561,-1.0681,-1.1233,-1.2389,-1.2573,-1.3191,-1.4446,-1.4515,-1.4793,-1.5526,-1.6026,-1.6641,-1.7324,-1.7843,-1.8356,-1.8798,-1.946,-1.9952,-2.0422,-2.1313,-2.1712,-2.1746,-2.2388,-2.2889,-2.3275,-2.3653,-2.4009,-2.4302,-2.4302,-2.4492,-2.4823,-2.5198,-2.5642,-2.6208,0.0,0.0,0.0,0.0,0.0,0.0,0.0,0.0,0.0,0.0,0.0,0.0,0.0,0.0,0.0,0.0,0.0,0.0,0.0,0.0,0.0,-3.7319,-3.6786,-3.6332,-3.5937,-3.6249,-3.6651,-3.7111,-3.7991,-3.8484,-3.8661,-3.9554,-4.0202,-4.0641,-4.0494,-4.0422,-4.0422,-4.0424,-4.0397,-4.0289,0.0,0.0,0.0,0.0,0.0,0.0,0.0,0.0,0.0,0.0,-3.403,-3.3956,-3.365,0.0,0.0,0.0,0.0,0.0,-2.7227,-2.5786,-2.4825,-2.5355,-2.5401,-2.4815,-2.3018,-2.1608,0.0,0.0,0.0,0.0,-1.472,-1.349,-1.2417,-1.1815,-1.1341,-1.0942,-1.0782,-1.0315,-1.0168,-1.0555,-1.0238,-1.0168,-1.0561,-1.0624,-1.1108,-1.2389,-1.2512,-1.307,-1.4446,-1.4515,-1.4793,-1.5352,-1.5968,-1.6585,-1.7202,-1.7909,-1.8518,-1.904,-1.9552,-2.0144,-2.0845,-2.1506,-2.1888,-2.203,-2.248,-2.2934,-2.3319,-2.3668,-2.4009,-2.4302,-2.4302,-2.441,-2.4639,-2.5275,-2.5762,-2.6225,0.0,0.0,0.0,0.0,0.0,0.0,0.0,0.0,0.0,0.0,0.0,0.0,0.0,0.0,0.0,0.0,0.0,0.0,0.0,0.0,-3.8614,-3.8165,-3.7671,-3.7135,-3.6464,-3.6615,-3.7013,-3.7698,-3.8491,-3.8991,-3.9203,-3.9883,-4.0249,-4.0318,-4.0117,-4.0032,-4.0032,-3.9959,-3.9908,-3.9775,0.0,0.0,0.0,0.0,0.0,0.0,0.0,0.0,0.0,0.0,0.0,0.0,0.0,0.0,0.0,-2.9567,-2.8027,-2.6451,-2.5077,-2.3259,-2.157,-2.073,0.0,-2.1511,-1.9528,-1.8267,-1.7092,0.0,0.0,-1.3537,-1.272,-1.1847,-1.1129,-1.085,-1.087,-1.0815,-1.0658,-1.0104,-0.997,-1.0561,-1.0104,-0.997,-1.0555,-1.0624,-1.1108,-1.2389,-1.2512,-1.307,-1.4446,-1.4515,-1.4734,-1.5186,-1.5911,-1.6528,-1.6978,-1.7897,-1.8679,-1.9239,-1.9683,-2.0383,-2.1237,-2.1684,-2.1996,-2.2231,-2.2572,-2.2934,-2.3319,-2.3668,-2.4009,-2.4302,-2.4302,-2.4426,-2.4639,-2.5275,-2.5799,-2.628,0.0,0.0,0.0,0.0,0.0,0.0,0.0,0.0,0.0,0.0,0.0,0.0,0.0,0.0,0.0,0.0,0.0,0.0,0.0,0.0,-3.8996,-3.7984,-3.7891,-3.7673,-3.7236,-3.8014,-3.845,-3.8527,-3.9323,-3.9724,-3.9745,-3.9802,-3.9842,-3.9863,-3.9842,-3.9802,-3.9802,-3.9573,-3.9444,-3.9364,-3.8351,0.0,0.0,0.0,0.0,0.0,0.0,0.0,0.0,0.0,0.0,0.0,0.0,0.0,-2.9309,-2.8115,-2.6099,-2.3893,-2.2194,-2.0758,-1.9361,-1.7461,-1.7515,-1.7626,-1.6112,-1.4936,0.0,-1.3101,0.0,-1.1614,-1.132,-1.0406,-0.974,-1.0019,-1.0374,-1.0651,-1.0624,-1.0555,-1.0561,-1.0561,-1.0555,-1.0561,-1.0561,-1.0624,-1.1108,-1.2389,-1.2512,-1.307,-1.4446,-1.4515,-1.4515,-1.4565,-1.569,-1.6312,-1.6358,-1.7733,-1.8679,-1.9239,-1.9978,-2.067,-2.1224,-2.1874,-2.2184,-2.2231,-2.2572,-2.2934,-2.3319,-2.3668,-2.4009,-2.4302,-2.4302,-2.4759,-2.5427,-2.5465,-2.598,-2.6657,0.0,0.0,0.0,0.0,0.0,0.0,0.0,0.0,0.0,0.0,0.0,0.0,0.0,0.0,0.0,0.0,0.0,0.0,0.0,0.0,-3.8649,-3.8224,-3.8205,-3.8129,-3.8007,-3.7939,-3.8167,-3.8707,-3.9133,-3.9364,-3.9364,-3.9364,-3.9364,-3.9339,-3.9072,-3.8934,-3.8906,-3.882,-3.8619,-3.8236,-3.6893,-3.5921,0.0,0.0,0.0,0.0,0.0,0.0,0.0,0.0,-3.2039,-3.1933,0.0,-2.9709,-2.7997,-2.6458,-2.428,-2.2005,-2.0167,-1.8531,-1.707,-1.5889,-1.4716,0.0,0.0,-1.299,-1.2155,-1.1444,-1.0284,-0.9386,-0.9074,-0.9296,-0.9554,-0.9651,-1.0174,-1.0624,-1.0624,-1.0624,-1.0624,-1.0624,-1.0624,-1.0624,-1.0624,-1.0624,-1.1108,-1.2389,-1.2512,-1.307,-1.4446,-1.4515,-1.4515,-1.4515,-1.5748,-1.6425,-1.6425,-1.7897,-1.8946,-1.9448,-2.008,-2.0733,-2.1348,-2.1935,-2.2184,-2.2231,-2.2572,-2.2799,-2.2979,-2.3566,-2.3867,-2.4036,-2.4477,-2.502,-2.554,-2.5799,-2.621,-2.6691,0.0,0.0,0.0,0.0,0.0,0.0,0.0,0.0,0.0,0.0,0.0,0.0,0.0,0.0,0.0,0.0,0.0,0.0,-3.8683,-3.8478,-3.8332,-3.8183,-3.8165,-3.8114,-3.7962,-3.7449,-3.7694,-3.8683,-3.8818,-3.8868,-3.8868,-3.8726,-3.8649,-3.8649,-3.8158,-3.7962,-3.7943,-3.7859,-3.7505,-3.6899,-3.5509,-3.4641,0.0,0.0,0.0,0.0,0.0,0.0,0.0,0.0,-3.1172,0.0,0.0,0.0,-2.6655,-2.5174,-2.3132,-2.0888,-1.8943,-1.7257,-1.582,-1.4781,0.0,0.0,-1.1905,-1.1249,-1.0373,-0.9643,-0.8706,-0.7912,-0.7702,-0.8341,-0.8941,-0.9134,-0.9588,-1.0104,-1.0561,-1.0428,-1.0364,-1.0561,-1.0624,-1.0624,-1.0624,-1.0624,-1.1108,-1.2389,-1.2512,-1.307,-1.4446,-1.4515,-1.4565,-1.4793,-1.5864,-1.6539,-1.6765,-1.8061,-1.8946,-1.9356,-1.994,-2.0646,-2.1423,-2.1949,-2.2184,-2.2231,-2.2572,-2.2754,-2.2934,-2.3566,-2.3882,-2.4009,-2.4517,-2.4942,-2.5351,-2.5762,-2.6175,-2.6539,0.0,0.0,0.0,0.0,0.0,0.0,0.0,0.0,0.0,0.0,0.0,0.0,0.0,0.0,0.0,0.0,0.0,0.0,-3.8382,-3.8382,-3.8165,-3.7701,-3.7701,-3.7453,-3.7013,-3.672,-3.7177,-3.8382,-3.8382,-3.8382,-3.8382,-3.791,-3.7701,-3.7666,-3.7198,-3.6976,-3.6976,-3.672,-3.6164,-3.5395,-3.4384,-3.3542,-3.2783,0.0,0.0,0.0,0.0,0.0,0.0,0.0,-3.0084,-2.9609,0.0,0.0,0.0,-2.4442,-2.2743,-2.0716,-1.8468,-1.7088,-1.583,-1.389,0.0,0.0,-1.0744,-0.9524,-0.8296,-0.7652,-0.7456,-0.7456,-0.7456,-0.7521,-0.7717,-0.8361,-0.849,-0.9005,-1.0364,-0.9977,-0.9779,-1.0498,-1.0624,-1.0624,-1.0624,-1.0624,-1.1108,-1.2389,-1.2512,-1.307,-1.4446,-1.4515,-1.4793,-1.5352,-1.5968,-1.6652,-1.7379,-1.8224,-1.8679,-1.8798,-1.95,-2.0359,-2.1423,-2.1949,-2.2184,-2.2231,-2.2572,-2.2934,-2.3319,-2.3668,-2.4009,-2.4302,-2.4302,-2.4574,-2.4942,-2.5351,-2.5762,-2.6175,0.0,0.0,0.0,0.0,0.0,0.0,0.0,0.0,0.0,0.0,0.0,0.0,0.0,0.0,0.0,0.0,0.0,0.0,-3.7614,-3.7137,-3.679,-3.6671,-3.6614,-3.6574,-3.6452,-3.6347,-3.647,-3.6829,-3.7044,-3.714,-3.714,-3.697,-3.6932,-3.6932,-3.6596,-3.6236,-3.5874,-3.5762,-3.4928,-3.3594,-3.2796,-3.1896,-3.0912,0.0,0.0,0.0,0.0,0.0,0.0,0.0,0.0,0.0,0.0,0.0,0.0,-2.3654,-2.1707,-1.9474,-1.7335,-1.6192,-1.5136,-1.3243,-1.2151,-1.1233,0.0,-0.9134,0.0,0.0,-0.6745,-0.6745,-0.6745,-0.7134,-0.7587,-0.7782,-0.8166,-0.8619,-0.9069,-0.9326,-0.9582,-0.9779,-1.0301,-1.0624,-1.0624,-1.0624,-1.0933,-1.1725,-1.2205,-1.2887,-1.3761,-1.4258,-1.4565,-1.4734,-1.5864,-1.6539,-1.6765,-1.8061,-1.8744,-1.8798,-1.985,-2.051,-2.0871,-2.141,-2.1841,-2.2231,-2.2572,-2.2754,-2.2934,-2.3566,-2.4009,-2.4343,-2.4902,-2.5198,-2.5427,-2.6087,-2.6436,-2.6539,0.0,0.0,0.0,0.0,0.0,0.0,0.0,0.0,0.0,0.0,0.0,0.0,0.0,0.0,0.0,0.0,0.0,0.0,0.0,-3.6446,-3.6147,-3.5977,-3.5933,-3.5759,-3.5386,-3.5386,-3.5261,-3.4998,-3.5753,-3.6136,-3.6094,-3.5719,-3.5545,-3.5501,-3.5148,-3.4825,-3.4508,-3.4259,-3.3401,-3.2144,-3.1453,-3.0607,-2.9706,0.0,0.0,0.0,0.0,0.0,0.0,0.0,0.0,0.0,0.0,0.0,0.0,-2.3339,-2.1828,-2.0049,-1.7698,-1.6557,-1.5573,-1.3407,-1.2143,-1.1163,-0.9837,-0.8748,-0.7777,-0.6613,-0.642,-0.642,-0.642,-0.6745,-0.7134,-0.7456,-0.7587,-0.7842,-0.8425,-0.8877,-0.9198,-0.9454,-1.0168,-1.0624,-1.0624,-1.0624,-1.087,-1.1421,-1.1841,-1.252,-1.345,-1.3881,-1.4309,-1.4852,-1.57,-1.6436,-1.6989,-1.7952,-1.8572,-1.8893,-1.985,-2.0526,-2.0987,-2.1518,-2.1902,-2.2231,-2.2709,-2.3024,-2.3201,-2.3739,-2.4135,-2.4343,-2.4823,-2.5121,-2.5351,-2.598,-2.6315,-2.647,0.0,0.0,0.0,0.0,0.0,0.0,0.0,0.0,0.0,0.0,0.0,0.0,0.0,0.0,0.0,0.0,0.0,0.0,0.0,0.0,-3.5769,-3.5419,-3.5374,-3.4958,-3.4034,-3.4034,-3.3764,-3.3182,-3.4556,-3.5206,-3.5206,-3.417,-3.3756,-3.3705,-3.324,-3.2977,-3.2814,-3.2186,-3.1479,-3.0642,-3.0096,-2.9437,-2.8779,-2.8779,0.0,0.0,0.0,0.0,0.0,0.0,0.0,0.0,-2.6774,-2.5869,-2.4646,-2.3411,-2.2636,-2.1638,-1.8873,-1.7722,-1.6636,-1.4038,-1.2443,-1.1163,-0.9837,-0.8506,-0.7419,-0.6683,-0.642,-0.642,-0.642,-0.642,-0.6613,-0.7265,-0.6806,-0.6872,-0.8102,-0.8361,-0.8683,-0.9326,-1.004,-1.0561,-1.0561,-1.0624,-1.0807,-1.1358,-1.1483,-1.2035,-1.3321,-1.3442,-1.4043,-1.5294,-1.5468,-1.6265,-1.7611,-1.7833,-1.836,-1.9059,-1.9676,-2.0526,-2.1577,-2.1993,-2.2297,-2.2526,-2.311,-2.3569,-2.3973,-2.4208,-2.4302,-2.4302,-2.4343,-2.4574,-2.4942,-2.5389,-2.5762,-2.6104,0.0,0.0,0.0,0.0,0.0,0.0,0.0,0.0,0.0,0.0,0.0,0.0,0.0,0.0,0.0,0.0,0.0,0.0,0.0,0.0,-3.382,-3.3735,-3.3735,-3.3582,-3.3423,-3.3407,-3.3303,-3.3182,-3.3515,-3.3687,-3.3652,-3.2929,-3.2594,-3.254,-3.1875,-3.114,-3.0297,-3.0164,-2.9175,-2.7726,-2.761,-2.7122,-2.6491,-2.6491,-2.6491,0.0,0.0,0.0,0.0,0.0,0.0,0.0,-2.6,-2.5201,-2.4164,-2.3603,-2.248,-2.0998,-1.8529,-1.7568,-1.6677,-1.4141,-1.2458,-1.1163,-0.9837,-0.8963,-0.8261,-0.7424,-0.6806,-0.642,-0.642,-0.642,-0.6486,-0.6613,-0.6482,-0.6482,-0.6806,-0.7326,-0.7972,-0.8619,-0.9326,-0.997,-1.0561,-1.0624,-1.0624,-1.0807,-1.124,-1.1849,-1.2696,-1.3191,-1.3881,-1.4675,-1.5313,-1.5989,-1.6765,-1.7946,-1.8836,-1.9459,-2.0563,-2.1415,-2.2113,-2.2221,-2.3091,-2.4513,-2.4156,-2.4388,-2.4928,-2.4491,-2.4302,-2.4343,-2.4639,-2.4823,-2.4981,-2.5726,-2.5835,-2.5726,0.0,0.0,0.0,0.0,0.0,0.0,0.0,0.0,0.0,0.0,0.0,0.0,0.0,0.0,0.0,0.0,0.0,0.0,0.0,0.0,0.0,-3.3182,-3.3182,-3.3093,-3.2841,-3.2841,-3.2501,-3.1916,-3.1916,-3.221,-3.2788,-3.1845,-3.1375,-3.136,-3.0426,-2.9652,-2.9115,-2.8498,-2.7641,-2.6793,-2.6441,-2.6132,-2.5783,-2.5783,-2.5783,-2.5783,-2.5783,0.0,0.0,0.0,0.0,0.0,0.0,0.0,-2.4405,-2.3717,-2.263,-2.1289,-1.9622,-1.8261,-1.6693,-1.4132,-1.2466,-1.1331,-1.0843,-1.0017,-0.9248,-0.8963,-0.7669,-0.6542,-0.655,-0.6477,-0.642,-0.642,-0.642,-0.642,-0.642,-0.7326,-0.8102,-0.849,-0.939,-1.0168,-1.0561,-1.0624,-1.0624,-1.0624,-1.087,-1.1483,-1.2451,-1.2948,-1.3631,-1.4556,-1.542,-1.6263,-1.7105,-1.8215,-1.9227,-2.0076,-2.1262,-2.2452,-2.358,-2.3269,-2.3716,-2.4659,-2.4457,-2.4737,-2.5228,-2.506,-2.5098,-2.5315,-2.5155,-2.5327,-2.5662,-2.5782,-2.5908,-2.6123,0.0,0.0,0.0,0.0,0.0,0.0,0.0,0.0,0.0,0.0,0.0,0.0,0.0,0.0,0.0,0.0,0.0,0.0,0.0,0.0,0.0,-3.2687,-3.2687,-3.2431,-3.1905,-3.1905,-3.1377,-3.0329,-3.0329,-3.0852,-3.1849,-3.0674,-3.0147,-3.0119,-2.89,-2.8274,-2.8107,-2.6967,-2.6425,-2.6286,-2.5716,-2.5522,-2.5522,-2.5522,-2.5522,-2.5522,-2.5522,-2.5522,-2.5522,-2.5522,0.0,0.0,0.0,0.0,-2.4664,-2.3793,-2.2913,-2.194,-2.0752,-1.8755,-1.6424,-1.4225,-1.2813,-1.1951,-1.197,-1.1115,-1.0319,-1.0408,-0.8684,-0.7018,-0.6962,-0.6743,-0.6548,-0.6416,-0.642,-0.642,-0.6548,-0.7582,-0.8361,-0.849,-0.9524,-1.0238,-1.0301,-1.0428,-1.0491,-1.0561,-1.0624,-1.1233,-1.2512,-1.2757,-1.3467,-1.4818,-1.5645,-1.6616,-1.7712,-1.855,-1.9506,-2.0568,-2.1962,-2.3365,-2.4841,-2.4549,-2.4427,-2.4515,-2.4705,-2.4979,-2.5353,-2.5615,-2.5925,-2.6228,-2.5689,-2.59,-2.6407,-2.5947,-2.6138,-2.6681,0.0,0.0,0.0,0.0,0.0,0.0,0.0,0.0,0.0,0.0,0.0,0.0,0.0,0.0,0.0,0.0,0.0,0.0,-3.2043,0.0,0.0,-3.0703,-3.0703,-3.045,-2.9922,-2.986,-2.9813,-2.9628,-2.9628,-2.969,-2.986,-2.9156,-2.8789,-2.8698,-2.749,-2.6704,-2.6126,-2.5527,-2.4958,-2.4437,-2.4358,-2.4332,-2.4332,-2.4332,-2.4332,-2.4332,-2.4332,-2.4332,-2.4332,-2.4332,-2.4332,0.0,0.0,0.0,-2.4112,-2.3582,-2.3056,-2.2229,-2.0194,-1.7675,-1.541,-1.4492,-1.4022,-1.3424,-1.2273,-1.177,-1.1378,-1.0796,-0.9569,-0.8435,-0.7831,-0.7531,-0.7134,-0.6482,-0.642,-0.6613,-0.726,-0.7521,-0.7847,-0.8425,-0.8683,-0.8882,-0.921,-0.9652,-1.0034,-1.0301,-1.0751,-1.1608,-1.2887,-1.2948,-1.377,-1.543,-1.5683,-1.6365,-1.741,-1.8725,-1.9644,-2.0346,-2.2669,-2.3895,-2.4147,-2.5163,-2.5856,-2.6117,-2.5624,-2.5582,-2.5987,-2.5762,-2.5756,-2.5802,-2.6122,-2.6331,-2.6432,-2.6713,-2.6639,-2.6553,0.0,0.0,0.0,0.0,0.0,0.0,0.0,0.0,0.0,0.0,0.0,0.0,0.0,0.0,0.0,-3.1546,-3.1144,-3.0749,-3.0225,-2.9964,-2.9732,-2.9594,-2.9594,-2.9532,-2.9407,-2.9407,-2.9219,-2.8967,-2.8967,-2.8776,-2.839,-2.8091,-2.7983,-2.8017,-2.6757,-2.5876,-2.5301,-2.4726,-2.4347,-2.4054,-2.3819,-2.37,-2.37,-2.3365,-2.3233,-2.3292,-2.3628,-2.37,-2.376,-2.3995,-2.4112,-2.4112,-2.4112,0.0,0.0,0.0,-2.3102,-2.1749,-1.9332,-1.7564,-1.6249,-1.5496,-1.497,-1.4477,-1.395,-1.3111,-1.2452,-1.2274,-1.1204,-0.9929,-0.8838,-0.8009,-0.7391,-0.7068,-0.6679,-0.6552,-0.7073,-0.7531,-0.7977,-0.8425,-0.8812,-0.9134,-0.9268,-0.9518,-0.9843,-1.0238,-1.0491,-1.1248,-1.2625,-1.3189,-1.4107,-1.5458,-1.6354,-1.7193,-1.7945,-1.9266,-2.0554,-2.1886,-2.2962,-2.3669,-2.4021,-2.4978,-2.566,-2.6136,-2.5852,-2.5936,-2.6323,-2.6184,-2.6431,-2.6871,-2.6637,-2.6857,-2.7279,-2.7048,-2.7036,-2.7121,0.0,0.0,0.0,0.0,0.0,0.0,0.0,0.0,0.0,0.0,0.0,0.0,0.0,0.0,0.0,0.0,-3.0332,-2.9785,-2.8776,-2.8712,-2.8712,-2.8698,-2.8698,-2.8712,-2.8739,-2.8803,-2.861,-2.8222,-2.8222,-2.7973,-2.7523,-2.7523,-2.7393,-2.7171,-2.6196,-2.5511,-2.4936,-2.4242,-2.3936,-2.3878,-2.3378,-2.321,-2.321,-2.2798,-2.2604,-2.2738,-2.3065,-2.3271,-2.3463,-2.3819,-2.3995,-2.4112,-2.4112,-2.4112,0.0,0.0,0.0,-2.1238,-1.916,-1.8069,-1.7407,-1.6665,-1.6069,-1.5569,-1.5463,-1.4571,-1.3658,-1.3556,-1.26,-1.1348,-1.0037,-0.888,-0.7977,-0.7657,-0.7199,-0.6937,-0.7265,-0.7787,-0.8236,-0.849,-0.8941,-0.9198,-0.9134,-0.9198,-0.9518,-0.9983,-1.0373,-1.1077,-1.2337,-1.3452,-1.4568,-1.5539,-1.6855,-1.7785,-1.8287,-1.9624,-2.1043,-2.2592,-2.2967,-2.3327,-2.3787,-2.4452,-2.5104,-2.5674,-2.5839,-2.6042,-2.6365,-2.6457,-2.693,-2.758,-2.7169,-2.7439,-2.8058,-2.7541,-2.7573,-2.7801,0.0,0.0,0.0,0.0,0.0,0.0,0.0,0.0,0.0,0.0,0.0,0.0,-3.2033,-3.1509,-3.0821,-2.9931,-2.987,-2.9484,-2.8556,-2.8492,-2.8325,-2.7908,-2.7842,0.0,-2.7146,-2.7335,-2.7403,-2.7335,-2.7456,-2.7523,-2.7523,-2.7523,-2.6935,-2.5926,-2.5837,-2.5511,-2.4936,-2.3872,-2.3463,-2.3403,-2.2859,-2.275,-2.2909,-2.2677,-2.275,-2.2836,-2.2677,-2.2992,-2.3403,-2.3403,-2.37,-2.4112,-2.4112,-2.4112,-2.3995,0.0,0.0,0.0,-2.0312,-1.9388,-1.8407,-1.8002,-1.7595,-1.7069,-1.6344,-1.5859,-1.5234,-1.3818,-1.3083,-1.2497,-1.1696,-1.0541,-0.9326,-0.8177,-0.8042,-0.8166,-0.8361,-0.8425,-0.849,-0.849,-0.8554,-0.8425,-0.8112,-0.8484,-0.8935,-0.9338,-1.0549,-1.1558,-1.2193,-1.3737,-1.5024,-1.6145,-1.6996,-1.7615,-1.8037,-1.941,-2.0462,-2.125,-2.247,-2.3148,-2.3148,-2.3787,-2.4394,-2.5061,-2.5674,-2.5893,-2.5948,-2.6351,-2.6759,-2.7174,-2.758,-2.7993,-2.8398,-2.8352,-2.8336,-2.8336,0.0,0.0,0.0,0.0,0.0,0.0,0.0,0.0,0.0,0.0,0.0,0.0,0.0,-3.0807,-2.9993,-2.8739,-2.8143,-2.7617,-2.7229,-2.7229,-2.7175,-2.6985,-2.6998,-2.693,-2.6794,-2.6863,-2.6998,-2.7079,-2.7268,-2.7403,-2.7403,-2.7469,-2.6922,-2.5824,-2.5824,-2.5301,-2.4413,-2.3658,-2.3403,-2.3343,-2.2653,-2.242,-2.2432,-2.2099,-2.2049,-2.2185,-2.2408,-2.2531,-2.2678,-2.2969,-2.333,-2.3641,-2.3641,-2.3878,-2.3995,-2.3522,-2.2475,-2.145,-2.1329,-2.0273,-1.9239,-1.931,-1.8989,-1.8369,-1.7513,-1.6871,-1.621,-1.5313,-1.3846,-1.2766,-1.2639,-1.1125,-0.9709,-0.8947,-0.8495,-0.8172,-0.8177,-0.8177,-0.8242,-0.8506,-0.8506,-0.8441,-0.8317,-0.8641,-0.8992,-0.9443,-1.0098,-1.094,-1.2074,-1.3142,-1.4122,-1.5175,-1.6378,-1.7552,-1.8654,-1.911,-1.9955,-2.1135,-2.1616,-2.2063,-2.2531,-2.316,-2.3564,-2.3872,-2.4865,-2.5564,-2.5893,-2.6056,-2.6351,-2.6707,-2.6878,-2.7423,-2.7989,-2.7989,-2.8201,-2.8411,0.0,0.0,0.0,0.0,0.0,0.0,0.0,0.0,0.0,0.0,0.0,0.0,0.0,0.0,-2.967,-2.8222,-2.7323,-2.6726,-2.6671,-2.6671,-2.6671,-2.6671,-2.6671,-2.6739,-2.6794,-2.6863,-2.6998,0.0,-2.7268,-2.7403,-2.7403,-2.7469,-2.7027,-2.6099,-2.5903,-2.5062,-2.3819,-2.3318,-2.3017,-2.2836,-2.2161,-2.1925,-2.1925,-2.1675,-2.1612,-2.1612,-2.1975,-2.2111,-2.2247,-2.2604,-2.3138,-2.3628,-2.339,-2.3569,-2.3878,-2.37,-2.2962,-2.2158,-2.2138,-2.1244,-2.0294,-2.0435,-1.9997,-1.9447,-1.8829,-1.793,-1.7033,-1.6507,-1.4934,-1.3494,-1.3243,-1.1898,-1.0521,-0.9646,-0.9069,-0.8683,-0.8247,-0.8187,-0.8252,-0.8452,-0.8587,-0.863,-0.863,-0.884,-0.9111,-0.944,-0.9892,-1.0679,-1.1786,-1.2785,-1.3995,-1.5305,-1.6376,-1.7482,-1.8654,-1.8911,-1.9562,-2.0741,-2.0996,-2.1463,-2.2197,-2.2641,-2.2919,-2.3148,-2.4221,-2.5048,-2.5619,-2.5839,-2.615,-2.651,-2.651,-2.693,-2.7575,-2.774,-2.7989,-2.8201,0.0,0.0,0.0,0.0,0.0,0.0,0.0,0.0,0.0,0.0,0.0,0.0,0.0,0.0,0.0,-2.8417,-2.7523,-2.7024,-2.7024,-2.7024,-2.7024,-2.7024,-2.7024,-2.7024,-2.7024,-2.7214,-2.7268,0.0,0.0,0.0,0.0,-2.7523,-2.7223,-2.6648,-2.6073,-2.4952,-2.3416,-2.2871,-2.2359,-2.1877,-2.1514,-2.1388,-2.1388,-2.1388,-2.1388,-2.1388,-2.1388,-2.1726,-2.2197,-2.2359,-2.3125,-2.3943,-2.3305,-2.3318,-2.3688,-2.3995,-2.3681,-2.3111,0.0,0.0,0.0,-2.1236,-2.0631,-2.0161,-2.0096,-1.9034,-1.7891,-1.7316,-1.6145,-1.4902,-1.3717,-1.2941,-1.1958,-1.0148,-0.9958,-0.9703,-0.8705,-0.8522,-0.8528,-0.8528,-0.8732,-0.894,-0.894,-0.9082,-0.9217,-0.9217,-1.0016,-1.0737,-1.139,-1.2841,-1.4641,-1.6793,-1.6862,-1.7226,-1.794,-1.8586,-1.9299,-2.0096,-2.0741,-2.1463,-2.2185,-2.2197,-2.2531,-2.3088,-2.3728,-2.4337,-2.5005,-2.5619,-2.615,-2.6457,-2.6457,-2.6707,-2.7122,-2.7575,-2.779,-2.784,0.0,0.0,0.0,0.0,0.0,0.0,0.0,0.0,0.0,0.0,0.0,0.0,-2.9889,-2.8889,-2.8157,-2.759,-2.7335,-2.7146,-2.7024,-2.7024,-2.7024,-2.7024,-2.7024,-2.7024,-2.7024,-2.7011,-2.7079,0.0,0.0,0.0,0.0,0.0,0.0,0.0,-2.6073,-2.5283,-2.4253,-2.3081,-2.2359,-2.1877,-2.1675,-2.1624,-2.1624,-2.1862,-2.1987,-2.1987,-2.1987,-2.1987,-2.1999,-2.2049,-2.2408,-2.2896,-2.3078,-2.3318,-2.3628,-2.3688,-2.3508,-2.3258,-2.3573,0.0,0.0,0.0,0.0,0.0,-2.0291,-1.977,-1.9365,-1.8824,-1.751,-1.6253,-1.5744,-1.4521,-1.3298,-1.2089,-1.1142,-1.0351,-0.9709,-0.9426,-0.9279,-0.9279,-0.9168,-0.9109,-0.9109,-0.933,-0.9475,-0.9475,-0.9838,-1.049,-1.1598,-1.3121,-1.4394,-1.5242,-1.5534,-1.6245,-1.7364,-1.7413,-1.8152,-1.9507,-2.0096,-2.0741,-2.1388,-2.1987,-2.2309,-2.2469,-2.31,-2.3669,-2.4381,-2.5425,-2.5948,-2.6056,-2.6056,-2.6297,-2.6654,-2.6826,-2.7034,-2.7342,0.0,0.0,0.0,0.0,0.0,0.0,0.0,0.0,0.0,0.0,0.0,0.0,-2.9205,-2.8157,-2.7469,-2.7403,-2.7403,-2.7335,-2.7214,-2.7214,-2.7214,-2.7214,-2.7214,-2.7214,-2.7214,-2.7214,-2.7214,0.0,0.0,0.0,0.0,0.0,0.0,0.0,0.0,-2.5677,-2.4965,-2.379,-2.2907,-2.2187,-2.1925,-2.1761,-2.1698,-2.1999,-2.2061,-2.2011,-2.2061,-2.1999,-2.1925,-2.1999,-2.2173,-2.242,-2.3125,-2.3258,-2.333,-2.3675,-2.3722,-2.3712,-2.4111,-2.3651,-2.2992,-2.2965,0.0,0.0,-2.0985,-2.0484,-2.0031,-1.9835,-1.8596,-1.7427,-1.6592,-1.5554,-1.4409,-1.3164,-1.2507,-1.1911,-1.1192,-1.0705,-1.0473,-1.0654,-1.0315,-1.0131,-1.0131,-1.0081,-1.016,-1.0234,-1.0066,-1.0519,-1.1484,-1.3025,-1.3897,-1.4099,-1.4974,-1.5816,-1.6498,-1.7001,-1.7891,-1.91,-1.9649,-2.0366,-2.1262,-2.1651,-2.2049,-2.2309,-2.2859,-2.3314,-2.3787,-2.5021,-2.5674,-2.5893,-2.5893,-2.6042,-2.6258,-2.6457,-2.6669,-2.6916,0.0,0.0,0.0,0.0,0.0,0.0,0.0,0.0,0.0,0.0,0.0,-2.978,-2.8546,-2.7842,-2.7523,-2.7523,-2.7523,-2.7523,-2.7523,-2.7523,-2.7523,-2.7523,-2.7523,-2.7523,-2.7523,-2.7523,-2.7523,0.0,0.0,0.0,0.0,0.0,0.0,0.0,0.0,0.0,-2.5605,-2.4708,-2.3741,-2.2847,-2.2211,-2.1874,-2.1761,-2.1874,-2.1874,-2.1761,-2.1874,-2.1925,-2.1937,-2.2123,-2.2197,-2.2371,-2.3173,-2.3125,-2.286,-2.378,-2.406,-2.4176,-2.4465,-2.4279,-2.3872,-2.3497,-2.275,0.0,-2.2002,-2.1112,-2.0355,-2.0549,-1.9693,-1.8416,-1.6977,-1.6468,-1.5773,-1.4161,-1.4329,-1.4202,-1.2925,-1.223,-1.194,-1.228,-1.199,-1.1631,-1.1559,-1.1193,-1.1031,-1.1111,-1.0588,-1.0663,-1.1335,-1.2652,-1.339,-1.3302,-1.4824,-1.5596,-1.5632,-1.6922,-1.7969,-1.87,-1.933,-2.0183,-2.1198,-2.1325,-2.1776,-2.2347,-2.2871,-2.3148,-2.3433,-2.4394,-2.5216,-2.5784,-2.5893,-2.5893,-2.5948,-2.6297,-2.6404,-2.6563,-3.5616,0.0,0.0,0.0,0.0,0.0,0.0,0.0,0.0,0.0,-2.9532,-2.8597,-2.7776,-2.759,-2.7523,-2.7523,-2.7523,-2.7523,-2.7523,-2.7523,-2.7523,-2.7523,-2.7523,-2.7523,-2.7523,-2.7523,-2.7523,0.0,0.0,0.0,0.0,0.0,0.0,0.0,0.0,0.0,-2.6734,-2.5132,-2.4465,-2.4408,-2.322,-2.2396,-2.1874,-2.2061,-2.2135,-2.2135,-2.2123,-2.2123,-2.2135,-2.2197,-2.2197,-2.2247,-2.2432,-2.2555,-2.286,-2.3531,-2.3884,-2.4247,-2.4765,-2.4835,-2.4593,-2.3872,-2.3564,0.0,-2.2592,-2.199,-2.1565,-2.1628,-2.079,-1.9876,-1.9174,-1.8783,-1.8321,-1.7643,-1.7714,-1.6951,-1.4202,-1.3827,-1.387,-1.3934,-1.3683,-1.3251,-1.2622,-1.2458,-1.2057,-1.1186,-1.1111,-1.126,-1.1409,-1.2445,-1.2893,-1.2519,-1.368,-1.4601,-1.5076,-1.6228,-1.7304,-1.8134,-1.9142,-1.9736,-1.9987,-2.106,-2.1628,-2.1815,-2.2469,-2.3065,-2.3564,-2.3623,-2.4266,-2.523,-2.5729,-2.5893,-2.5893,-2.6002,-2.6002,-2.615,-3.5316,0.0,0.0,0.0,0.0,0.0,0.0,0.0,0.0,-3.0644,-2.9345,-2.8222,-2.759,-2.7523,-2.7523,-2.7523,-2.7523,-2.7523,-2.7523,-2.7523,-2.7523,-2.7523,-2.7523,-2.7523,-2.7523,-2.7523,-2.7523,0.0,0.0,0.0,0.0,0.0,0.0,0.0,0.0,0.0,-2.7446,-2.588,-2.5104,-2.4878,-2.3505,-2.2798,-2.2457,-2.2309,-2.2197,-2.2197,-2.2197,-2.2197,-2.2197,-2.2197,-2.2197,-2.2197,-2.2197,-2.2321,-2.2604,-2.3518,-2.393,-2.4221,-2.5005,-2.5257,-2.5131,-2.4523,-2.4221,0.0,0.0,-2.2847,-2.2421,-2.2298,-2.1854,-2.1265,-2.0496,-2.0282,-1.9867,-1.895,-1.9083,-1.8722,-1.6974,-1.6522,-1.6181,-1.5687,-1.5504,-1.5114,-1.4291,-1.3643,-1.2851,-1.1929,-1.1855,-1.1855,-1.1855,-1.2305,-1.2298,-1.1706,-1.3018,-1.389,-1.4235,-1.5384,-1.6594,-1.7725,-1.8539,-1.9208,-1.9802,-2.0431,-2.1123,-2.1753,-2.2013,-2.2519,-2.3125,-2.3267,-2.3787,-2.4567,-2.5216,-2.5619,-2.5893,-2.5893,-2.5893,-2.6002,-3.5071,0.0,0.0,0.0,0.0,0.0,0.0,0.0,0.0,-3.0389,-2.9219,-2.8222,-2.759,-2.7523,-2.7523,-2.7523,-2.7523,-2.7523,-2.7523,-2.7523,-2.7523,-2.7523,-2.7523,-2.7523,-2.7523,-2.7523,-2.759,0.0,0.0,0.0,0.0,0.0,0.0,0.0,0.0,0.0,-2.7795,-2.6565,-2.5674,-2.5048,-2.393,-2.3327,-2.3027,-2.242,-2.2197,-2.2197,-2.2197,-2.2197,-2.2197,-2.2197,-2.2197,-2.2197,-2.2197,-2.2309,-2.2592,-2.3682,-2.4092,-2.4394,-2.53,-2.5522,-2.5315,-2.501,-2.4509,-2.4103,0.0,0.0,0.0,-2.2942,-2.2774,-2.2456,-2.1536,-2.1452,-2.1117,-2.0014,-2.0254,-2.0469,-2.0161,-1.9669,-1.8902,-1.7697,-1.7307,-1.6954,-1.6219,-1.4791,-1.3658,-1.3025,-1.2666,-1.2445,-1.2305,-1.2305,-1.1855,-1.0887,-1.2432,-1.3164,-1.3011,-1.4585,-1.5948,-1.7019,-1.792,-1.8741,-1.9605,-1.9868,-2.0624,-2.1753,-2.1678,-2.2075,-2.2739,-2.3053,-2.3505,-2.415,-2.4765,-2.5397,-2.5893,-2.5893,-2.5893,-2.5948,-3.4977,-3.4899,0.0,0.0,0.0,0.0,0.0,0.0,0.0,-2.9766,-2.8967,-2.8222,-2.759,-2.7523,-2.7523,-2.7523,-2.7523,-2.7523,-2.7523,-2.7523,-2.7523,-2.7523,-2.7523,-2.7523,-2.7523,-2.7523,-2.7776,-2.8417,0.0,0.0,0.0,0.0,0.0,0.0,-2.9189,-2.824,-2.7736,-2.684,-2.6204,-2.5729,-2.5048,-2.4105,-2.3027,-2.242,-2.2197,-2.2197,-2.2197,-2.2197,-2.2197,-2.2197,-2.2197,-2.2197,-2.2197,-2.2592,-2.3148,-2.3787,-2.4394,-2.5048,-2.5674,-2.5446,-2.4987,-2.4652,-2.4092,-2.3726,-2.3987,0.0,-2.342,-2.4,0.0,-2.3002,-2.288,0.0,0.0,-2.2827,-2.2997,-2.3022,-2.2673,-2.3043,-2.2456,-1.9998,-1.9166,-1.8479,-1.7697,-1.5773,-1.4458,-1.4386,-1.3745,-1.3025,-1.2372,-1.2305,-1.1632,-1.0067,-1.1632,-1.2063,-1.1378,-1.4068,-1.5446,-1.5658,-1.7423,-1.8337,-1.8539,-1.9584,-2.0484,-2.1187,-2.1803,-2.2384,-2.2848,-2.2787,-2.3365,-2.4279,-2.4821,-2.5397,-2.5893,-2.5893,-2.5893,-2.5948,-3.4977,-3.4899,0.0,0.0,0.0,0.0,0.0,0.0,0.0,-2.9705,-2.8998,-2.8208,-2.713,-2.6722,-2.6725,-2.7261,-2.7157,-2.7249,-2.7789,-2.7603,-2.7523,-2.7523,-2.7842,-2.8091,-2.8222,-2.8661,-2.9016,-2.9393,-2.9827,0.0,0.0,0.0,0.0,0.0,-2.9829,-2.8946,-2.8316,-2.706,-2.6404,-2.6204,-2.5328,-2.4708,-2.4105,-2.31,-2.2469,-2.2197,-2.2197,-2.2197,-2.2197,-2.2197,-2.2197,-2.2197,-2.2197,-2.2359,-2.2763,-2.3741,-2.4208,-2.4624,-2.5605,-2.5444,-2.498,-2.4822,-2.4361,-2.3881,-2.3818,-2.3647,-2.3636,-2.4077,0.0,0.0,0.0,0.0,0.0,0.0,-2.3813,-2.3813,-2.3644,-2.3833,-2.3276,-2.1409,-2.098,-2.0009,-1.8093,-1.7755,-1.7073,-1.5658,-1.5685,-1.5184,-1.4019,-1.3215,-1.2345,-1.1335,-1.1484,-1.1916,-1.2492,-1.3658,-1.4887,-1.6097,-1.7226,-1.793,-1.8337,-1.9131,-2.0096,-2.1135,-2.1376,-2.2075,-2.2909,-2.2739,-2.3125,-2.38,-2.4221,-2.5034,-2.5893,-2.5893,-2.5893,-2.5948,-3.4977,0.0,0.0,0.0,0.0,0.0,0.0,0.0,-3.0832,-2.9639,-2.8895,-2.7973,-2.6823,-2.633,-2.6343,-2.7133,-2.6999,-2.7288,-2.8183,-2.7868,-2.7789,-2.7973,-2.8481,-2.8853,-2.9093,-2.958,-3.0011,-3.0254,0.0,0.0,0.0,0.0,0.0,0.0,-3.0281,-2.9456,-2.8517,-2.7365,-2.6721,-2.6457,-2.5701,-2.5216,-2.4878,-2.3741,-2.298,-2.2482,-2.2482,-2.2359,-2.2197,-2.2197,-2.2197,-2.2197,-2.2197,-2.242,-2.2884,-2.3728,-2.4253,-2.4724,-2.566,-2.5331,-2.4727,-2.4727,-2.4188,-2.3539,-2.3405,-2.3344,-2.3458,-2.3917,-2.4015,0.0,0.0,0.0,-2.4523,-2.4478,0.0,-2.4523,-2.4654,-2.4597,-2.404,-2.2735,-2.2457,-2.1448,-1.9238,-1.9608,-1.9291,-1.7552,-1.7474,-1.6917,-1.5703,-1.4411,-1.3273,-1.2492,-1.199,-1.2204,-1.315,-1.3593,-1.4601,-1.6315,-1.7019,-1.7716,-1.8337,-1.8875,-1.9846,-2.1123,-2.1071,-2.1765,-2.2909,-2.2678,-2.2884,-2.3301,-2.361,-2.4553,-2.5674,-2.5839,-2.5893,-2.5893,-3.4977,-3.4899,-3.4899,-3.4899,-3.3935,0.0,0.0,-3.0956,-3.0297,-2.9581,-2.8496,-2.7471,-2.6769,-2.6675,-2.6841,-2.7173,-2.7367,-2.7776,-2.8522,-2.8276,-2.8457,-2.9233,-2.9233,-2.9484,-2.995,-2.995,-3.0315,-3.0984,-3.113,0.0,0.0,0.0,0.0,0.0,-3.0509,-2.9561,-2.8095,-2.7859,-2.7255,-2.651,-2.6457,-2.5865,-2.4935,-2.4208,-2.361,-2.3088,-2.3088,-2.2702,-2.2197,-2.2197,-2.2197,-2.2197,-2.2197,-2.2992,-2.3962,-2.3962,-2.4894,-2.5839,-2.5893,-2.5008,-2.4146,-2.4146,-2.3216,-2.2348,-2.2643,-2.2732,-2.2912,-2.3598,-2.3716,-2.3863,-2.4408,-2.4487,-2.4694,-2.5369,-2.5439,0.0,0.0,-2.6096,-2.537,-2.4079,-2.3382,-2.2675,-2.1969,-2.1026,-2.0467,-2.0403,-1.8818,-1.7571,-1.6771,-1.5694,-1.4419,-1.286,-1.3208,-1.307,-1.2231,-1.3787,-1.4887,-1.5446,-1.6802,-1.7716,-1.8337,-1.8875,-1.9846,-2.106,-2.0955,-2.1651,-2.2848,-2.2543,-2.275,-2.3314,-2.3195,-2.393,-2.5118,-2.5674,-2.5893,-2.5893,-3.4977,-3.4994,-3.4994,-3.4899,-3.4284,-3.3387,-3.2287,-3.1222,-3.0451,-3.0395,-2.9283,-2.8467,-2.8282,-2.7949,-2.8008,-2.8729,-2.8638,-2.8946,-2.9827,-2.9247,-2.917,-2.9718,-2.9903,-3.0194,-3.0763,-3.1218,-3.1637,-3.1921,-3.1962,0.0,0.0,0.0,0.0,0.0,-3.0416,-2.9644,-2.8258,-2.7931,-2.7625,-2.7306,-2.6721,-2.6136,-2.5508,-2.4921,-2.4266,-2.3669,-2.3669,-2.3327,-2.2811,-2.2811,-2.2531,-2.2197,-2.2197,-2.2763,-2.3492,-2.3904,-2.4624,-2.5301,-2.528,-2.4737,-2.4005,-2.3533,-2.2692,-2.1944,-2.2056,-2.1966,-2.2046,-2.2725,-2.2858,-2.3082,-2.3811,-2.3955,-2.4209,-2.5063,-2.5384,-2.5756,0.0,-2.6616,-2.6534,-2.6119,-2.5022,-2.3968,-2.3149,-2.2602,-2.1956,-2.0923,-2.0534,-1.964,-1.7988,-1.721,-1.5948,-1.4068,-1.3658,-1.3513,-1.378,-1.4434,-1.5305,-1.6394,-1.7382,-1.7862,-1.792,-1.8472,-1.9187,-2.015,-2.0537,-2.1187,-2.2075,-2.2285,-2.2531,-2.275,-2.3446,-2.3975,-2.4394,-2.5048,-2.5564,-2.5948,-3.5071,-3.5041,-3.5088,-3.4994,-3.448,-3.3748,-3.2602,-3.154,-3.0894,-3.0815,-2.9744,-2.9009,-2.9119,-2.881,-2.8829,-2.9551,-2.9491,-2.9748,-3.0615,-3.0101,-2.9964,-3.0569,-3.0763,-3.1043,-3.1592,-3.2048,-3.2287,-3.2398,-3.2586,-3.2695,0.0,0.0,0.0,0.0,0.0,-2.9673,-2.8396,-2.8103,-2.794,-2.774,-2.6826,-2.6258,-2.5839,-2.5453,-2.4921,-2.4337,-2.4337,-2.3975,-2.3446,-2.3446,-2.304,-2.2531,-2.2763,-2.31,-2.3551,-2.415,-2.4808,-2.526,-2.5043,-2.4582,-2.3963,-2.3266,-2.2442,-2.1793,-2.1664,-2.1471,-2.1385,-2.179,-2.1995,-2.2387,-2.3339,-2.3592,-2.4037,-2.5232,-2.5632,-2.6,0.0,-2.7086,-2.7342,-2.7342,-2.639,-2.5481,-2.4703,-2.4346,-2.3546,-2.2189,-2.188,-2.1078,-1.9486,-1.8449,-1.7357,-1.6,-1.5084,-1.4887,-1.5392,-1.5525,-1.6167,-1.7176,-1.7657,-1.793,-1.7988,-1.8337,-1.8931,-1.9628,-2.0279,-2.0921,-2.1628,-2.2099,-2.2469,-2.275,-2.3446,-2.3975,-2.4452,-2.5104,-2.5564,-2.5948,-3.5258,-3.5105,-3.5088,-3.5105,-3.461,-3.3818,-3.2656,-3.2013,-3.1489,-3.0955,-2.9939,-2.9233,-2.9262,-2.9246,-2.9377,-2.9682,-2.9954,-3.0389,-3.1029,-3.0763,-3.0881,-3.1667,-3.1724,-3.1951,-3.2437,-3.2382,-3.2453,-3.2492,-3.2933,0.0,0.0,0.0,0.0,0.0,-3.0705,-2.9673,-2.8444,-2.8396,-2.8152,-2.774,-2.6878,-2.6312,-2.5948,-2.5893,-2.5564,-2.5061,-2.5061,-2.4637,-2.4021,-2.4021,-2.3682,-2.3255,-2.3846,-2.4021,-2.415,-2.4821,-2.5453,-2.5753,-2.5107,-2.4568,-2.3949,-2.3224,-2.2414,-2.1712,-2.1471,-2.118,-2.0997,-2.0997,-2.1233,-2.1799,-2.2974,-2.346,-2.4204,-2.5793,-2.6122,-2.639,-2.7071,-2.756,-2.784,-2.784,-2.7458,-2.7019,-2.6616,-2.5986,-2.519,-2.4137,-2.2892,-2.1868,-2.1187,-1.953,-1.8603,-1.8499,-1.7501,-1.6899,-1.6899,-1.6908,-1.7166,-1.7706,-1.7706,-1.7988,-1.8482,-1.8482,-1.8865,-1.9628,-2.0161,-2.0869,-2.1616,-2.2049,-2.2641,-2.3255,-2.3195,-2.3917,-2.5118,-2.5674,-2.5893,-2.5948,-3.5633,-3.535,-3.5291,-3.54,-3.4802,-3.4235,-3.3818,-3.2955,-3.2345,-3.2299,-3.1703,-3.135,-3.1509,-3.1541,-3.1591,-3.1663,-3.1758,-3.1864,-3.2048,-3.1652,-3.1652,-3.2176,-3.1894,-3.2104,-3.2986,-3.2586,-3.2803,-3.3578,-3.3355,-3.3391,-3.3767,0.0,0.0,0.0,0.0,-3.0207,-2.892,-2.8525,-2.8152,-2.774,-2.7188,-2.6721,-2.6297,-2.6002,-2.5784,-2.5674,-2.5674,-2.5272,-2.4765,-2.4765,-2.4337,-2.3787,-2.3962,-2.4337,-2.4765,-2.4948,-2.5453,-2.5655,-2.4638,-2.423,-2.385,-2.269,-2.1965,-2.1471,-2.1423,-2.1082,-2.0799,-2.0799,-2.0867,-2.1223,-2.2392,-2.2991,-2.385,-2.5451,-2.6654,-2.7509,-2.7989,-2.8152,-2.825,-2.825,-2.8024,-2.781,-2.7524,-2.6347,-2.5522,-2.519,-2.3704,-2.2564,-2.1868,-2.0935,-1.969,-1.8103,-1.7784,-1.7394,-1.6872,-1.7019,-1.7364,-1.793,-1.8056,-1.8134,-1.8144,-1.8144,-1.8529,-1.9166,-1.9901,-2.0549,-2.125,-2.1925,-2.258,-2.3195,-2.361,-2.4553,-2.5674,-2.5839,-2.5893,-2.5893,-3.5837,-3.5549,-3.5446,-3.552,-3.5195,-3.4769,-3.4333,-3.3844,-3.3333,-3.2848,-3.2866,-3.2719,-3.2351,-3.2586,-3.2641,-3.2453,-3.2398,-3.2398,-3.2398,-3.2367,-3.2461,-3.2749,-3.2734,-3.2986,-3.3563,-3.3251,-3.3423,-3.3986,-3.3903,-3.4053,-3.4333,0.0,0.0,0.0,0.0,-3.0609,-2.909,-2.8621,-2.8152,-2.774,-2.7291,-2.6864,0.0,-2.6042,-2.5893,-2.5893,-2.5893,-2.5674,-2.5397,-2.5397,-2.4978,-2.4509,-2.4724,-2.4921,-2.5061,-2.5342,-2.5424,-2.5289,-2.4385,-2.3906,-2.3407,-2.2281,-2.1712,-2.1375,-2.1229,-2.0947,-2.0699,-2.0699,-2.0699,-2.1066,-2.2165,-2.2871,-2.3843,-2.5841,-2.7174,-2.8039,-2.8299,-2.8348,-2.8411,-2.8411,-2.8299,-2.8137,-2.8039,-2.6797,-2.5859,-2.5441,-2.4108,-2.3176,-2.2799,-2.1701,-2.0676,-1.976,-1.8906,-1.8476,-1.8277,-1.7841,-1.7927,-1.8462,-1.8269,-1.8269,-1.8462,-1.8462,-1.8787,-1.9507,-2.0226,-2.0741,-2.1187,-2.2199,-2.2932,-2.3551,-2.4483,-2.5356,-2.615,-2.615,-2.6042,-2.5948,-3.6097,-3.5756,-3.5566,-3.5667,-3.5667,-3.5362,-3.4673,-3.4723,-3.4415,-3.3214,-3.3665,-3.3681,-3.2547,-3.2949,-3.3093,-3.2656,-3.2602,-3.2602,-3.2602,-3.3055,-3.3287,-3.3287,-3.3767,-3.4036,-3.4086,-3.4036,-3.4086,-3.4235,-3.4625,-3.4833,0.0,0.0,0.0,0.0,-3.2125,-3.084,-2.9074,-2.8653,-2.8235,-2.784,-2.7393,-2.6982,-2.651,-2.615,-2.5948,-2.5893,-2.5893,-2.5893,-2.5893,-2.5893,-2.5564,-2.523,-2.5729,-2.5564,-2.523,-2.5729,-2.5458,-2.484,-2.4272,-2.3589,-2.2846,-2.1993,-2.1568,-2.1277,-2.1033,-2.0898,-2.0799,-2.0799,-2.0848,-2.1255,-2.2392,-2.3203,-2.4441,-2.6659,-2.766,-2.8186,-2.8186,-2.8299,-2.8348,-2.8348,-2.825,0.0,-2.8348,-2.7291,-2.6327,-2.5466,-2.439,-2.3756,-2.3715,-2.2166,-2.1488,-2.2103,-2.0415,-1.9648,-1.9998,-1.9029,-1.8705,-1.9017,-1.8499,-1.8596,-1.911,-1.911,-1.9573,-2.0226,-2.0869,-2.1187,-2.1428,-2.2592,-2.3492,-2.4253,-2.5481,-2.6204,-2.651,-2.6563,-2.6365,-2.6096,-3.7017,-3.6374,-3.5881,-3.6131,-3.5871,-3.556,-3.5424,-3.5424,-3.5195,-3.448,-3.4545,-3.4431,-3.3783,-3.3767,-3.3818,-3.3732,-3.3716,-3.3716,-3.3716,-3.3818,-3.3869,-3.3869,-3.3935,-3.4235,-3.4673,-3.4235,-3.4431,-3.5316,-3.4975,-3.5021,0.0,0.0,0.0,0.0,-3.2121,-3.0705,-2.9074,-2.8997,-2.8685,-2.825,-2.7825,-2.7408,-2.6967,-2.6563,-2.6204,-2.5893,-2.5893,-2.5893,-2.5893,-2.5893,-2.5839,-2.5784,-2.5893,-2.5839,-2.5784,-2.5893,-2.5458,-2.484,-2.4272,-2.344,-2.2602,-2.1945,-2.1423,-2.1033,-2.0997,-2.1131,-2.1277,-2.1277,-2.1589,-2.2235,-2.3483,-2.5137,-2.6586,-2.7479,-2.784,-2.8069,-2.8069,-2.8137,-2.8235,-2.8235,-2.8103,-2.8103,-2.8235,-2.7725,-2.7125,-2.6489,-2.5255,-2.4493,-2.4405,-2.2865,-2.2008,-2.2091,-2.126,-2.0333,-1.9454,-1.9694,-1.963,-1.9264,-1.9587,-1.977,-1.9901,-1.9901,-2.0291,-2.0933,-2.1071,-2.1741,-2.2786,-2.3027,-2.38,-2.4935,-2.5974,-2.6457,-2.6563,-2.6864,-2.6967,-2.6916,-3.7188,-3.6684,-3.6333,-3.6557,-3.6416,-3.6224,-3.6002,-3.5958,-3.5633,-3.4769,-3.4975,-3.4864,-3.4003,-3.4219,-3.4284,-3.402,-3.3986,-3.3986,-3.3986,-3.4284,-3.4431,-3.4431,-3.4673,-3.4975,-3.5224,-3.4975,-3.5068,-3.5622,-3.5316,-3.516,0.0,0.0,0.0,-3.2797,-3.155,-3.058,-2.9777,-2.9303,-2.8951,-2.87,-2.8073,-2.7675,-2.7393,-2.6774,-2.6351,-2.6204,-2.5988,-2.5798,-2.5688,-2.5839,-2.5893,-2.5893,-2.5893,-2.5893,-2.5893,-2.5893,-2.5233,-2.4498,-2.4202,-2.3216,-2.2118,-2.1684,-2.1277,-2.1033,-2.118,-2.1326,-2.1458,-2.1732,-2.1955,-2.2555,-2.4183,-2.5474,-2.6572,-2.7515,-2.779,-2.7905,-2.7905,-2.8005,-2.8103,-2.8103,-2.8005,-2.7955,-2.8103,-2.784,-2.7455,-2.6889,-2.5473,-2.4718,-2.5067,-2.3555,-2.2807,-2.3157,-2.2213,-2.1607,-2.1252,-2.0671,-2.0432,-2.0506,-2.0116,-2.0161,-2.0613,-2.0613,-2.1008,-2.1663,-2.2002,-2.247,-2.3148,-2.38,-2.4624,-2.5564,-2.6244,-2.6616,-2.6864,-2.7291,-2.761,-2.776,-3.7301,-3.7034,-3.6821,-3.7017,-3.6939,-3.6729,-3.6266,-3.6167,-3.5865,-3.4908,-3.5253,-3.527,-3.4301,-3.4657,-3.4769,-3.4382,-3.4186,-3.4105,-3.4105,-3.4341,-3.4509,-3.4509,-3.4908,-3.5148,-3.5148,-3.5148,-3.5148,-3.5148,-3.5148,-3.4844,-3.4252,-3.41,-3.3322,-3.2019,-3.1072,-3.0518,-3.0309,-2.9556,-2.9136,-2.8858,-2.8171,-2.784,-2.764,-2.6945,-2.6563,-2.6297,-2.6002,-2.5688,-2.5425,-2.5633,-2.5729,-2.5729,-2.5729,-2.5729,-2.5729,-2.5729,-2.4947,-2.4068,-2.3928,-2.2879,-2.1766,-2.1547,-2.1277,-2.118,-2.1458,-2.165,-2.1827,-2.2189,-2.2473,-2.3102,-2.4761,-2.5526,-2.627,-2.7405,-2.7675,-2.774,-2.774,-2.7855,-2.7955,-2.7955,-2.7855,-2.784,-2.7955,-2.784,-2.7614,-2.7294,-2.5821,-2.5081,-2.5457,-2.4096,-2.3546,-2.4105,-2.3051,-2.2636,-2.2962,-2.1729,-2.1292,-2.1575,-2.0737,-2.0677,-2.1198,-2.1325,-2.1714,-2.2359,-2.2992,-2.3327,-2.3623,-2.4794,-2.5605,-2.6096,-2.6563,-2.6982,-2.7342,-2.786,-2.8268,-2.8525,-3.781,-3.7559,-3.7339,-3.7432,-3.7132,-3.6632,-3.5875,-3.577,-3.5717,-3.5548,-3.556,-3.5577,-3.5424,-3.547,-3.5515,-3.547,-3.4846,-3.4442,-3.4442,-3.3878,-3.3524,-3.3524,-3.3567,-3.3609,-3.3609,-3.3609,-3.3609,-3.3609,-3.3609,-3.3575,-3.3491,-3.2814,-3.207,-3.1292,-3.1168,-3.0658,-2.9837,-2.975,-2.9166,-2.8284,-2.8186,-2.789,-2.7452,-2.735,-2.675,-2.5948,-2.5893,-2.5508,-2.5061,-2.5061,-2.5061,-2.5061,-2.5061,-2.5061,-2.5061,-2.5061,-2.4599,-2.3974,-2.3455,-2.2609,-2.1851,-2.1787,-2.1568,-2.1458,-2.1955,-2.242,-2.2754,-2.2799,-2.3642,-2.461,-2.5371,-2.609,-2.6747,-2.7455,-2.7625,-2.7625,-2.7625,-2.774,-2.784,-2.784,-2.779,-2.779,-2.784,-2.7675,-2.778,-2.8163,-2.6984,-2.6015,-2.5523,-2.4459,-2.3981,-2.4105,-2.3374,-2.2836,-2.2397,-2.2718,-2.2454,-2.1595,-2.1982,-2.1987,-2.1635,-2.2111,-2.2457,-2.2859,-2.3339,-2.4047,-2.4878,-2.5906,-2.6404,-2.651,-2.7372,-2.7675,-2.7825,-2.8669,-2.8982,-2.909,-3.6494,-3.6391,-3.6357,-3.6476,-3.6341,-3.6024,-3.5439,-3.535,-3.5238,-3.4955,-3.4927,-3.4927,-3.4927,-3.4758,-3.4626,-3.4626,-3.4377,-3.4206,-3.4206,-3.4123,-3.3968,-3.3761,-3.3761,-3.3656,-3.3406,-3.3406,-3.3406,-3.3406,-3.3406,-3.3169,-3.273,-3.2425,-3.1901,-3.119,-3.119,-3.0975,-3.0576,-2.9951,-2.9422,-2.8966,-2.8365,-2.7955,-2.7755,-2.7503,-2.713,-2.675,-2.6472,-2.5865,-2.5314,-2.5646,-2.5425,-2.5005,-2.5005,-2.5005,-2.5005,-2.5005,-2.4584,-2.3987,-2.335,-2.279,-2.2228,-2.1897,-2.1827,-2.1955,-2.2466,-2.2754,-2.2979,-2.3246,-2.3688,-2.4343,-2.5405,-2.5824,-2.6348,-2.7445,-2.7625,-2.7625,-2.7625,-2.7894,-2.7993,-2.7725,-2.7944,-2.7993,-2.7725,-2.7625,-2.766,-2.7894,-2.7089,-2.6637,-2.6695,-2.539,-2.4622,-2.4637,-2.4028,-2.3585,-2.3354,-2.3335,-2.3144,-2.2799,-2.2737,-2.2665,-2.2543,-2.2714,-2.3125,-2.3636,-2.3989,-2.458,-2.5369,-2.615,-2.651,-2.6563,-2.7473,-2.7959,-2.8319,-2.8889,-2.9257,-2.9572,-3.5836,-3.5792,-3.581,-3.5908,-3.5864,-3.5616,-3.5032,-3.4945,-3.4773,-3.4251,-3.4199,-3.4253,-3.4475,-3.43,-3.4142,-3.4142,-3.3934,-3.3813,-3.3813,-3.3855,-3.377,-3.3505,-3.3505,-3.3352,-3.3077,-3.3077,-3.3077,-3.3077,-3.3077,-3.2804,-3.2312,-3.2173,-3.1783,-3.119,-3.119,-3.1095,-3.0878,-2.9978,-2.948,-2.918,-2.8301,-2.7905,-2.784,-2.7554,-2.7335,-2.7181,-2.6841,-2.6176,-2.5563,-2.6014,-2.5742,-2.5216,-2.5216,-2.5216,-2.5216,-2.5216,-2.4915,-2.445,-2.3873,-2.3358,-2.2936,-2.2544,-2.2376,-2.2452,-2.2979,-2.3113,-2.3201,-2.3508,-2.3759,-2.4253,-2.539,-2.5764,-2.6258,-2.738,-2.771,-2.781,-2.781,-2.8222,-2.84,-2.8091,-2.8207,-2.8158,-2.7845,-2.766,-2.766,-2.7795,-2.7291,-2.7071,-2.7232,-2.6162,-2.5328,-2.5005,-2.462,-2.4287,-2.4112,-2.376,-2.3582,-2.3509,-2.321,-2.3017,-2.2932,-2.3173,-2.3708,-2.4421,-2.4794,-2.5258,-2.5853,-2.6578,-2.6878,-2.6982,-2.7845,-2.8367,-2.8764,-2.9332,-2.9733,-3.0054,-3.6389,-3.6278,-3.6172,-3.6172,-3.597,-3.5548,-3.4751,-3.4624,-3.4304,-3.3538,-3.3429,-3.3696,-3.4407,-3.4491,-3.4491,-3.4491,-3.3825,-3.3423,-3.3423,-3.2739,-3.23,-3.23,-3.23,-3.23,-3.23,-3.23,-3.23,-3.23,-3.23,-3.23,-3.2283,-3.1913,-3.1542,-3.119,-3.119,-3.0878,-3.0293,-2.9805,-2.918,-2.8463,-2.7974,-2.774,-2.7625,-2.7625,-2.7255,-2.6736,-2.6683,-2.6283,-2.5783,-2.5783,-2.5783,-2.5783,-2.5783,-2.5783,-2.5783,-2.5783,-2.5783,-2.5642,-2.5131,-2.4474,-2.3956,-2.3884,-2.34,-2.3024,-2.3465,-2.3595,-2.3595,-2.3595,-2.4148,-2.4776,-2.548,-2.6138,-2.6797,-2.7505,-2.7978,-2.8288,-2.8288,-2.8732,-2.909,-2.9074,-2.8638,-2.8288,-2.8288,-2.7894,-2.7795,-2.8255,-2.7845,-2.7306,-2.6721,-2.6683,-2.6136,-2.5061,-2.5005,-2.4677,-2.4112,-2.4112,-2.3878,-2.3403,-2.3403,-2.3138,-2.2652,-2.3433,-2.4221,-2.5005,-2.5742,-2.6244,-2.6563,-2.7423,-2.779,-2.789,-2.8748,-2.909,-2.9212,-3.0123,-3.0477,-3.0559,-3.4909,-3.4877,-3.4774,-3.4605,-3.4495,-3.428,-3.3857,-3.3791,-3.3701,-3.3429,-3.3393,-3.3485,-3.3737,-3.3496,-3.3328,-3.3328,-3.3115,-3.2973,-3.2973,-3.3037,-3.2943,-3.2634,-3.2634,-3.2535,-3.2317,-3.2317,-3.2317,-3.2317,-3.2317,-3.2179,-3.1896,-3.175,-3.1524,-3.119,-3.1095,-3.0975,-3.0757,-3.014,-2.954,-2.8934,-2.8352,-2.7944,-2.7625,-2.7625,-2.7458,-2.7306,-2.7306,-2.693,-2.6457,-2.6878,-2.6759,-2.651,-2.693,-2.6428,-2.5783,-2.5783,-2.5783,-2.5711,-2.5145,-2.5095,-2.5085,-2.4675,-2.4655,-2.4787,-2.4925,-2.4971,-2.4971,-2.4971,-2.5136,-2.5573,-2.6595,-2.6916,-2.7425,-2.845,-2.8748,-2.8842,-2.8842,-2.9257,-2.9438,-2.9136,-2.9241,-2.9196,-2.8873,-2.84,-2.8158,-2.8304,-2.7894,-2.766,-2.775,-2.7122,-2.651,-2.619,-2.5742,-2.5467,-2.5245,-2.4878,-2.4664,-2.4492,-2.4099,-2.3806,-2.3675,-2.4292,-2.4765,-2.5061,-2.5974,-2.6404,-2.6602,-2.7799,-2.8255,-2.8352,-2.9241,-2.9777,-3.0081,-3.0393,-3.0699,-3.1038,-3.4458,-3.4409,-3.4293,-3.4124,-3.4023,-3.3895,-3.3726,-3.3698,-3.3698,-3.3698,-3.3698,-3.3671,-3.3549,-3.3437,-3.3237,-3.305,-3.3037,-3.3037,-3.3037,-3.3256,-3.3286,-3.3037,-3.3037,-3.2925,-3.2734,-3.2702,-3.2702,-3.2702,-3.2702,-3.2519,-3.2127,-3.1986,-3.1731,-3.1351,-3.1095,-3.0975,-3.0855,-3.0241,-2.9689,-2.9118,-2.8528,-2.8027,-2.7625,-2.7625,-2.7625,-2.7625,-2.7625,-2.7357,-2.71,-2.7458,-2.7357,-2.71,-2.7458,-2.7086,-2.6496,-2.6496,-2.6496,-2.6409,-2.6073,-2.5988,-2.5962,-2.5629,-2.5556,-2.5615,-2.5615,-2.5615,-2.5661,-2.5832,-2.5935,-2.6331,-2.7395,-2.7628,-2.8,-2.8949,-2.9257,-2.9348,-2.9348,-2.9766,-2.9941,-2.9661,-2.9705,-2.9661,-2.9393,-2.8919,-2.8543,-2.8304,-2.8027,-2.7929,-2.8027,-2.7393,-2.693,-2.6736,-2.6336,-2.6014,-2.5783,-2.5481,-2.5314,-2.5328,-2.4935,-2.4607,-2.4447,-2.5048,-2.5384,-2.5591,-2.639,-2.6901,-2.7348,-2.8321,-2.881,-2.9088,-2.9777,-3.0225,-3.0518,-3.0699,-3.1021,-3.1428,-3.4908,-3.4751,-3.4623,-3.4583,-3.4386,-3.4221,-3.4197,-3.4197,-3.4197,-3.4197,-3.4197,-3.4099,-3.3842,-3.4049,-3.3998,-3.3509,-3.3452,-3.3452,-3.3452,-3.3452,-3.3452,-3.3452,-3.3422,-3.3422,-3.3422,-3.3393,-3.3393,-3.3393,-3.3393,-3.3178,-3.2795,-3.2468,-3.2039,-3.1582,-3.1196,-3.0895,-3.0692,-3.0241,-2.9661,-2.9074,-2.8543,-2.8076,-2.7625,-2.7625,-2.7625,-2.7625,-2.7625,-2.7625,-2.7625,-2.7625,-2.7625,-2.7625,-2.7625,-2.7625,-2.7625,-2.7625,-2.7625,-2.7625,-2.7625,-2.7126,-2.6662,-2.6662,-2.6246,-2.5781,-2.5828,-2.5828,-2.5968,-2.6472,-2.6702,-2.7066,-2.8021,-2.8295,-2.8591,-2.912,-2.9572,-2.9853,-2.9853,-3.0199,-3.0526,-3.0526,-3.0113,-2.9853,-2.9853,-2.9438,-2.8919,-2.8432,-2.8384,-2.8158,-2.766,-2.766,-2.7357,-2.6788,-2.6774,-2.651,-2.5946,-2.5892,-2.5837,-2.5783,-2.5783,-2.5522,-2.5118,-2.5632,-2.6122,-2.6563,-2.7019,-2.77,-2.856,-2.9012,-2.9438,-2.9881,-3.0351,-3.0559,-3.0601,-3.1055,-3.1428,-3.1714,-3.4908,-3.4851,-3.4791,-3.4645,-3.4539,-3.445,-3.4221,-3.4197,-3.4197,-3.4197,-3.4197,-3.4173,-3.4124,-3.4173,-3.4148,-3.4023,-3.3998,-3.3998,-3.3998,-3.3998,-3.3998,-3.3998,-3.3815,-3.3698,-3.3698,-3.3491,-3.3393,-3.3393,-3.3393,-3.3178,-3.2795,-3.2468,-3.2039,-3.1582,-3.1117,-3.0814,-3.0692,-3.0468,-2.9897,-2.9074,-2.8982,-2.8367,-2.7625,-2.7625,-2.7625,-2.7625,-2.7625,-2.7625,-2.7625,-2.7625,-2.7625,-2.7625,-2.7625,-2.7625,-2.7625,-2.7625,-2.7625,-2.7625,-2.7625,-2.7455,-2.7335,-2.7335,-2.7482,-2.7779,-2.8171,-2.8264,-2.831,-2.8402,-2.8497,-2.8683,-2.9287,-2.9399,-2.9601,-3.0113,-3.0241,-3.0342,-3.0342,-3.0426,-3.0526,-3.0526,-3.0384,-3.0342,-3.0342,-2.9897,-2.9572,-2.9467,-2.9104,-2.8685,-2.8158,-2.811,-2.7929,-2.7408,-2.7408,-2.7306,-2.7188,-2.6721,-2.6283,-2.5783,-2.5783,-2.5783,-2.5755,-2.6361,-2.6745,-2.7019,-2.8012,-2.8606,-2.8889,-2.9777,-3.0208,-3.0393,-3.0838,-3.1015,-3.1095,-3.1449,-3.162,-3.1787,-3.4908,-3.4908,-3.487,-3.4751,-3.473,-3.4689,-3.4545,-3.4524,-3.4524,-3.4524,-3.4524,-3.448,-3.4386,-3.4458,-3.448,-3.4386,-3.4269,-3.4197,-3.4197,-3.4197,-3.4197,-3.4197,-3.3947,-3.3807,-3.3807,-3.352,-3.3393,-3.3393,-3.3393,-3.3286,-3.3068,-3.2716,-3.2265,-3.175,-3.1317,-3.0942,-3.0609,-3.051,-3.007,-2.9393,-2.9182,-2.8654,-2.7894,-2.766,-2.7625,-2.7625,-2.7625,-2.7625,-2.7625,-2.7625,-2.7625,-2.7625,-2.7625,-2.7625,-2.7625,-2.7625,-2.7625,-2.7625,-2.7625,-2.7625,-2.766,-2.7894,-2.8319,-2.8732,-2.9028,-2.9074,-2.9166,-2.9393,-2.9257,-2.9303,-2.9984,-2.9924,-2.9941,-3.0426,-3.0526,-3.0526,-3.0526,-3.0526,-3.0526,-3.0526,-3.0526,-3.0526,-3.0526,-3.0258,-3.0027,-2.981,-2.9572,-2.9212,-2.8685,-2.8685,-2.8367,-2.7625,-2.7625,-2.7625,-2.7625,-2.7255,-2.6826,-2.6229,-2.6496,-2.6534,-2.6453,-2.7246,-2.7765,-2.7963,-2.881,-2.9377,-2.9689,-3.0251,-3.0707,-3.105,-3.1334,-3.1524,-3.1731,-3.1896,-3.2056,-3.2265,-3.4908,-3.4908,-3.4908,-3.4908,-3.4908,-3.4908,-3.4908,-3.4908,-3.4908,-3.4908,-3.4908,-3.4831,-3.4668,-3.4811,-3.4831,-3.4647,-3.4431,-3.4316,-3.4316,-3.4316,-3.4316,-3.4316,-3.4074,-3.3921,-3.3921,-3.3633,-3.3452,-3.3393,-3.3393,-3.3393,-3.3393,-3.2988,-3.2535,-3.2074,-3.1585,-3.1067,-3.0593,-3.051,-3.0258,-2.975,-2.9303,-2.8779,-2.8255,-2.7795,-2.7625,-2.7625,-2.7625,-2.7625,-2.7625,-2.7625,-2.7625,-2.7625,-2.7625,-2.7625,-2.7625,-2.7625,-2.766,-2.771,-2.7625,-2.766,-2.7845,-2.84,-2.8873,-2.9212,-2.9303,-2.9303,-2.9438,-2.9793,-2.9572,-2.9572,-3.0342,-3.0156,-3.0027,-3.0426,-3.0526,-3.0526,-3.0526,-3.0526,-3.0526,-3.0526,-3.0526,-3.0526,-3.0526,-3.0526,-3.0342,-2.9941,-2.9897,-2.9705,-2.9212,-2.9212,-2.8795,-2.786,-2.776,-2.766,-2.7625,-2.7625,-2.7357,-2.6826,-2.7357,-2.7444,-2.7195,-2.811,-2.8716,-2.909,-2.954,-3.0021,-3.0518,-3.0625,-3.1089,-3.1714,-3.175,-3.2003,-3.2317,-3.2351,-3.2535,-3.2795,-3.4908,-3.4908,-3.4908,-3.4908,-3.4908,-3.4908,-3.4908,-3.4908,-3.4908,-3.4908,-3.4908,-3.4889,-3.487,-3.4889,-3.4889,-3.487,-3.4812,-3.4792,-3.4792,-3.4792,-3.4792,-3.4792,-3.4586,-3.4473,-3.4473,-3.3998,-3.3633,-3.3393,-3.3393,-3.3393,-3.3393,-3.2943,-3.2636,-3.2488,-3.1694,-3.1201,-3.0965,-3.0634,-3.0258,-2.975,-2.9303,-2.8779,-2.8255,-2.7795,-2.7625,-2.7625,-2.7625,-2.7625,-2.7625,-2.7625,-2.7625,-2.7625,-2.7625,-2.7625,-2.7625,-2.7625,-2.7894,-2.811,-2.771,-2.7894,-2.8384,-2.9332,-2.9617,-2.981,-3.0199,-3.03,-3.03,-3.0384,-3.0342,-3.0342,-3.0468,-3.0426,-3.0426,-3.0485,-3.0526,-3.0526,-3.0526,-3.0526,-3.0526,-3.0526,-3.0526,-3.0526,-3.0526,-3.0526,-3.0468,-3.0384,-3.0384,-3.0215,-2.9705,-2.9705,-2.9438,-2.8889,-2.8448,-2.7978,-2.761,-2.7625,-2.756,-2.7458,-2.7575,-2.7894,-2.8432,-2.8591,-2.9012,-2.9705,-3.0166,-3.0418,-3.0559,-3.1206,-3.1603,-3.1714,-3.2056,-3.2248,-3.2334,-3.2601,-3.2763,-3.289,-3.4751,-3.481,-3.4849,-3.4849,-3.487,-3.4908,-3.4908,-3.4908,-3.4908,-3.4908,-3.4908,-3.4908,-3.4908,-3.4908,-3.4908,-3.4908,-3.4908,-3.4908,-3.4908,-3.4908,-3.4908,-3.4908,-3.471,-3.4539,-3.4404,-3.4148,-3.3868,-3.3633,-3.3633,-3.3549,-3.3393,-3.3135,-3.2866,-3.2573,-3.1896,-3.1414,-3.1083,-3.0675,-3.0384,-3.0113,-2.9393,-2.8935,-2.8638,-2.7894,-2.7625,-2.7625,-2.7625,-2.7625,-2.7625,-2.7625,-2.7625,-2.7625,-2.7625,-2.7745,-2.7978,-2.7978,-2.7929,-2.7978,-2.8319,-2.8559,-2.8919,-2.9617,-2.9984,-3.0241,-3.0426,-3.0526,-3.0526,-3.0526,-3.0526,-3.0526,-3.0526,-3.0526,-3.0526,-3.0526,-3.0526,-3.0526,-3.0526,-3.0526,-3.0526,-3.0526,-3.0526,-3.0526,-3.0526,-3.0526,-3.0526,-3.0526,-3.0526,-3.0384,-3.0199,-3.0156,-2.9984,-2.9483,-2.8966,-2.8654,-2.8415,-2.8415,-2.8415,-2.8415,-2.8432,-2.867,-2.9088,-2.9406,-2.9777,-3.0225,-3.0658,-3.0982,-3.1184,-3.1565,-3.1914,-3.2316,-3.2502,-3.2684,-3.2912,-3.3068,-3.3202,-3.339,-3.4623,-3.4687,-3.4768,-3.4788,-3.4849,-3.4889,-3.4908,-3.4908,-3.4908,-3.4908,-3.4908,-3.4908,-3.4908,-3.4908,-3.4908,-3.4908,-3.4908,-3.4908,-3.4908,-3.4908,-3.4908,-3.4908,-3.4751,-3.4561,-3.4293,-3.4293,-3.4173,-3.3895,-3.3895,-3.3753,-3.3481,-3.3393,-3.3104,-3.2672,-3.2144,-3.166,-3.1223,-3.0821,-3.0593,-3.0426,-2.9483,-2.9074,-2.8982,-2.7993,-2.7625,-2.7625,-2.7625,-2.766,-2.776,-2.776,-2.786,-2.7959,-2.7959,-2.8222,-2.8496,-2.8496,-2.8222,-2.814,-2.9028,-2.9257,-2.9393,-2.9853,-3.0241,-3.0526,-3.0526,-3.0526,-3.0526,-3.0526,-3.0526,-3.0526,-3.0526,-3.0526,-3.0526,-3.0526,-3.0526,-3.0526,-3.0526,-3.0526,-3.0526,-3.0526,-3.0526,-3.0526,-3.0526,-3.0526,-3.0526,-3.0526,-3.0526,-3.0526,-3.0526,-3.0526,-3.0342,-2.9984,-2.9393,-2.9074,-2.9074,-2.912,-2.9104,-2.9104,-2.921,-2.9374,-2.9629,-3.0081,-3.0435,-3.0699,-3.1117,-3.1449,-3.1714,-3.1896,-3.2299,-3.2795,-3.2908,-3.3129,-3.3411,-3.3481,-3.3615,-3.3834,-3.4645,-3.4623,-3.4645,-3.4768,-3.4809,-3.4829,-3.4889,-3.4908,-3.4908,-3.4908,-3.4908,-3.4908,-3.4908,-3.4908,-3.4908,-3.4908,-3.4908,-3.4908,-3.4908,-3.4908,-3.4908,-3.4908,-3.4889,-3.4791,-3.458,-3.4561,-3.445,-3.4173,-3.4173,-3.3998,-3.3671,-3.355,-3.3291,-3.2948,-3.2488,-3.2056,-3.164,-3.124,-3.0861,-3.0426,-2.9483,-2.9074,-2.8982,-2.7993,-2.7625,-2.7625,-2.7625,-2.7894,-2.8255,-2.8255,-2.8591,-2.8982,-2.8982,-2.9028,-2.9028,-2.9028,-2.9028,-2.912,-2.9617,-2.975,-2.9837,-3.0342,-3.0468,-3.0526,-3.0526,-3.0526,-3.0526,-3.0526,-3.0526,-3.0526,-3.0526,-3.0526,-3.0526,-3.0526,-3.0526,-3.0526,-3.0526,-3.0526,-3.0526,-3.0526,-3.0526,-3.0526,-3.0526,-3.0526,-3.0526,-3.0526,-3.0526,-3.0526,-3.0526,-3.0526,-3.0468,-3.0426,-2.9572,-2.9074,-2.9074,-2.9164,-2.9194,-2.9194,-2.93,-2.9673,-3.0251,-3.0293,-3.0617,-3.119,-3.1507,-3.1694,-3.175,-3.2435,-3.2763,-3.2844,-3.3208,-3.3364,-3.3422,-3.3671,-3.378,-3.3868,-3.4811,-3.4831,-3.4851,-3.4926,-3.5001,-3.5073,-3.5143,-3.5143,-3.516,-3.5138,-3.5155,-3.5122,-3.5035,-3.5018,-3.4982,-3.4908,-3.4908,-3.4908,-3.4908,-3.4908,-3.4908,-3.4908,-3.4908,-3.4851,-3.4791,-3.4791,-3.4689,-3.445,-3.4363,-3.4124,-3.3698,-3.353,-3.3268,-3.2979,-3.2266,-3.1823,-3.164,-3.1004,-3.0634,-3.0426,-2.9483,-2.9257,-2.9438,-2.84,-2.8222,-2.8511,-2.8511,-2.8654,-2.8795,-2.8795,-2.8935,-2.9074,-2.9074,-2.9303,-2.9572,-2.9881,-2.9984,-3.0027,-3.0215,-3.0027,-2.9897,-3.0384,-3.0526,-3.0526,-3.0526,-3.0526,-3.0526,-3.0526,-3.0526,-3.0526,-3.0526,-3.0526,-3.0526,-3.0526,-3.0526,-3.0526,-3.0526,-3.0526,-3.0526,-3.0526,-3.0526,-3.0526,-3.0526,-3.0526,-3.0526,-3.0526,-3.0526,-3.0526,-3.0526,-3.0526,-3.0526,-3.0609,-3.03,-3.0113,-3.0113,-3.014,-3.0166,-3.0267,-3.0351,-3.0625,-3.1089,-3.1128,-3.1435,-3.1877,-3.2003,-3.2196,-3.2384,-3.2699,-3.2957,-3.3208,-3.353,-3.3661,-3.3671,-3.3947,-3.4148,-3.4316,-3.4908,-3.4945,-3.4981,-3.4999,-3.5088,-3.5174,-3.5277,-3.5312,-3.5308,-3.53,-3.5315,-3.5251,-3.5122,-3.5105,-3.5035,-3.487,-3.4889,-3.4889,-3.487,-3.4889,-3.4908,-3.4908,-3.4908,-3.4908,-3.4908,-3.4908,-3.4831,-3.4666,-3.4561,-3.4293,-3.3815,-3.3615,-3.3357,-3.3024,-3.2369,-3.1932,-3.164,-3.1123,-3.074,-3.0426,-2.9617,-2.9528,-2.9705,-2.8873,-2.8779,-2.9074,-2.9074,-2.9212,-2.9303,-2.9303,-2.9393,-2.9528,-2.9528,-2.975,-3.007,-3.0426,-3.0526,-3.0526,-3.0526,-3.0241,-3.0113,-3.0426,-3.0526,-3.0526,-3.0526,-3.0526,-3.0526,-3.0526,-3.0526,-3.0526,-3.0526,-3.0526,-3.0526,-3.0526,-3.0526,-3.0526,-3.0526,-3.0526,-3.0526,-3.0526,-3.0526,-3.0551,-3.0675,-3.0593,-3.0593,-3.0861,-3.074,-3.074,-3.0861,-3.0902,-3.0942,-3.1044,-3.1044,-3.1083,-3.1162,-3.1021,-3.1061,-3.1278,-3.1372,-3.1545,-3.1823,-3.186,-3.2039,-3.2317,-3.2419,-3.2568,-3.2795,-3.2957,-3.319,-3.3549,-3.3726,-3.3842,-3.3947,-3.4221,-3.445,-3.4623,-3.4926,-3.4889,-3.4926,-3.4999,-3.4997,-3.5069,-3.5277,-3.5293,-3.5308,-3.53,-3.5296,-3.5251,-3.5122,-3.5105,-3.5037,-3.4809,-3.4869,-3.487,-3.4809,-3.485,-3.4908,-3.4908,-3.4908,-3.4908,-3.4908,-3.4908,-3.4869,-3.4788,-3.4788,-3.4561,-3.4099,-3.3813,-3.3514,-3.319,-3.2993,-3.2437,-3.1677,-3.1694,-3.1223,-3.0468,-2.9984,-2.9793,-2.975,-2.9257,-2.912,-2.912,-2.912,-2.9393,-2.981,-2.981,-3.0113,-3.0526,-3.0526,-3.0526,-3.0526,-3.0526,-3.0526,-3.0526,-3.0526,-3.0526,-3.0526,-3.0526,-3.0526,-3.0526,-3.0526,-3.0526,-3.0526,-3.0526,-3.0526,-3.0526,-3.0526,-3.0526,-3.0526,-3.0526,-3.0526,-3.0526,-3.051,-3.051,-3.0526,-3.051,-3.051,-3.0675,-3.1083,-3.074,-3.0861,-3.164,-3.1338,-3.1261,-3.1677,-3.1677,-3.1733,-3.1789,-3.1789,-3.188,-3.2092,-3.177,-3.177,-3.2092,-3.2231,-3.2317,-3.2317,-3.2317,-3.2317,-3.2317,-3.2666,-3.2795,-3.2844,-3.3256,-3.3549,-3.3788,-3.3807,-3.3972,-3.4245,-3.4495,-3.4583,-3.4626,-3.5339,-3.5324,-3.5339,-3.5354,-3.5335,-3.5364,-3.5435,-3.5449,-3.5449,-3.5489,-3.5509,-3.5449,-3.5335,-3.5171,-3.5035,-3.4889,-3.4751,-3.4668,-3.4666,-3.4769,-3.479,-3.4689,-3.4812,-3.4908,-3.4908,-3.4849,-3.4829,-3.4788,-3.4623,-3.4381,-3.4099,-3.3788,-3.3484,-3.319,-3.2669,-3.2197,-3.1677,-3.1414,-3.0965,-3.0468,-2.9984,-2.9984,-3.0241,-2.975,-2.981,-3.007,-3.007,-3.0156,-3.03,-3.03,-3.0384,-3.0526,-3.0526,-3.0526,-3.0526,-3.0526,-3.0526,-3.0526,-3.0526,-3.0526,-3.0526,-3.0526,-3.0526,-3.0526,-3.0526,-3.0526,-3.0526,-3.0526,-3.0526,-3.0526,-3.0526,-3.0526,-3.0526,-3.0526,-3.0526,-3.0593,-3.0885,-3.0925,-3.1044,-3.13,-3.1338,-3.1376,-3.149,-3.1414,-3.1452,-3.1677,-3.1603,-3.1585,-3.1752,-3.1752,-3.1861,-3.2004,-3.1986,-3.2213,-3.2601,-3.2179,-3.2056,-3.2231,-3.2283,-3.2401,-3.2634,-3.2634,-3.2781,-3.3086,-3.3178,-3.3309,-3.3522,-3.3625,-3.3842,-3.4099,-3.4293,-3.4427,-3.4517,-3.4832,-3.4963,-3.4982,-3.5493,-3.5493,-3.5493,-3.5493,-3.5493,-3.5501,-3.5502,-3.5515,-3.5515,-3.5591,-3.5591,-3.5554,-3.5412,-3.5223,-3.5016,-3.4851,-3.4628,-3.4539,-3.4602,-3.4666,-3.4687,-3.4583,-3.471,-3.4791,-3.4791,-3.4749,-3.4687,-3.4645,-3.4473,-3.4316,-3.4124,-3.378,-3.3502,-3.3339,-3.2784,-3.2231,-3.1677,-3.1452,-3.1004,-3.0485,-3.0199,-3.0258,-3.0468,-3.0199,-3.0241,-3.0526,-3.0526,-3.0526,-3.0526,-3.0526,-3.0526,-3.0526,-3.0526,-3.0526,-3.0526,-3.0526,-3.0526,-3.0526,-3.0526,-3.0526,-3.0526,-3.0526,-3.0526,-3.0526,-3.0526,-3.0526,-3.0526,-3.0526,-3.0526,-3.0526,-3.0526,-3.0526,-3.0551,-3.0699,-3.074,-3.0902,-3.1261,-3.1338,-3.1414,-3.1677,-3.1677,-3.175,-3.1913,-3.1787,-3.1768,-3.1913,-3.2127,-3.2214,-3.2265,-3.2299,-3.2401,-3.2586,-3.2586,-3.2716,-3.3019,-3.2749,-3.2651,-3.2734,-3.2734,-3.283,-3.3019,-3.3019,-3.322,-3.3549,-3.3549,-3.3698,-3.3947,-3.3947,-3.4124,-3.4386,-3.4567,-3.4693,-3.4831,-3.5069,-3.5171,-3.5187,-3.5493,-3.5493,-3.5493,-3.5493,-3.5493,-3.5501,-3.5502,-3.5502,-3.5515,-3.5579,-3.5591,-3.5554,-3.5427,-3.5223,-3.4999,-3.4773,-3.4545,-3.4495,-3.4583,-3.4626,-3.4645,-3.4602,-3.4623,-3.4623,-3.4602,-3.4602,-3.4517,-3.4386,-3.4404,-3.4316,-3.4197,-3.3807,-3.3605,-3.3577,-3.3117,-3.2437,-3.1677,-3.1677,-3.124,-3.0526,-3.0526,-3.0526,-3.0526,-3.0526,-3.0526,-3.0526,-3.0526,-3.0526,-3.0526,-3.0526,-3.0526,-3.0526,-3.0526,-3.0526,-3.0526,-3.0526,-3.0526,-3.0526,-3.0526,-3.0526,-3.0526,-3.0526,-3.0526,-3.0526,-3.0526,-3.0526,-3.0526,-3.0526,-3.0526,-3.0526,-3.0526,-3.051,-3.0658,-3.1044,-3.1123,-3.13,-3.1694,-3.175,-3.1768,-3.1787,-3.1823,-3.1932,-3.2318,-3.202,-3.1967,-3.2318,-3.277,-3.3028,-3.3028,-3.3073,-3.3165,-3.3292,-3.3292,-3.3322,-3.3393,-3.3422,-3.3422,-3.3393,-3.3393,-3.3393,-3.3422,-3.3422,-3.3577,-3.386,-3.386,-3.3998,-3.4245,-3.4245,-3.4386,-3.4647,-3.4696,-3.4906,-3.5138,-3.5266,-3.533,-3.533,-3.5493,-3.5493,-3.5493,-3.5493,-3.5493,-3.5507,-3.5488,-3.5501,-3.552,-3.552,-3.552,-3.552,-3.5474,-3.5289,-3.5157,-3.5107,-3.4908,-3.4751,-3.4623,-3.4812,-3.4812,-3.4623,-3.4649,-3.4649,-3.4602,-3.4495,-3.4427,-3.4386,-3.4293,-3.4221,-3.4197,-3.3807,-3.3605,-3.3577,-3.3117,-3.2437,-3.1677,-3.1677,-3.124,-3.0526,-3.0526,-3.0526,-3.0526,-3.0526,-3.0526,-3.0526,-3.0526,-3.0526,-3.0526,-3.0526,-3.0526,-3.0526,-3.0526,-3.0526,-3.0526,-3.0526,-3.0526,-3.0526,-3.0526,-3.0526,-3.0526,-3.0526,-3.0526,-3.0526,-3.0526,-3.0526,-3.0526,-3.0526,-3.0526,-3.0526,-3.0526,-3.074,-3.1004,-3.1083,-3.1338,-3.1714,-3.2127,-3.2162,-3.2283,-3.2588,-3.2621,-3.2654,-3.277,-3.2705,-3.2705,-3.2852,-3.2948,-3.306,-3.3232,-3.3262,-3.3292,-3.3382,-3.3382,-3.3382,-3.3393,-3.3605,-3.3605,-3.3393,-3.3393,-3.3491,-3.3726,-3.3726,-3.3842,-3.4124,-3.4124,-3.4269,-3.4517,-3.4517,-3.4711,-3.5,-3.5016,-3.5102,-3.5266,-3.5416,-3.5457,-3.547,-3.5493,-3.5493,-3.5493,-3.5493,-3.5493,-3.5493,-3.5493,-3.5493,-3.5493,-3.5493,-3.5493,-3.5493,-3.5493,-3.5324,-3.5157,-3.5072,-3.4964,-3.487,-3.4751,-3.487,-3.4851,-3.4604,-3.4628,-3.4647,-3.4602,-3.4517,-3.4431,-3.4293,-3.4221,-3.4197,-3.4197,-3.3807,-3.3605,-3.3577,-3.3117,-3.2437,-3.1677,-3.1677,-3.124,-3.0526,-3.0526,-3.0526,-3.0526,-3.0526,-3.0526,-3.0526,-3.0526,-3.0526,-3.0526,-3.0526,-3.0526,-3.0526,-3.0526,-3.0526,-3.0526,-3.0526,-3.0526,-3.0526,-3.0526,-3.0526,-3.0526,-3.0526,-3.0634,-3.0781,-3.0781,-3.0781,-3.0861,-3.1044,-3.1083,-3.1083,-3.1083,-3.1223,-3.1452,-3.164,-3.1841,-3.2127,-3.2521,-3.2606,-3.2672,-3.2884,-3.2916,-3.2916,-3.2916,-3.2916,-3.3011,-3.319,-3.3298,-3.3426,-3.3634,-3.368,-3.3753,-3.378,-3.378,-3.378,-3.378,-3.3921,-3.3921,-3.378,-3.378,-3.386,-3.3998,-3.3998,-3.4148,-3.4386,-3.442,-3.4591,-3.4851,-3.4908,-3.5053,-3.5203,-3.5266,-3.5326,-3.5416,-3.554,-3.5847,-3.6245,-3.5493,-3.5493,-3.5493,-3.5493,-3.5493,-3.5493,-3.5493,-3.5493,-3.5493,-3.5493,-3.5493,-3.5493,-3.5493,-3.5354,-3.5174,-3.5019,-3.5001,-3.5001,-3.4945,-3.4963,-3.4908,-3.471,-3.4668,-3.4647,-3.4647,-3.4561,-3.445,-3.4269,-3.4269,-3.4245,-3.4197,-3.3807,-3.3605,-3.3577,-3.3117,-3.2488,-3.1787,-3.1714,-3.1278,-3.0593,-3.051,-3.0526,-3.0526,-3.0526,-3.0526,-3.0526,-3.0526,-3.0526,-3.0526,-3.0526,-3.0526,-3.051,-3.0593,-3.0593,-3.0634,-3.0658,-3.0699,-3.0699,-3.0699,-3.0699,-3.0699,-3.0699,-3.0965,-3.124,-3.13,-3.1261,-3.1317,-3.164,-3.1677,-3.1677,-3.1677,-3.1768,-3.1913,-3.2249,-3.2352,-3.2521,-3.2834,-3.2916,-3.2916,-3.2916,-3.2916,-3.2916,-3.2993,-3.3024,-3.319,-3.3486,-3.3662,-3.3831,-3.4025,-3.4136,-3.4197,-3.4197,-3.4197,-3.4197,-3.4197,-3.4245,-3.4269,-3.4269,-3.4316,-3.4316,-3.4269,-3.4269,-3.4431,-3.4689,-3.4755,-3.4906,-3.5138,-3.5251,-3.5296,-3.5345,-3.5457,-3.5592,-3.5772,-3.6029,-3.6555,-3.7232,-3.5493,-3.5493,-3.5493,-3.5493,-3.5493,-3.5493,-3.5493,-3.5493,-3.5493,-3.5493,-3.5493,-3.5493,-3.5493,-3.5479,-3.5446,-3.5417,-3.5417,-3.5339,-3.5157,-3.5324,-3.5339,-3.5124,-3.4945,-3.487,-3.487,-3.4458,-3.434,-3.4539,-3.4539,-3.4427,-3.4197,-3.3807,-3.3605,-3.3577,-3.3117,-3.2639,-3.2214,-3.1841,-3.1452,-3.1004,-3.0634,-3.0526,-3.0526,-3.0526,-3.0526,-3.0526,-3.0526,-3.0526,-3.0526,-3.0526,-3.0526,-3.0551,-3.0885,-3.1004,-3.1083,-3.1452,-3.1528,-3.1528,-3.1528,-3.1528,-3.1528,-3.1528,-3.1565,-3.1714,-3.2056,-3.1877,-3.164,-3.1677,-3.1677,-3.1677,-3.1677,-3.1985,-3.2249,-3.2283,-3.2606,-3.2852,-3.2884,-3.2916,-3.2916,-3.2916,-3.2916,-3.3006,-3.3302,-3.3332,-3.3514,-3.388,-3.3931,-3.4018,-3.4154,-3.4197,-3.4197,-3.4197,-3.4197,-3.4197,-3.4197,-3.4427,-3.4539,-3.4539,-3.4711,-3.4711,-3.4539,-3.4539,-3.4732,-3.5035,-3.5034,-3.5119,-3.5266,-3.5281,-3.5374,-3.547,-3.5483,-3.6009,-3.6803,-3.7568,-3.7928,-3.8044,-3.5493,-3.5493,-3.5493,-3.5493,-3.5493,-3.5493,-3.5493,-3.5493,-3.5493,-3.5493,-3.5493,-3.5493,-3.5493,-3.5493,-3.5493,-3.5493,-3.5493,-3.546,-3.5369,-3.5339,-3.5242,-3.5037,-3.485,-3.473,-3.473,-3.4539,-3.4473,-3.4602,-3.445,-3.4316,-3.4197,-3.3807,-3.3605,-3.3577,-3.3117,-3.2672,-3.2283,-3.1806,-3.1359,-3.1004,-3.0593,-3.0401,-3.0359,-3.0485,-3.0485,-3.0443,-3.0485,-3.0526,-3.051,-3.074,-3.0821,-3.0902,-3.13,-3.1432,-3.1452,-3.164,-3.1677,-3.1677,-3.1677,-3.1677,-3.1677,-3.1677,-3.1877,-3.2091,-3.2249,-3.2352,-3.2369,-3.2369,-3.2369,-3.2369,-3.2369,-3.2521,-3.2639,-3.2639,-3.277,-3.2916,-3.2916,-3.2916,-3.2961,-3.316,-3.3268,-3.3379,-3.3661,-3.3698,-3.3813,-3.4218,-3.4284,-3.4394,-3.4588,-3.4588,-3.4588,-3.4588,-3.4588,-3.4588,-3.4588,-3.4773,-3.4889,-3.4889,-3.5053,-3.5035,-3.4889,-3.4889,-3.5,-3.5219,-3.5281,-3.5374,-3.5416,-3.5502,-3.5823,-3.6284,-3.6284,-3.6829,-3.7735,-3.8605,-3.8953,-3.905]}]]